[[{"header":{"parameterUnit":"m.s-1","parameterCategory":1,"la1":31.0,"la2":29.5877,"lo1":-88.7671,"lo2":-86.6584,"dx":0.0162,"dy":0.0185,"nx":115,"ny":88,"refTime":"2022-12-06T18:00:00:Z","depth":0,"parameterNumber":2,"parameterNumberName":"U-component_of_WINDS"},"data":[0.0,0.0,0.0,0.0,0.0,0.0,0.0,0.0,0.0,0.0,0.0,0.0,0.0,0.0,0.0,0.0,0.0,0.0,0.0,0.0,0.0,0.0,0.0,0.0,0.0,0.0,0.0,0.0,0.0,0.0,0.0,0.0,0.0,0.0,0.0,0.0,0.0,0.0,0.0,0.0,0.0,0.0,0.0,0.0,0.0,0.0,0.0,0.0,0.0,0.0,0.0,0.0,0.0,0.0,0.0,0.0,0.0,0.0,0.0,0.0,0.0,0.0,0.0,0.0,0.0,0.0,0.0,0.0,0.0,0.0,0.0,0.0,0.0,0.0,0.0,0.0,0.0,0.0,0.0,0.0,0.0,0.0,0.0,0.0,0.0,0.0,0.0,0.0,0.0,0.0,0.0,0.0,0.0,0.0,0.0,0.0,0.0,0.0,0.0,0.0,0.0,0.0,0.0,0.0,0.0,0.0,0.0,0.0,0.0,0.0,0.0,0.0,0.0,0.0,0.0,0.0,0.0,0.0,0.0,0.0,0.0,0.0,0.0,0.0,0.0,0.0,0.0,0.0,0.0,0.0,0.0,0.0,0.0,0.0,0.0,0.0,0.0,0.0,0.0,0.0,0.0,0.0,0.0,0.0,0.0,0.0,0.0,0.0,0.0,0.0,0.0,0.0,0.0,0.0,0.0,0.0,0.0,0.0,0.0,0.0,0.0,0.0,0.0,0.0,0.0,0.0,0.0,0.0,0.0,0.0,0.0,0.0,0.0,0.0,0.0,0.0,0.0,0.0,0.0,0.0,0.0,0.0,0.0,0.0,0.0,0.0,0.0,0.0,0.0,0.0,0.0,0.0,0.0,0.0,0.0,0.0,0.0,0.0,0.0,0.0,0.0,0.0,0.0,0.0,0.0,0.0,0.0,0.0,0.0,0.0,0.0,0.0,0.0,0.0,0.0,0.0,0.0,0.0,0.0,0.0,0.0,0.0,0.0,0.0,0.0,0.0,0.0,0.0,0.0,0.0,0.0,0.0,0.0,0.0,0.0,0.0,0.0,0.0,0.0,0.0,0.0,0.0,0.0,0.0,0.0,0.0,0.0,0.0,0.0,0.0,0.0,0.0,0.0,0.0,0.0,0.0,0.0,0.0,0.0,0.0,0.0,0.0,0.0,0.0,0.0,0.0,0.0,0.0,0.0,0.0,0.0,0.0,0.0,0.0,0.0,0.0,0.0,0.0,0.0,0.0,0.0,0.0,0.0,0.0,0.0,0.0,0.0,0.0,0.0,0.0,0.0,0.0,0.0,0.0,0.0,0.0,0.0,0.0,0.0,0.0,0.0,0.0,0.0,0.0,0.0,0.0,0.0,0.0,0.0,0.0,0.0,0.0,0.0,0.0,0.0,0.0,0.0,0.0,0.0,0.0,0.0,0.0,0.0,0.0,0.0,0.0,0.0,0.0,0.0,0.0,0.0,0.0,0.0,0.0,0.0,0.0,0.0,0.0,0.0,0.0,0.0,0.0,0.0,0.0,0.0,0.0,0.0,0.0,0.0,0.0,0.0,0.0,0.0,0.0,0.0,0.0,0.0,0.0,0.0,0.0,0.0,0.0,0.0,0.0,0.0,0.0,0.0,0.0,0.0,0.0,0.0,0.0,0.0,0.0,0.0,0.0,0.0,0.0,0.0,0.0,0.0,0.0,0.0,0.0,0.0,0.0,0.0,0.0,0.0,0.0,0.0,0.0,0.0,0.0,0.0,0.0,0.0,0.0,0.0,0.0,0.0,0.0,0.0,0.0,0.0,0.0,0.0,0.0,0.0,0.0,0.0,0.0,0.0,0.0,0.0,0.0,0.0,0.0,0.0,0.0,0.0,0.0,0.0,0.0,0.0,0.0,0.0,0.0,0.0,0.0,0.0,0.0,0.0,0.0,0.0,0.0,0.0,0.0,0.0,0.0,0.0,0.0,0.0,0.0,0.0,0.0,0.0,0.0,0.0,0.0,0.0,0.0,0.0,0.0,0.0,0.0,0.0,0.0,0.0,0.0,0.0,0.0,0.0,0.0,0.0,0.0,0.0,0.0,0.0,0.0,0.0,0.0,0.0,0.0,0.0,0.0,0.0,0.0,0.0,0.0,0.0,0.0,0.0,0.0,0.0,0.0,0.0,0.0,0.0,0.0,0.0,0.0,0.0,0.0,0.0,0.0,0.0,0.0,0.0,0.0,0.0,0.0,0.0,0.0,0.0,0.0,0.0,0.0,0.0,0.0,0.0,0.0,0.0,0.0,0.0,0.0,0.0,0.0,0.0,0.0,0.0,0.0,0.0,0.0,0.0,0.0,0.0,0.0,0.0,0.0,0.0,0.0,0.0,0.0,0.0,0.0,0.0,0.0,0.0,0.0,0.0,0.0,0.0,0.0,0.0,0.0,0.0,0.0,0.0,0.0,0.0,0.0,0.0,0.0,0.0,0.0,0.0,0.0,0.0,0.0,0.0,0.0,0.0,0.0,0.0,0.0,0.0,0.0,0.0,0.0,0.0,0.0,0.0,0.0,0.0,0.0,0.0,0.0,0.0,0.0,0.0,0.0,0.0,0.0,0.0,0.0,0.0,0.0,0.0,0.0,0.0,0.0,0.0,0.0,0.0,0.0,0.0,0.0,0.0,0.0,0.0,0.0,0.0,0.0,0.0,0.0,0.0,0.0,0.0,0.0,0.0,0.0,0.0,0.0,0.0,0.0,0.0,0.0,0.0,0.0,0.0,0.0,0.0,0.0,0.0,0.0,0.0,0.0,0.0,0.0,0.0,0.0,0.0,0.0,0.0,0.0,0.0,0.0,0.0,0.0,0.0,0.0,0.0,0.0,0.0,0.0,0.0,0.0,0.0,0.0,0.0,0.0,0.0,0.0,0.0,0.0,0.0,0.0,0.0,0.0,0.0,0.0,0.0,0.0,0.0,0.0,0.0,0.0,0.0,0.0,0.0,0.0,0.0,0.0,0.0,0.0,0.0,0.0,0.0,0.0,0.0,0.0,0.0,0.0,0.0,0.0,0.0,0.0,0.0,0.0,0.0,0.0,0.0,0.0,0.0,0.0,0.0,0.0,0.0,0.0,0.0,0.0,0.0,0.0,0.0,0.0,0.0,0.0,0.0,0.0,0.0,0.0,0.0,0.0,0.0,0.0,0.0,0.0,0.0,0.0,0.0,0.0,0.0,0.0,0.0,0.0,0.0,0.0,0.0,0.0,0.0,0.0,0.0,0.0,0.0,0.0,0.0,0.0,0.0,0.0,0.0,0.0,0.0,0.0,0.0,0.0,0.0,0.0,0.0,0.0,0.0,0.0,0.0,0.0,0.0,0.0,0.0,0.0,0.0,0.0,0.0,0.0,0.0,0.0,0.0,0.0,0.0,0.0,0.0,0.0,0.0,0.0,0.0,0.0,0.0,0.0,0.0,0.0,0.0,0.0,0.0,0.0,0.0,0.0,0.0,0.0,0.0,0.0,0.0,0.0,0.0,0.0,0.0,0.0,0.0,0.0,0.0,0.0,0.0,0.0,0.0,0.0,0.0,0.0,0.0,0.0,0.0,0.0,0.0,0.0,0.0,0.0,0.0,0.0,0.0,0.0,0.0,0.0,0.0,0.0,0.0,0.0,0.0,0.0,0.0,0.0,0.0,0.0,0.0,0.0,0.0,0.0,0.0,0.0,0.0,0.0,0.0,0.0,0.0,0.0,0.0,0.0,0.0,0.0,0.0,0.0,0.0,0.0,0.0,0.0,0.0,0.0,0.0,0.0,0.0,0.0,0.0,0.0,0.0,0.0,0.0,0.0,0.0,0.0,0.0,0.0,0.0,0.0,0.0,0.0,0.0,0.0,0.0,0.0,0.0,0.0,0.0,0.0,0.0,0.0,0.0,0.0,0.0,0.0,0.0,0.0,0.0,0.0,0.0,0.0,0.0,0.0,0.0,0.0,0.0,0.0,0.0,0.0,0.0,0.0,0.0,0.0,0.0,0.0,0.0,0.0,0.0,0.0,0.0,0.0,0.0,0.0,0.0,0.0,0.0,0.0,0.0,0.0,0.0,0.0,0.0,0.0,0.0,0.0,0.0,0.0,0.0,0.0,0.0,0.0,0.0,0.0,0.0,0.0,0.0,0.0,0.0,0.0,0.0,0.0,0.0,0.0,0.0,0.0,0.0,0.0,0.0,0.0,0.0,0.0,0.0,0.0,0.0,0.0,0.0,0.0,0.0,0.0,0.0,0.0,0.0,0.0,-1.6897,0.0,0.0,0.0,-1.7347,0.0,0.0,0.0,0.0,0.0,0.0,0.0,0.0,0.0,0.0,0.0,0.0,0.0,0.0,0.0,0.0,0.0,0.0,0.0,0.0,0.0,0.0,0.0,0.0,0.0,0.0,0.0,0.0,0.0,0.0,0.0,0.0,0.0,0.0,0.0,0.0,0.0,0.0,0.0,0.0,0.0,0.0,0.0,0.0,0.0,0.0,0.0,0.0,0.0,0.0,0.0,0.0,0.0,0.0,0.0,0.0,0.0,0.0,0.0,0.0,0.0,0.0,0.0,0.0,0.0,0.0,0.0,0.0,0.0,0.0,0.0,0.0,0.0,0.0,0.0,0.0,0.0,0.0,0.0,0.0,0.0,0.0,0.0,0.0,0.0,0.0,0.0,0.0,0.0,0.0,0.0,0.0,0.0,0.0,0.0,0.0,0.0,0.0,0.0,0.0,0.0,0.0,0.0,0.0,0.0,0.0,0.0,0.0,0.0,0.0,-1.7539,-1.618,-1.8294,-1.8582,-1.6804,0.0,0.0,0.0,0.0,0.0,0.0,0.0,0.0,0.0,0.0,0.0,0.0,0.0,0.0,0.0,0.0,0.0,0.0,0.0,0.0,0.0,0.0,0.0,0.0,0.0,0.0,0.0,0.0,0.0,0.0,0.0,0.0,0.0,0.0,0.0,0.0,0.0,0.0,0.0,0.0,0.0,0.0,0.0,0.0,0.0,0.0,0.0,0.0,0.0,0.0,0.0,0.0,0.0,0.0,0.0,0.0,0.0,0.0,0.0,0.0,0.0,0.0,0.0,0.0,0.0,0.0,0.0,0.0,0.0,0.0,0.0,0.0,0.0,0.0,0.0,0.0,0.0,0.0,0.0,0.0,0.0,0.0,0.0,0.0,0.0,0.0,0.0,0.0,0.0,0.0,0.0,0.0,0.0,0.0,0.0,0.0,0.0,0.0,0.0,0.0,0.0,0.0,0.0,0.0,0.0,0.0,0.0,0.0,0.0,0.0,0.0,0.0,-1.8833,-1.8936,-1.6788,0.0,0.0,0.0,0.0,0.0,0.0,0.0,0.0,0.0,0.0,0.0,0.0,0.0,0.0,0.0,0.0,0.0,0.0,0.0,0.0,0.0,0.0,0.0,0.0,0.0,0.0,0.0,0.0,0.0,0.0,0.0,0.0,0.0,0.0,0.0,0.0,0.0,0.0,0.0,0.0,0.0,0.0,0.0,0.0,0.0,0.0,0.0,0.0,0.0,0.0,0.0,0.0,0.0,0.0,0.0,0.0,0.0,0.0,0.0,0.0,0.0,0.0,0.0,0.0,0.0,0.0,0.0,0.0,0.0,0.0,0.0,0.0,0.0,0.0,0.0,0.0,0.0,0.0,0.0,0.0,0.0,0.0,0.0,0.0,0.0,0.0,0.0,0.0,0.0,0.0,0.0,0.0,0.0,0.0,0.0,0.0,0.0,0.0,0.0,0.0,0.0,0.0,0.0,0.0,0.0,0.0,0.0,0.0,0.0,0.0,-1.796,-1.8969,-1.8802,0.0,-1.8084,0.0,0.0,0.0,0.0,0.0,0.0,0.0,0.0,0.0,0.0,0.0,0.0,0.0,0.0,0.0,0.0,0.0,0.0,0.0,0.0,0.0,0.0,0.0,0.0,0.0,0.0,0.0,0.0,0.0,0.0,0.0,0.0,0.0,0.0,0.0,0.0,0.0,0.0,0.0,0.0,0.0,0.0,0.0,0.0,0.0,0.0,0.0,0.0,0.0,0.0,0.0,0.0,0.0,0.0,0.0,0.0,0.0,0.0,0.0,0.0,0.0,0.0,0.0,0.0,0.0,0.0,0.0,0.0,0.0,0.0,0.0,0.0,0.0,0.0,0.0,0.0,0.0,0.0,0.0,0.0,0.0,0.0,0.0,0.0,0.0,0.0,0.0,0.0,0.0,0.0,0.0,0.0,0.0,0.0,0.0,0.0,0.0,0.0,0.0,0.0,0.0,0.0,0.0,0.0,0.0,0.0,0.0,0.0,0.0,0.0,-1.8388,-1.9443,-1.9277,-1.8887,0.0,0.0,0.0,0.0,0.0,0.0,0.0,0.0,0.0,0.0,0.0,0.0,0.0,0.0,0.0,0.0,0.0,0.0,0.0,0.0,0.0,0.0,0.0,0.0,0.0,0.0,0.0,0.0,0.0,0.0,0.0,0.0,0.0,0.0,0.0,0.0,0.0,0.0,0.0,0.0,0.0,0.0,0.0,0.0,0.0,0.0,0.0,0.0,0.0,0.0,0.0,0.0,0.0,0.0,0.0,0.0,0.0,0.0,0.0,0.0,0.0,0.0,0.0,0.0,0.0,0.0,0.0,0.0,0.0,0.0,0.0,0.0,0.0,0.0,0.0,0.0,0.0,0.0,0.0,0.0,0.0,0.0,0.0,0.0,0.0,0.0,0.0,0.0,0.0,0.0,0.0,0.0,0.0,0.0,0.0,0.0,0.0,0.0,0.0,0.0,0.0,0.0,0.0,0.0,0.0,0.0,0.0,0.0,0.0,0.0,-1.848,-1.9023,-2.0003,-1.9915,-1.9416,-1.8518,0.0,0.0,0.0,0.0,0.0,0.0,0.0,0.0,0.0,0.0,0.0,0.0,0.0,0.0,0.0,0.0,0.0,0.0,0.0,0.0,0.0,0.0,0.0,0.0,0.0,0.0,0.0,0.0,0.0,0.0,0.0,0.0,0.0,0.0,0.0,0.0,0.0,0.0,0.0,0.0,0.0,0.0,0.0,0.0,0.0,0.0,0.0,0.0,0.0,0.0,0.0,0.0,0.0,0.0,0.0,0.0,0.0,0.0,0.0,0.0,0.0,0.0,0.0,0.0,0.0,0.0,0.0,0.0,0.0,0.0,0.0,0.0,0.0,0.0,0.0,0.0,0.0,0.0,0.0,0.0,0.0,0.0,0.0,0.0,0.0,0.0,0.0,0.0,0.0,0.0,0.0,0.0,0.0,0.0,0.0,0.0,0.0,0.0,0.0,0.0,0.0,0.0,0.0,0.0,0.0,0.0,0.0,0.0,-2.0823,-1.9741,-1.9774,-2.1178,-2.076,-1.9984,0.0,0.0,0.0,0.0,0.0,0.0,0.0,0.0,0.0,0.0,0.0,0.0,0.0,0.0,0.0,0.0,0.0,0.0,0.0,0.0,0.0,0.0,0.0,0.0,0.0,0.0,0.0,0.0,0.0,0.0,0.0,0.0,0.0,0.0,0.0,0.0,0.0,0.0,0.0,0.0,0.0,0.0,0.0,0.0,0.0,0.0,0.0,0.0,0.0,0.0,0.0,0.0,0.0,0.0,0.0,0.0,0.0,0.0,0.0,0.0,0.0,0.0,0.0,0.0,0.0,0.0,0.0,0.0,0.0,0.0,0.0,0.0,0.0,0.0,0.0,0.0,0.0,0.0,0.0,0.0,0.0,0.0,0.0,0.0,0.0,0.0,0.0,0.0,0.0,0.0,0.0,0.0,0.0,0.0,0.0,0.0,0.0,0.0,0.0,0.0,0.0,0.0,0.0,0.0,0.0,0.0,0.0,0.0,0.0,-1.9001,-2.0124,-2.1444,-2.2915,-2.1849,-2.0793,0.0,0.0,0.0,0.0,0.0,0.0,0.0,0.0,0.0,0.0,0.0,0.0,0.0,0.0,0.0,0.0,0.0,0.0,0.0,0.0,0.0,0.0,0.0,0.0,0.0,0.0,0.0,0.0,0.0,0.0,0.0,0.0,0.0,0.0,0.0,0.0,0.0,0.0,0.0,0.0,0.0,0.0,0.0,0.0,0.0,0.0,0.0,0.0,0.0,0.0,0.0,0.0,0.0,0.0,0.0,0.0,0.0,0.0,0.0,0.0,0.0,0.0,0.0,0.0,0.0,0.0,0.0,0.0,0.0,0.0,0.0,0.0,0.0,0.0,0.0,0.0,0.0,0.0,0.0,0.0,0.0,0.0,0.0,0.0,0.0,0.0,0.0,0.0,0.0,0.0,0.0,0.0,0.0,0.0,0.0,0.0,0.0,0.0,0.0,0.0,0.0,0.0,0.0,0.0,0.0,0.0,0.0,0.0,0.0,-1.9305,-2.1499,-2.3112,-2.3964,-2.2606,-2.1207,0.0,0.0,0.0,0.0,0.0,0.0,0.0,0.0,0.0,0.0,0.0,0.0,0.0,0.0,0.0,0.0,0.0,0.0,0.0,0.0,0.0,0.0,0.0,0.0,0.0,0.0,0.0,0.0,0.0,0.0,0.0,0.0,0.0,0.0,0.0,0.0,0.0,0.0,0.0,0.0,0.0,0.0,0.0,0.0,0.0,0.0,0.0,0.0,0.0,0.0,0.0,0.0,0.0,0.0,0.0,0.0,0.0,0.0,0.0,0.0,0.0,0.0,0.0,0.0,0.0,0.0,0.0,0.0,0.0,0.0,0.0,0.0,0.0,0.0,0.0,0.0,0.0,0.0,0.0,0.0,0.0,0.0,0.0,0.0,0.0,0.0,0.0,0.0,0.0,0.0,0.0,0.0,0.0,0.0,0.0,0.0,0.0,0.0,0.0,0.0,0.0,0.0,0.0,0.0,0.0,0.0,0.0,0.0,-1.8492,-2.2216,-2.388,-2.4512,-2.4216,-2.3022,-2.1247,0.0,0.0,0.0,0.0,0.0,0.0,0.0,0.0,0.0,0.0,0.0,0.0,0.0,0.0,0.0,0.0,0.0,0.0,0.0,0.0,0.0,0.0,0.0,0.0,0.0,0.0,0.0,0.0,0.0,0.0,0.0,0.0,0.0,0.0,0.0,0.0,0.0,0.0,0.0,0.0,0.0,0.0,0.0,0.0,0.0,0.0,0.0,0.0,0.0,0.0,0.0,0.0,0.0,0.0,0.0,0.0,0.0,0.0,0.0,0.0,0.0,0.0,0.0,0.0,0.0,0.0,0.0,0.0,0.0,0.0,0.0,0.0,0.0,0.0,0.0,0.0,0.0,0.0,0.0,0.0,0.0,0.0,0.0,0.0,0.0,0.0,0.0,0.0,0.0,0.0,0.0,0.0,0.0,0.0,0.0,0.0,0.0,0.0,0.0,0.0,0.0,0.0,0.0,0.0,0.0,0.0,0.0,0.0,0.0,-2.2277,-2.3786,-2.4606,-2.4577,-2.319,-2.1843,0.0,0.0,0.0,0.0,0.0,0.0,0.0,0.0,0.0,0.0,0.0,0.0,0.0,0.0,0.0,0.0,0.0,0.0,0.0,0.0,0.0,0.0,0.0,0.0,0.0,0.0,0.0,0.0,0.0,0.0,0.0,0.0,0.0,0.0,0.0,0.0,0.0,0.0,0.0,0.0,0.0,0.0,0.0,0.0,0.0,0.0,0.0,0.0,0.0,0.0,0.0,0.0,0.0,0.0,0.0,0.0,0.0,0.0,0.0,0.0,0.0,0.0,0.0,0.0,0.0,0.0,0.0,0.0,0.0,0.0,0.0,0.0,0.0,0.0,0.0,0.0,0.0,0.0,0.0,0.0,0.0,0.0,0.0,0.0,0.0,0.0,0.0,0.0,0.0,0.0,0.0,0.0,0.0,0.0,0.0,0.0,0.0,0.0,0.0,0.0,0.0,0.0,0.0,0.0,0.0,0.0,0.0,0.0,0.0,-2.3109,-2.4745,-2.5584,-2.535,-2.388,-2.2359,-2.0845,0.0,0.0,0.0,0.0,0.0,0.0,0.0,0.0,0.0,0.0,0.0,0.0,0.0,0.0,0.0,0.0,0.0,0.0,0.0,0.0,0.0,0.0,0.0,0.0,0.0,0.0,0.0,0.0,0.0,0.0,0.0,0.0,0.0,0.0,0.0,0.0,0.0,0.0,0.0,0.0,0.0,0.0,0.0,0.0,0.0,0.0,0.0,0.0,0.0,0.0,0.0,0.0,0.0,0.0,0.0,0.0,0.0,0.0,0.0,0.0,0.0,0.0,0.0,0.0,0.0,0.0,0.0,0.0,0.0,0.0,0.0,0.0,0.0,0.0,0.0,0.0,0.0,0.0,0.0,0.0,0.0,0.0,0.0,0.0,0.0,0.0,0.0,0.0,0.0,0.0,0.0,0.0,0.0,0.0,0.0,0.0,0.0,0.0,0.0,0.0,0.0,0.0,0.0,0.0,0.0,0.0,0.0,0.0,-2.4404,-2.651,-2.717,-2.6214,-2.4846,-2.2824,0.0,0.0,0.0,0.0,0.0,0.0,0.0,0.0,0.0,0.0,0.0,0.0,0.0,0.0,0.0,0.0,0.0,0.0,0.0,0.0,0.0,0.0,0.0,0.0,0.0,0.0,0.0,0.0,0.0,0.0,0.0,0.0,0.0,0.0,0.0,0.0,0.0,0.0,0.0,0.0,0.0,0.0,0.0,0.0,0.0,0.0,0.0,0.0,0.0,0.0,0.0,0.0,0.0,0.0,0.0,0.0,0.0,0.0,0.0,0.0,0.0,0.0,0.0,0.0,0.0,0.0,0.0,0.0,0.0,0.0,0.0,0.0,0.0,0.0,0.0,0.0,0.0,0.0,0.0,0.0,0.0,0.0,0.0,0.0,0.0,0.0,0.0,0.0,0.0,0.0,0.0,0.0,0.0,0.0,0.0,0.0,0.0,0.0,0.0,0.0,0.0,0.0,0.0,0.0,0.0,0.0,0.0,0.0,0.0,-2.5568,-2.6671,-2.6707,-2.5582,-2.4191,-2.3103,0.0,0.0,0.0,0.0,0.0,0.0,0.0,0.0,0.0,0.0,0.0,0.0,0.0,0.0,0.0,0.0,0.0,0.0,0.0,0.0,0.0,0.0,0.0,0.0,0.0,0.0,0.0,0.0,0.0,0.0,0.0,0.0,0.0,0.0,0.0,0.0,0.0,0.0,0.0,0.0,0.0,0.0,0.0,0.0,0.0,0.0,0.0,0.0,0.0,0.0,0.0,0.0,0.0,0.0,0.0,0.0,0.0,0.0,0.0,0.0,0.0,0.0,0.0,0.0,0.0,0.0,0.0,0.0,0.0,0.0,0.0,0.0,0.0,0.0,0.0,0.0,0.0,0.0,0.0,0.0,0.0,0.0,0.0,0.0,0.0,0.0,0.0,0.0,0.0,0.0,0.0,0.0,0.0,0.0,0.0,0.0,0.0,0.0,0.0,0.0,0.0,0.0,0.0,0.0,0.0,0.0,0.0,0.0,-2.5177,-2.6745,-2.672,-2.6514,-2.622,-2.4997,-2.3968,0.0,0.0,0.0,0.0,0.0,0.0,0.0,0.0,0.0,0.0,0.0,0.0,0.0,0.0,0.0,0.0,0.0,0.0,0.0,0.0,0.0,0.0,0.0,0.0,0.0,0.0,0.0,0.0,0.0,0.0,0.0,0.0,0.0,0.0,0.0,0.0,0.0,0.0,0.0,0.0,0.0,0.0,0.0,0.0,0.0,0.0,0.0,0.0,0.0,0.0,0.0,0.0,0.0,0.0,0.0,0.0,0.0,0.0,0.0,0.0,0.0,0.0,0.0,0.0,0.0,0.0,0.0,0.0,0.0,0.0,0.0,0.0,0.0,0.0,0.0,0.0,0.0,0.0,0.0,0.0,0.0,0.0,0.0,0.0,0.0,0.0,0.0,0.0,0.0,0.0,0.0,0.0,0.0,0.0,0.0,0.0,0.0,0.0,0.0,0.0,0.0,0.0,0.0,0.0,0.0,0.0,0.0,0.0,-2.5025,-2.7774,-2.6513,-2.6322,-2.7426,-2.6428,-2.4934,0.0,0.0,0.0,0.0,0.0,0.0,0.0,0.0,0.0,0.0,0.0,0.0,0.0,0.0,0.0,0.0,0.0,0.0,0.0,0.0,0.0,0.0,0.0,0.0,0.0,0.0,0.0,0.0,0.0,0.0,0.0,0.0,0.0,0.0,0.0,0.0,0.0,0.0,0.0,0.0,0.0,0.0,0.0,0.0,0.0,0.0,0.0,0.0,0.0,0.0,0.0,0.0,0.0,0.0,0.0,0.0,0.0,0.0,0.0,0.0,0.0,0.0,0.0,0.0,0.0,0.0,0.0,0.0,0.0,0.0,0.0,0.0,0.0,0.0,0.0,0.0,0.0,0.0,0.0,0.0,0.0,0.0,0.0,0.0,0.0,0.0,0.0,0.0,0.0,0.0,0.0,0.0,0.0,0.0,0.0,0.0,0.0,0.0,0.0,0.0,0.0,0.0,0.0,0.0,0.0,0.0,0.0,0.0,-2.5569,-2.7502,-2.5515,-2.5426,-2.7442,-2.5718,-2.4457,0.0,0.0,0.0,0.0,0.0,0.0,0.0,0.0,0.0,0.0,0.0,0.0,0.0,0.0,0.0,0.0,0.0,0.0,0.0,0.0,0.0,0.0,0.0,0.0,0.0,0.0,0.0,0.0,0.0,0.0,0.0,0.0,0.0,0.0,0.0,0.0,0.0,0.0,0.0,0.0,0.0,0.0,0.0,0.0,0.0,0.0,0.0,0.0,-1.5916,0.0,0.0,0.0,0.0,0.0,0.0,0.0,0.0,0.0,0.0,0.0,0.0,0.0,0.0,0.0,0.0,0.0,0.0,0.0,0.0,0.0,0.0,0.0,0.0,0.0,0.0,0.0,0.0,0.0,0.0,0.0,0.0,0.0,0.0,0.0,0.0,0.0,0.0,0.0,0.0,0.0,0.0,0.0,0.0,0.0,0.0,0.0,0.0,0.0,0.0,0.0,0.0,0.0,0.0,0.0,0.0,0.0,0.0,0.0,-2.547,-2.7087,-2.5712,-2.5651,-2.7056,-2.5956,-2.4894,0.0,0.0,0.0,0.0,0.0,0.0,0.0,0.0,0.0,0.0,0.0,0.0,0.0,0.0,0.0,0.0,0.0,0.0,0.0,0.0,0.0,0.0,0.0,0.0,0.0,0.0,0.0,0.0,0.0,0.0,0.0,0.0,0.0,0.0,0.0,0.0,0.0,0.0,0.0,0.0,0.0,0.0,0.0,0.0,0.0,0.0,0.0,0.0,0.0,0.0,0.0,0.0,0.0,0.0,0.0,0.0,0.0,0.0,0.0,0.0,0.0,0.0,0.0,0.0,0.0,0.0,0.0,0.0,0.0,0.0,0.0,0.0,0.0,0.0,0.0,0.0,0.0,0.0,0.0,0.0,0.0,0.0,0.0,0.0,0.0,0.0,0.0,0.0,0.0,0.0,0.0,0.0,0.0,0.0,0.0,0.0,0.0,0.0,0.0,0.0,0.0,0.0,0.0,0.0,0.0,0.0,0.0,-2.4024,-2.5206,-2.6708,-2.5922,-2.5876,-2.6784,-2.6321,-2.5352,-2.3857,0.0,0.0,0.0,0.0,0.0,0.0,0.0,0.0,0.0,0.0,0.0,0.0,0.0,0.0,0.0,0.0,0.0,0.0,0.0,0.0,0.0,0.0,0.0,0.0,0.0,0.0,0.0,0.0,0.0,0.0,0.0,0.0,0.0,0.0,0.0,0.0,0.0,0.0,-1.2769,-1.4121,0.0,0.0,0.0,0.0,0.0,0.0,0.0,0.0,-1.7479,0.0,0.0,0.0,0.0,0.0,0.0,0.0,0.0,0.0,0.0,0.0,0.0,0.0,0.0,0.0,0.0,0.0,0.0,0.0,0.0,0.0,0.0,0.0,0.0,0.0,0.0,0.0,0.0,0.0,0.0,0.0,0.0,0.0,0.0,0.0,0.0,0.0,0.0,0.0,0.0,0.0,0.0,0.0,0.0,0.0,0.0,0.0,0.0,0.0,0.0,0.0,0.0,0.0,0.0,0.0,0.0,-2.4452,-2.4709,-2.5345,-2.643,-2.4437,-2.4378,-2.6355,-2.5565,-2.4436,-2.3082,0.0,0.0,0.0,0.0,0.0,0.0,0.0,0.0,0.0,0.0,0.0,0.0,0.0,0.0,0.0,0.0,0.0,0.0,0.0,0.0,0.0,0.0,0.0,0.0,0.0,0.0,0.0,0.0,0.0,0.0,0.0,0.0,0.0,0.0,0.0,0.0,0.0,0.0,0.0,-1.4804,-1.5123,0.0,0.0,0.0,0.0,0.0,0.0,0.0,0.0,-1.6732,0.0,0.0,0.0,0.0,0.0,0.0,0.0,0.0,0.0,0.0,0.0,0.0,0.0,0.0,0.0,0.0,0.0,0.0,0.0,0.0,0.0,0.0,0.0,0.0,0.0,0.0,0.0,0.0,0.0,0.0,0.0,0.0,0.0,0.0,0.0,0.0,0.0,0.0,0.0,0.0,0.0,0.0,0.0,0.0,0.0,0.0,0.0,0.0,0.0,0.0,0.0,0.0,0.0,0.0,0.0,-2.3815,-2.4834,-2.5541,-2.5842,-2.4575,-2.4546,-2.5827,-2.5511,-2.4588,0.0,0.0,0.0,0.0,0.0,0.0,0.0,0.0,0.0,0.0,0.0,0.0,0.0,0.0,0.0,0.0,0.0,0.0,0.0,0.0,0.0,0.0,0.0,0.0,0.0,0.0,0.0,0.0,0.0,0.0,0.0,0.0,0.0,0.0,0.0,0.0,0.0,0.0,0.0,0.0,-1.5562,-1.5732,-1.6717,0.0,0.0,0.0,0.0,0.0,0.0,-1.7022,-1.6218,0.0,0.0,0.0,0.0,0.0,0.0,0.0,0.0,0.0,0.0,0.0,0.0,0.0,0.0,0.0,0.0,0.0,0.0,0.0,0.0,0.0,0.0,0.0,0.0,0.0,0.0,0.0,0.0,0.0,0.0,0.0,0.0,0.0,0.0,0.0,0.0,0.0,0.0,0.0,0.0,0.0,0.0,0.0,0.0,0.0,0.0,0.0,0.0,0.0,0.0,0.0,0.0,0.0,0.0,0.0,-2.2946,-2.4689,-2.5564,-2.5461,-2.479,-2.4776,-2.5446,-2.5666,-2.495,0.0,0.0,0.0,0.0,0.0,0.0,0.0,0.0,0.0,0.0,0.0,0.0,0.0,0.0,0.0,0.0,0.0,0.0,0.0,0.0,0.0,0.0,0.0,0.0,0.0,0.0,0.0,0.0,0.0,0.0,0.0,0.0,0.0,0.0,0.0,0.0,0.0,0.0,0.0,0.0,0.0,-1.6314,-1.7337,-1.8281,0.0,0.0,0.0,0.0,-1.7532,-1.685,0.0,0.0,0.0,0.0,0.0,0.0,0.0,0.0,0.0,0.0,0.0,0.0,0.0,0.0,0.0,0.0,0.0,0.0,0.0,0.0,0.0,0.0,0.0,0.0,0.0,0.0,0.0,0.0,0.0,0.0,0.0,0.0,0.0,0.0,0.0,0.0,0.0,0.0,0.0,0.0,0.0,0.0,0.0,0.0,0.0,0.0,0.0,0.0,0.0,0.0,0.0,0.0,0.0,0.0,0.0,0.0,-2.2931,-2.4206,-2.5183,-2.5625,-2.4022,-2.3963,-2.5704,-2.5799,-2.5154,0.0,0.0,0.0,0.0,0.0,0.0,0.0,0.0,0.0,0.0,0.0,0.0,0.0,0.0,0.0,0.0,0.0,0.0,0.0,0.0,0.0,0.0,0.0,0.0,0.0,0.0,0.0,0.0,0.0,0.0,0.0,0.0,0.0,0.0,0.0,0.0,0.0,0.0,0.0,0.0,0.0,-1.628,-1.6427,-1.7536,-1.8093,0.0,0.0,-1.8325,-1.8187,-1.7783,0.0,0.0,0.0,0.0,0.0,0.0,0.0,0.0,0.0,0.0,0.0,0.0,0.0,0.0,0.0,0.0,0.0,0.0,0.0,0.0,0.0,0.0,0.0,0.0,0.0,0.0,0.0,0.0,0.0,0.0,0.0,0.0,0.0,0.0,0.0,0.0,0.0,0.0,0.0,0.0,0.0,0.0,0.0,0.0,0.0,0.0,0.0,0.0,0.0,0.0,0.0,0.0,0.0,0.0,0.0,-2.2888,-2.2931,-2.421,-2.5357,-2.6242,-2.4109,-2.3989,-2.6286,-2.5662,-2.5023,0.0,0.0,0.0,0.0,0.0,0.0,0.0,0.0,0.0,0.0,0.0,0.0,0.0,0.0,0.0,0.0,0.0,0.0,0.0,0.0,0.0,0.0,0.0,0.0,0.0,0.0,0.0,0.0,0.0,0.0,0.0,0.0,0.0,0.0,0.0,0.0,0.0,0.0,0.0,0.0,0.0,0.0,-1.6285,-1.7589,0.0,0.0,0.0,-1.804,-1.7563,0.0,0.0,0.0,0.0,0.0,0.0,0.0,0.0,0.0,0.0,0.0,0.0,0.0,0.0,0.0,0.0,0.0,0.0,0.0,0.0,0.0,0.0,0.0,0.0,0.0,0.0,0.0,0.0,0.0,0.0,0.0,0.0,0.0,0.0,0.0,0.0,0.0,0.0,0.0,0.0,0.0,0.0,0.0,0.0,0.0,0.0,0.0,0.0,0.0,0.0,0.0,0.0,0.0,0.0,0.0,0.0,0.0,-2.2931,-2.437,-2.5734,-2.6895,-2.4341,-2.4192,-2.6881,-2.5778,0.0,0.0,0.0,0.0,0.0,0.0,0.0,0.0,0.0,0.0,0.0,0.0,0.0,0.0,0.0,0.0,0.0,0.0,0.0,0.0,0.0,0.0,0.0,0.0,0.0,0.0,0.0,-0.9337,0.0,0.0,0.0,0.0,0.0,0.0,0.0,0.0,0.0,0.0,0.0,0.0,0.0,0.0,-1.5955,-1.667,-1.7706,-1.8018,0.0,0.0,-1.799,-1.7174,-1.7138,-1.7248,0.0,0.0,0.0,0.0,0.0,0.0,0.0,0.0,0.0,0.0,0.0,0.0,0.0,0.0,0.0,0.0,0.0,0.0,0.0,0.0,0.0,0.0,0.0,0.0,0.0,0.0,0.0,0.0,0.0,0.0,0.0,0.0,0.0,0.0,0.0,0.0,0.0,0.0,0.0,0.0,0.0,0.0,0.0,0.0,0.0,0.0,0.0,0.0,0.0,0.0,0.0,0.0,0.0,0.0,-2.3543,-2.2975,-2.4776,-2.6358,-2.7465,-2.451,-2.4409,-2.752,-2.6402,-2.5724,0.0,0.0,0.0,0.0,0.0,0.0,0.0,0.0,0.0,0.0,0.0,0.0,0.0,0.0,0.0,0.0,0.0,0.0,0.0,0.0,0.0,0.0,0.0,0.0,0.0,0.0,0.0,0.0,0.0,0.0,0.0,0.0,0.0,0.0,0.0,0.0,0.0,0.0,0.0,0.0,0.0,-1.6257,-1.7789,-1.7761,-1.7688,0.0,-1.8385,-1.8385,-1.7578,-1.7789,-1.7789,-1.7073,0.0,0.0,0.0,0.0,0.0,0.0,0.0,0.0,0.0,0.0,0.0,0.0,0.0,0.0,0.0,0.0,0.0,0.0,0.0,0.0,0.0,0.0,0.0,0.0,0.0,0.0,0.0,0.0,0.0,0.0,0.0,0.0,0.0,0.0,0.0,0.0,0.0,0.0,0.0,0.0,0.0,0.0,0.0,0.0,0.0,0.0,0.0,0.0,0.0,0.0,0.0,0.0,0.0,-2.439,-2.4076,-2.5212,-2.6366,-2.7513,-2.4955,-2.4667,-2.7031,-2.6251,-2.5744,0.0,0.0,0.0,0.0,0.0,0.0,0.0,0.0,0.0,0.0,0.0,0.0,0.0,0.0,0.0,0.0,0.0,0.0,0.0,0.0,0.0,0.0,0.0,0.0,0.0,0.0,0.0,0.0,-1.1407,-1.1792,-1.0993,0.0,0.0,0.0,0.0,0.0,0.0,0.0,0.0,0.0,0.0,-1.667,-1.7293,-1.8082,0.0,0.0,-1.8458,-1.8687,-1.8623,-1.854,-1.8391,-1.8033,-1.8122,0.0,0.0,0.0,0.0,0.0,0.0,0.0,0.0,0.0,0.0,0.0,0.0,0.0,0.0,0.0,0.0,0.0,0.0,0.0,0.0,0.0,0.0,0.0,0.0,0.0,0.0,0.0,0.0,0.0,0.0,0.0,0.0,0.0,0.0,0.0,0.0,0.0,0.0,0.0,0.0,0.0,0.0,0.0,0.0,0.0,0.0,0.0,0.0,0.0,0.0,0.0,0.0,-2.4765,-2.4546,-2.5392,-2.6392,-2.7561,-2.5188,-2.4709,-2.6384,-2.6004,-2.5612,0.0,0.0,0.0,0.0,0.0,0.0,0.0,0.0,0.0,0.0,0.0,0.0,0.0,0.0,0.0,0.0,0.0,0.0,0.0,0.0,0.0,0.0,0.0,0.0,0.0,0.0,0.0,0.0,-1.2094,-1.2855,-1.2186,0.0,0.0,0.0,0.0,0.0,0.0,0.0,0.0,0.0,0.0,-1.7257,-1.7752,-1.8568,-1.9054,-1.8871,-1.9182,-1.9448,-1.9476,-1.9356,-1.9195,-1.8913,0.0,0.0,0.0,0.0,0.0,0.0,0.0,0.0,0.0,0.0,0.0,0.0,0.0,0.0,0.0,0.0,0.0,0.0,0.0,0.0,0.0,0.0,0.0,0.0,0.0,0.0,0.0,-1.7482,0.0,0.0,-1.7254,0.0,0.0,0.0,0.0,0.0,0.0,0.0,0.0,0.0,0.0,0.0,0.0,0.0,0.0,0.0,0.0,0.0,0.0,0.0,0.0,0.0,0.0,-2.4581,-2.3973,-2.5231,-2.6424,-2.7501,-2.5175,-2.4556,-2.5864,-2.5788,-2.5226,-2.4203,0.0,0.0,0.0,0.0,0.0,0.0,0.0,0.0,0.0,0.0,0.0,0.0,0.0,0.0,0.0,0.0,0.0,0.0,0.0,0.0,0.0,0.0,0.0,0.0,0.0,0.0,-0.8949,-1.1104,-1.3305,0.0,0.0,0.0,0.0,0.0,0.0,0.0,0.0,0.0,-1.7972,-1.7743,-1.8064,-1.9586,-1.9219,-1.9182,-2.0264,-2.0769,-2.0769,-2.0035,-2.0237,-2.0218,0.0,0.0,0.0,0.0,0.0,0.0,0.0,0.0,0.0,0.0,0.0,0.0,0.0,0.0,0.0,0.0,0.0,0.0,0.0,0.0,0.0,0.0,0.0,0.0,0.0,0.0,0.0,-2.1085,-2.1102,0.0,0.0,0.0,0.0,0.0,0.0,0.0,0.0,0.0,0.0,0.0,-2.2847,-2.5345,0.0,0.0,0.0,0.0,0.0,0.0,0.0,0.0,0.0,0.0,0.0,0.0,-2.541,-2.5162,-2.5625,-2.6167,-2.6812,-2.5688,-2.5306,-2.5691,-2.5767,-2.5341,-2.4442,0.0,0.0,0.0,0.0,0.0,0.0,0.0,0.0,0.0,0.0,0.0,0.0,0.0,0.0,0.0,0.0,0.0,0.0,0.0,0.0,0.0,0.0,0.0,0.0,0.0,-1.259,0.0,0.0,0.0,0.0,0.0,0.0,0.0,0.0,0.0,0.0,-1.7046,-1.7816,-1.8091,-1.8449,-1.8889,-1.9439,-1.9751,-2.0154,0.0,0.0,0.0,0.0,0.0,0.0,0.0,0.0,0.0,0.0,0.0,0.0,0.0,-1.8382,-1.8006,-1.6197,-1.5764,-1.549,-1.4832,0.0,0.0,0.0,0.0,0.0,0.0,0.0,0.0,0.0,0.0,0.0,0.0,0.0,0.0,-2.405,-2.4033,-2.3768,0.0,0.0,0.0,0.0,0.0,0.0,0.0,0.0,-2.4373,-2.4802,-2.4923,-2.6012,-2.6512,-2.6288,-2.4982,-2.3952,0.0,0.0,0.0,0.0,0.0,0.0,0.0,0.0,-2.5319,-2.4932,-2.5269,-2.5612,-2.5884,-2.5749,-2.554,-2.5345,-2.5014,-2.4988,-2.5281,-2.4431,-2.3816,0.0,0.0,0.0,0.0,0.0,0.0,0.0,0.0,0.0,0.0,0.0,0.0,0.0,0.0,0.0,0.0,0.0,0.0,0.0,0.0,0.0,0.0,0.0,-1.4268,0.0,0.0,0.0,0.0,0.0,0.0,0.0,0.0,0.0,-1.7122,-1.7816,-1.843,-1.8715,-1.9201,-1.9452,-1.9479,0.0,0.0,0.0,0.0,0.0,0.0,0.0,-2.0918,-2.014,-2.0112,-1.9822,-1.8953,-1.8627,-1.8289,-1.8026,0.0,0.0,-1.6445,-1.6148,-1.5747,-1.4712,-1.4172,-1.4007,-1.421,-1.407,-1.419,0.0,0.0,0.0,0.0,-2.518,0.0,0.0,0.0,-2.6272,-2.627,0.0,-2.5624,0.0,0.0,0.0,0.0,-2.4657,-2.5194,0.0,0.0,-2.6829,-2.7542,-2.7363,-2.6006,-2.5132,-2.4824,-2.5077,-2.536,-2.5691,-2.4588,0.0,0.0,0.0,0.0,0.0,0.0,-2.4313,-2.3286,-2.4352,-2.4906,-2.4858,-2.536,-2.5372,-2.4858,-2.3816,-2.4217,-2.6151,-2.4216,-2.343,-2.4427,-2.214,0.0,0.0,0.0,0.0,0.0,0.0,0.0,0.0,0.0,0.0,0.0,0.0,0.0,0.0,0.0,0.0,0.0,0.0,0.0,0.0,-1.3286,0.0,0.0,0.0,0.0,0.0,0.0,0.0,0.0,0.0,-1.7761,-1.7487,-1.8152,-1.8976,-1.9752,0.0,0.0,0.0,0.0,-2.095,-2.0421,-2.1434,-2.2199,-2.1832,-2.1706,-2.1347,-2.0473,0.0,0.0,-1.8366,-1.749,-1.6999,-1.6903,-1.6682,-1.6507,-1.7085,-1.6873,-1.6286,-1.5151,-1.4566,-1.4405,-1.4379,-1.4178,-1.406,-2.8653,0.0,0.0,0.0,0.0,-2.6756,-2.732,-2.7988,-2.7894,-2.8156,-2.8638,-2.8876,0.0,0.0,0.0,0.0,0.0,0.0,-2.5444,-2.5473,-2.5775,-2.5997,-2.6139,-2.5544,-2.5121,-2.4904,-2.5835,-2.6366,-2.6489,-2.6179,-2.5911,-2.5901,0.0,0.0,0.0,0.0,-2.4482,-2.3841,-2.4849,-2.5405,-2.5372,-2.5925,-2.5937,-2.5385,-2.5059,-2.4833,-2.4707,-2.4405,-2.3754,-2.275,-2.4064,0.0,0.0,0.0,0.0,0.0,0.0,0.0,0.0,0.0,0.0,0.0,0.0,0.0,0.0,0.0,0.0,0.0,0.0,0.0,-1.4763,-1.601,-1.6991,0.0,0.0,0.0,0.0,0.0,0.0,0.0,0.0,0.0,-1.7664,-1.7754,-1.8305,0.0,0.0,-1.9322,-2.0329,-2.0914,-2.1223,-2.1045,-2.2031,0.0,-2.2528,-2.1786,-2.1188,-2.1019,-2.0421,-1.9917,-1.9626,-1.8897,-1.828,-1.8047,-1.7471,-1.6967,-1.6587,-1.6135,-1.5451,-1.4695,-1.4384,-1.442,-1.452,-1.4534,-1.457,-3.0009,-2.8963,-2.7999,-2.7486,-2.7433,-2.7516,-2.7975,-2.8678,-2.8565,-2.8721,-2.9121,-2.9224,-2.8878,-2.8278,-2.8047,0.0,0.0,0.0,-2.5744,-2.5473,-2.5423,-2.5463,-2.5638,-2.5894,-2.5892,-2.5676,-2.5959,-2.6089,-2.606,-2.6028,-2.6086,-2.6214,0.0,-2.5073,-2.4808,-2.4607,-2.4104,-2.3427,-2.4632,-2.5184,-2.4971,-2.5937,-2.637,-2.595,-2.5724,-2.5285,-2.4669,-2.4745,-2.4241,-2.3034,-2.4213,-2.3801,0.0,0.0,0.0,0.0,0.0,0.0,0.0,0.0,0.0,0.0,0.0,-1.1401,-1.0517,0.0,0.0,0.0,-1.6075,-1.6945,-1.6441,-1.7144,0.0,0.0,0.0,0.0,0.0,0.0,0.0,-1.5347,-1.6734,-1.7689,-1.7177,-1.7131,-1.7636,-1.8994,-1.8886,-1.8877,-1.9629,0.0,-2.0514,-2.0127,-2.1004,-2.1683,-2.1587,-2.0995,-2.0369,-1.9957,-1.9208,-1.8613,-1.8419,-1.8034,-1.7715,-1.7462,-1.7224,-1.6801,-1.6276,-1.5984,-1.5582,-1.4807,-1.4702,-1.4835,-1.4998,-1.5101,-1.5258,-3.1039,-3.0757,-2.8237,-2.7669,-2.8356,-2.7973,-2.8209,-2.8883,-2.877,-2.8655,-2.8528,-2.7864,-2.7591,-2.7679,-2.6767,0.0,-2.6662,-2.6602,-2.6258,-2.5689,-2.5612,-2.5597,-2.5657,-2.668,-2.7079,-2.6811,-2.576,-2.5106,-2.4924,-2.4941,-2.516,-2.5605,-2.5644,-2.5369,-2.4782,-2.428,-2.3477,-2.2485,-2.4067,-2.4657,-2.4243,-2.5674,-2.6521,-2.6508,-2.59,-2.5586,-2.5573,-2.5046,-2.4693,-2.4474,-2.3231,-2.2651,-2.2998,0.0,0.0,0.0,0.0,0.0,0.0,0.0,0.0,0.0,0.0,0.0,0.0,0.0,0.0,-1.5908,-1.7102,0.0,-1.7432,-1.7077,0.0,0.0,0.0,-1.6464,-1.6495,-1.6941,-1.6962,-1.637,0.0,0.0,-1.6337,-1.6324,-1.6953,-1.8804,-1.8746,-1.8415,-1.8277,-1.9155,-1.9329,-1.8493,-1.9147,-1.9818,-2.0183,-1.9937,-1.9422,-1.8247,-1.7062,-1.6568,-1.6377,-1.6218,-1.6076,-1.6123,-1.6151,-1.6296,-1.6308,-1.6447,-1.6398,-1.5427,-1.5433,-1.5596,-1.5626,-1.5783,-1.6,-3.1564,-3.0893,-2.9748,-2.9717,-3.0418,-3.035,-3.042,-3.0588,-3.0392,-3.0296,-3.0296,-2.9928,-2.9358,-2.8704,-2.8093,-2.7631,-2.737,-2.6811,-2.6497,-2.6348,-2.5819,-2.56,-2.5668,-2.6713,-2.7157,-2.7093,-2.6601,-2.5868,-2.4966,-2.4956,-2.4953,-2.4931,-2.4591,-2.4583,-2.4782,-2.4268,-2.3866,-2.3602,-2.4795,-2.5573,-2.5887,-2.6332,-2.6521,-2.6521,-2.59,-2.5586,-2.5573,-2.4695,-2.4066,-2.3737,-2.296,-2.239,-2.2185,-2.0721,0.0,0.0,0.0,0.0,0.0,0.0,0.0,0.0,0.0,-1.5908,-1.554,0.0,-1.7456,0.0,-1.8423,-1.8267,-1.6843,-1.7145,0.0,0.0,-1.5113,-1.4837,-1.4437,-1.5043,-1.5368,-1.5021,-1.5872,-1.6461,-1.6333,-1.6332,-1.6637,-1.7559,-1.7573,-1.7865,-1.8745,-1.9104,-1.9206,-1.8788,-1.9483,-2.0405,-2.0732,-2.0189,-1.9189,-1.7915,-1.7566,-1.7537,-1.7483,-1.7384,-1.7111,-1.687,-1.666,-1.6598,-1.6604,-1.6658,-1.6634,-1.638,-1.6368,-1.6416,-1.6416,-1.6465,-1.6525,-3.2469,-3.1996,-3.131,-3.1265,-3.1566,-3.0614,-3.0171,-3.0078,-2.9978,-2.9844,-2.9759,-2.9492,-2.909,-2.857,-2.7873,-2.7406,-2.7111,-2.6752,-2.6602,-2.6602,-2.6515,-2.6505,-2.6494,-2.6842,-2.7041,-2.7003,-2.6881,-2.6323,-2.5356,-2.5337,-2.5082,-2.4745,-2.4469,-2.4519,-2.4795,-2.4519,-2.4607,-2.5096,-2.5423,-2.5887,-2.6427,-2.6521,-2.6804,-2.7494,-2.6527,-2.6214,-2.6691,-2.5674,-2.5078,-2.4902,-2.4128,-2.3647,-2.3593,-2.1858,-2.1146,0.0,0.0,0.0,0.0,0.0,0.0,0.0,0.0,0.0,0.0,0.0,-1.9145,-1.7362,-1.7808,-1.7567,-1.5938,-1.6154,-1.5866,-1.4655,-1.4379,-1.4274,-1.3995,-1.4768,-1.517,-1.4925,-1.5965,-1.6579,-1.638,-1.6506,-1.6774,-1.7114,-1.7261,-1.7603,-1.8262,-1.8506,-1.8408,-1.8311,-1.8724,-1.9281,-1.9616,-1.902,-1.8223,-1.755,-1.7491,-1.7591,-1.7484,-1.7252,-1.7089,-1.6949,-1.6903,-1.6875,-1.6875,-1.6978,-1.7044,-1.7044,-1.705,-1.7002,-1.6899,-1.6875,-1.6899,-3.3393,-3.3334,-3.2603,-3.2299,-3.2143,-3.0137,-2.9188,-2.9022,-2.9001,-2.8848,-2.8649,-2.8431,-2.825,-2.8068,-2.7206,-2.6756,-2.6722,-2.6722,-2.6707,-2.6737,-2.7305,-2.7575,-2.7575,-2.7092,-2.6799,-2.6556,-2.6785,-2.6481,-2.5684,-2.5682,-2.5459,-2.4921,-2.4921,-2.5021,-2.5234,-2.5109,-2.546,-2.6327,-2.5988,-2.6088,-2.6653,-2.6672,-2.7281,-2.8662,-2.7281,-2.6904,-2.7808,-2.6892,-2.6427,-2.6463,-2.5527,-2.4997,-2.5164,-2.2929,-2.1357,0.0,-2.0112,0.0,0.0,0.0,0.0,0.0,0.0,0.0,0.0,-1.9445,-1.9022,-1.6013,-1.636,-1.6345,-1.5142,-1.4934,-1.483,-1.4681,-1.4379,-1.4255,-1.4529,-1.5252,-1.5644,-1.5423,-1.6251,-1.6718,-1.6427,-1.6754,-1.7094,-1.7161,-1.7388,-1.7555,-1.7582,-1.7687,-1.7701,-1.7622,-1.7574,-1.7611,-1.7591,-1.7284,-1.7197,-1.7179,-1.7153,-1.701,-1.6952,-1.6839,-1.6821,-1.6839,-1.7002,-1.7135,-1.7141,-1.7328,-1.7461,-1.7443,-1.7436,-1.7376,-1.7195,-1.7141,-1.7219,-3.3393,-3.3334,-3.2603,-3.2299,-3.2231,-3.1196,-3.0784,-3.0729,-3.0532,-3.0332,-3.0104,-3.0044,-2.9621,-2.89,-2.8262,-2.7795,-2.7445,-2.738,-2.738,-2.743,-2.7565,-2.7604,-2.7578,-2.7497,-2.668,-2.5483,-2.6425,-2.6252,-2.5103,-2.5497,-2.564,-2.5448,-2.5448,-2.6126,-2.7356,0.0,0.0,0.0,-2.6553,-2.7231,-2.7758,-2.7356,-2.7494,-2.8197,-2.7092,0.0,-2.6798,-2.6113,-2.5732,-2.5629,-2.4261,0.0,0.0,0.0,0.0,0.0,0.0,0.0,0.0,0.0,0.0,0.0,-1.9165,-1.8922,-1.9254,-1.8916,-1.7821,-1.5806,-1.6237,-1.6204,-1.5083,-1.5153,-1.4982,-1.4343,-1.4347,-1.4556,-1.4836,-1.5055,-1.5197,-1.5351,-1.5629,-1.5866,-1.6303,-1.658,-1.6887,-1.7128,-1.7402,-1.7569,-1.7589,-1.7602,-1.7569,-1.7587,-1.7218,-1.6845,-1.6912,-1.7134,-1.7274,-1.7213,-1.7317,-1.742,-1.7304,-1.731,-1.7322,-1.7316,-1.7376,-1.74,-1.74,-1.7455,-1.7485,-1.7485,-1.7485,-1.7467,-1.7412,-1.7406,-1.7424,-3.3393,-3.3334,-3.2586,-3.2299,0.0,-3.1487,-3.119,-3.119,-3.1015,-3.0831,-3.0584,-3.0537,-2.9964,-2.9074,-2.8543,-2.8076,-2.7575,-2.756,-2.756,-2.756,-2.756,-2.759,-2.7584,-2.6975,-2.628,-2.543,-2.6057,-2.6055,-2.5441,-2.5897,-2.607,-2.6013,-2.6025,-2.644,-2.7243,-2.681,-2.6314,-2.6025,-2.659,-2.7017,-2.7268,-2.7017,-2.7406,-2.8423,-2.718,0.0,0.0,0.0,0.0,0.0,0.0,0.0,0.0,-2.1834,-2.0327,-1.9365,-1.9727,-1.9971,-1.9971,-1.9866,-1.9694,-1.9629,-1.9387,-1.9238,-1.9182,-1.8339,-1.7024,-1.4984,-1.539,-1.5398,-1.4599,-1.4783,-1.4857,-1.4589,-1.4656,-1.485,-1.5117,-1.5177,-1.5297,-1.5565,-1.5738,-1.5959,-1.6233,-1.6667,-1.6961,-1.7237,-1.7395,-1.7642,-1.7782,-1.7809,-1.7855,-1.7831,-1.7439,-1.7129,-1.7159,-1.728,-1.7449,-1.734,-1.7394,-1.7473,-1.7485,-1.7485,-1.7485,-1.7485,-1.7485,-1.7485,-1.7485,-1.7485,-1.7485,-1.7485,-1.7485,-1.7485,-1.7485,-1.7485,-1.7485,-3.3393,-3.3316,-3.2586,-3.2299,-3.2248,-3.1487,-3.119,-3.119,-3.1072,0.0,0.0,-3.0566,-2.9999,-2.9074,-2.8638,-2.8125,-2.761,-2.756,-2.756,-2.756,-2.756,-2.756,-2.7545,-2.6622,-2.5873,-2.554,-2.581,-2.5902,-2.5749,-2.62,-2.6433,-2.6521,-2.6521,-2.6521,-2.6521,-2.6521,-2.6521,-2.6533,-2.6634,-2.6653,-2.6741,-2.6722,-2.7293,-2.875,-2.7268,-2.7105,-2.8411,-2.718,-2.6559,-2.6659,-2.5036,-2.4293,-2.4589,-2.1741,-1.9912,-1.9639,-1.8906,-1.8457,-1.8467,-1.8779,-1.8945,-1.8806,-1.9442,-1.9591,-1.9106,-1.7983,-1.6512,-1.4443,-1.4545,-1.458,-1.43,-1.4502,-1.477,-1.5017,-1.5084,-1.5217,-1.5438,-1.5471,-1.5565,-1.5805,-1.6019,-1.6186,-1.6192,-1.6687,-1.7074,-1.7121,-1.7422,-1.7802,-1.811,-1.8223,-1.8156,-1.8075,-1.7849,-1.7698,-1.7579,-1.7473,-1.7485,-1.7467,-1.7473,-1.7485,-1.7485,-1.7485,-1.7485,-1.7485,-1.7485,-1.7485,-1.7485,-1.7485,-1.7485,-1.7485,-1.7485,-1.7485,-1.7485,-1.7485,-1.7485,-3.3393,-3.3334,-3.2603,-3.2299,-3.2248,-3.1504,-3.119,-3.119,-3.1179,-3.0962,-3.0692,-3.0559,-2.9978,-2.9074,-2.9012,-2.8448,-2.761,-2.756,-2.756,-2.756,-2.756,-2.756,-2.756,-2.7429,-2.6298,-2.4546,-2.5684,-2.5915,-2.5256,-2.5699,-2.6177,-2.6471,-2.6521,-2.6521,-2.6521,-2.6521,-2.6521,-2.6533,-2.6929,-2.7394,-2.7846,-2.7406,-2.7494,-2.8122,-2.708,-2.6553,-2.6779,-2.6578,-2.6124,-2.5325,-2.4219,-2.3346,-2.2659,-2.1264,-2.0137,-1.9463,-1.9883,-2.0205,-2.0195,-2.0264,-2.0127,-1.9795,-2.0195,-2.0449,-2.0246,-1.8294,-1.6412,-1.5014,-1.4717,-1.469,-1.4816,-1.5084,-1.5257,-1.5344,-1.5558,-1.5725,-1.5752,-1.5752,-1.5765,-1.5818,-1.5858,-1.5905,-1.5965,-1.642,-1.6794,-1.6894,-1.7488,-1.8163,-1.8604,-1.8798,-1.8592,-1.8464,-1.8288,-1.8203,-1.7941,-1.7726,-1.7485,-1.7485,-1.7485,-1.7485,-1.7485,-1.7485,-1.7485,-1.7485,-1.7485,-1.7485,-1.7485,-1.7485,-1.7485,-1.7485,-1.7485,-1.7485,-1.7485,-1.7485,-1.7485,-3.3393,-3.3286,-3.2586,-3.2299,-3.2248,-3.1504,-3.119,-3.119,-3.1185,-3.1049,-3.0838,-3.0623,-3.0009,-2.9164,-2.9104,-2.8559,-2.756,-2.756,-2.756,-2.756,-2.756,-2.756,-2.759,-2.7601,-2.7062,-2.6011,-2.5964,-2.5746,-2.5367,-2.5717,-2.6016,-2.616,-2.637,-2.6521,-2.6521,-2.6521,-2.6521,-2.6533,-2.6773,-2.6954,-2.7205,-2.6967,-2.6954,-2.7193,-2.6773,-2.6521,-2.6521,-2.6107,-2.537,-2.4409,-2.3195,-2.2174,-2.1366,-2.0426,-1.9902,-1.9961,-1.9912,-1.9873,-1.9873,-2.0088,-2.0234,-2.0273,-2.0449,-2.0333,-1.9687,-1.8339,-1.6769,-1.5171,-1.4836,-1.4877,-1.5164,-1.5317,-1.5458,-1.5618,-1.5758,-1.5825,-1.5825,-1.5825,-1.5825,-1.5825,-1.5825,-1.5825,-1.5825,-1.6346,-1.67,-1.6794,-1.7602,-1.843,-1.8871,-1.9065,-1.8929,-1.8468,-1.8455,-1.8286,-1.7843,-1.7608,-1.7485,-1.7485,-1.7485,-1.7485,-1.7485,-1.7485,-1.7485,-1.7485,-1.7485,-1.7485,-1.7485,-1.7485,-1.7485,-1.7485,-1.7485,-1.7485,-1.7485,-1.7485,-1.7485,-3.3393,-3.3316,-3.2684,-3.2317,-3.2109,-3.1466,-3.119,-3.119,-3.119,-3.1151,-3.1015,-3.0721,-3.0136,-2.9374,-2.9196,-2.8606,-2.786,-2.7675,-2.756,-2.756,-2.756,-2.756,-2.7524,-2.7358,-2.7199,-2.7045,-2.5992,-2.5432,-2.5435,-2.5536,-2.5635,-2.5848,-2.6257,-2.6521,-2.6521,-2.6521,-2.6521,-2.6521,-2.6521,-2.6521,-2.6521,-2.6521,-2.6521,-2.6452,-2.6327,-2.6245,-2.6176,-2.5441,-2.4564,-2.3588,-2.244,-2.1468,-2.0663,-1.9941,-1.9873,-2.042,-1.9941,-1.958,-1.96,-1.9873,-2.0205,-2.0537,-2.0576,-2.0089,-1.9011,-1.826,-1.7126,-1.55,-1.514,-1.5177,-1.5438,-1.5498,-1.5585,-1.5798,-1.5825,-1.5825,-1.5825,-1.5825,-1.5825,-1.5825,-1.5825,-1.5825,-1.5919,-1.6279,-1.6707,-1.7121,-1.7883,-1.8577,-1.8965,-1.9239,-1.9113,-1.8661,-1.8544,-1.8428,-1.7726,-1.7485,-1.7485,-1.7485,-1.7485,-1.7485,-1.7485,-1.7485,-1.7485,-1.7485,-1.7485,-1.7485,-1.7485,-1.7485,-1.7485,-1.7485,-1.7485,-1.7485,-1.7485,-1.7485,-1.7485,-3.3393,-3.3316,-3.2925,-3.235,-3.175,-3.1351,-3.119,-3.119,-3.119,-3.119,-3.1151,-3.0975,-3.0535,-2.9924,-2.9348,-2.8779,-2.8207,-2.7795,-2.761,-2.756,-2.756,-2.756,-2.7479,-2.6526,-2.5948,-2.5906,-2.5341,-2.5039,-2.4849,-2.4664,-2.49,-2.5627,-2.6231,-2.6508,-2.6521,-2.6521,-2.6521,-2.6521,-2.6521,-2.6521,-2.6521,-2.6521,-2.6521,-2.6452,-2.5816,-2.5453,-2.537,-2.4624,-2.3745,-2.2872,-2.2542,-2.179,-2.0769,-2.0478,-2.0478,-2.0634,-2.0478,-2.0449,-2.0439,-2.0478,-2.0518,-2.0557,-2.0576,-2.0089,-1.9011,-1.8481,-1.743,-1.5965,-1.5467,-1.5478,-1.5745,-1.5772,-1.5772,-1.5812,-1.5825,-1.5825,-1.5825,-1.5825,-1.5825,-1.5825,-1.5825,-1.5825,-1.5865,-1.6179,-1.6787,-1.7722,-1.821,-1.8718,-1.9178,-1.9319,-1.9133,-1.8661,-1.8434,-1.8323,-1.7966,-1.7726,-1.7485,-1.7485,-1.7485,-1.7485,-1.7485,-1.7485,-1.7485,-1.7485,-1.7485,-1.7485,-1.7485,-1.7485,-1.7485,-1.7485,-1.7485,-1.7485,-1.7485,-1.7361,-1.7361,-3.3393,-3.3364,-3.2957,-3.2368,-3.1714,-3.1312,-3.119,-3.119,-3.119,-3.119,-3.1207,-3.1122,-3.0684,-3.0038,-2.975,-2.915,-2.8304,-2.8125,-2.7845,-2.761,-2.756,-2.756,-2.7545,-2.7121,-2.6159,-2.4936,-2.5218,-2.5283,-2.4922,-2.4684,-2.4988,-2.5722,-2.6063,-2.6261,-2.6496,-2.6521,-2.6521,-2.6521,-2.6521,-2.6521,-2.6521,-2.6521,-2.6245,-2.5816,-2.5453,-2.5087,-2.4564,-2.3852,-2.3276,-2.283,-2.2155,-2.1482,-2.0964,-2.0722,-2.0576,-2.0576,-2.0576,-2.0576,-2.0576,-2.0576,-2.0576,-2.0576,-2.0576,-2.001,-1.8523,-1.8255,-1.7509,-1.5977,-1.5596,-1.5712,-1.5805,-1.5825,-1.5825,-1.5825,-1.5825,-1.5825,-1.5825,-1.5825,-1.5825,-1.5825,-1.5825,-1.5825,-1.5925,-1.64,-1.7188,-1.811,-1.8557,-1.8891,-1.9292,-1.9366,-1.9243,-1.8765,-1.8415,-1.8064,-1.7843,-1.7608,-1.7485,-1.7485,-1.7485,-1.7485,-1.7485,-1.7485,-1.7485,-1.7485,-1.7485,-1.7485,-1.7485,-1.7485,-1.7485,-1.7485,-1.7485,-1.7485,-1.7485,-1.6885,-1.6526,-3.3393,-3.3316,-3.2957,-3.2484,-3.195,-3.1418,-3.1278,-3.1363,-3.1269,-3.119,-3.119,-3.1179,-3.0905,-3.0351,-3.0097,-2.9451,-2.8607,-2.8384,-2.8012,-2.761,-2.756,-2.756,-2.756,-2.7327,-2.6491,-2.5335,-2.5368,-2.5258,-2.4788,-2.4747,-2.4972,-2.5434,-2.5737,-2.6025,-2.6337,-2.642,-2.6521,-2.6521,-2.6521,-2.6521,-2.6452,-2.6314,-2.5955,-2.5594,-2.5158,-2.4707,-2.412,-2.3202,-2.2703,-2.2628,-2.1797,-2.1282,-2.1215,-2.0886,-2.0644,-2.0644,-2.0576,-2.0576,-2.0576,-2.0576,-2.0489,-2.0255,-2.0245,-1.9529,-1.81,-1.7668,-1.7093,-1.5857,-1.5688,-1.5712,-1.5818,-1.5825,-1.5825,-1.5825,-1.5825,-1.5825,-1.5825,-1.5825,-1.5825,-1.5825,-1.5825,-1.5872,-1.6039,-1.664,-1.7428,-1.817,-1.8591,-1.8965,-1.9265,-1.9366,-1.9249,-1.8881,-1.8409,-1.8181,-1.7719,-1.7485,-1.7479,-1.7485,-1.7485,-1.7485,-1.7485,-1.7485,-1.7485,-1.7485,-1.7485,-1.7485,-1.7485,-1.7485,-1.7361,-1.7367,-1.7244,-1.6885,-1.6767,-1.593,-1.5213,-3.3393,-3.3334,-3.297,-3.2745,-3.2648,-3.1671,-3.1448,-3.174,-3.1363,-3.119,-3.119,-3.119,-3.1112,-3.0895,-3.0326,-2.9717,-2.9102,-2.856,-2.8076,-2.761,-2.756,-2.756,-2.756,-2.6842,-2.675,-2.6828,-2.5729,-2.4765,-2.4106,-2.4434,-2.4635,-2.4566,-2.537,-2.5864,-2.5937,-2.6299,-2.6508,-2.6471,-2.6496,-2.6521,-2.6383,-2.5816,-2.5816,-2.6164,-2.4921,-2.412,-2.3902,-2.2681,-2.1883,-2.1883,-2.1578,-2.1359,-2.1205,-2.0984,-2.0819,-2.0644,-2.0576,-2.0576,-2.0576,-2.0576,-2.0245,-1.9539,-1.9497,-1.8665,-1.718,-1.6883,-1.6545,-1.5644,-1.5599,-1.5625,-1.5818,-1.5885,-1.5865,-1.5865,-1.5858,-1.5872,-1.5858,-1.5925,-1.5838,-1.5872,-1.5912,-1.6039,-1.6259,-1.6774,-1.7388,-1.7956,-1.833,-1.8718,-1.9185,-1.9339,-1.91,-1.8771,-1.8551,-1.8557,-1.8083,-1.7719,-1.7485,-1.7485,-1.7485,-1.7485,-1.7485,-1.7485,-1.7485,-1.7485,-1.7485,-1.7485,-1.7485,-1.7361,-1.7244,-1.7003,-1.6166,-1.5811,-1.5693,-1.4619,-1.3904,-3.3393,-3.3364,-3.2988,-3.2666,-3.2453,-3.2072,-3.1757,-3.1457,-3.1269,-3.119,-3.119,-3.119,-3.1151,-3.1112,-3.0814,-3.0107,-2.9178,-2.867,-2.8125,-2.761,-2.756,-2.756,-2.756,-2.7261,-2.6826,-2.6358,-2.5798,-2.4991,-2.4125,-2.4229,-2.4442,-2.4597,-2.4934,-2.5179,-2.5394,-2.5848,-2.6047,-2.595,-2.6264,-2.6521,-2.6452,-2.6245,-2.6245,-2.6383,-2.4432,-2.3191,-2.267,-2.209,-2.1807,-2.1807,-2.1578,-2.1502,-2.1502,-2.1041,-2.0654,-2.0644,-2.0576,-2.0576,-2.0576,-2.0576,-2.0245,-1.9399,-1.9478,-1.8865,-1.7446,-1.722,-1.6987,-1.6168,-1.6028,-1.6072,-1.6086,-1.6112,-1.6112,-1.6132,-1.6273,-1.6359,-1.6386,-1.6393,-1.6386,-1.6393,-1.6393,-1.6513,-1.678,-1.7181,-1.7575,-1.7969,-1.8297,-1.8637,-1.8958,-1.9078,-1.903,-1.8719,-1.8538,-1.8428,-1.8096,-1.7726,-1.7485,-1.7485,-1.7485,-1.7485,-1.7485,-1.7485,-1.7485,-1.7485,-1.7485,-1.7485,-1.7485,-1.7003,-1.6885,-1.6284,-1.5451,-1.4738,-1.4381,-1.3306,-1.2711,-3.3791,-3.3707,-3.3206,-3.2781,-3.2453,-3.2336,-3.2027,-3.1526,-3.1303,-3.119,-3.119,-3.119,-3.119,-3.1112,-3.0797,-3.0166,-2.93,-2.8919,-2.8304,-2.7625,-2.756,-2.756,-2.756,-2.756,-2.7188,-2.639,-2.5946,-2.5271,-2.4478,-2.4387,-2.4549,-2.478,-2.4887,-2.4985,-2.5141,-2.5432,-2.5542,-2.5649,-2.6176,-2.6521,-2.6477,-2.642,-2.6226,-2.5742,-2.4027,-2.2916,-2.2531,-2.2101,-2.1807,-2.1807,-2.1655,-2.1578,-2.1578,-2.0964,-2.0576,-2.0576,-2.0576,-2.0576,-2.0596,-2.0703,-2.0457,-1.9592,-1.9525,-1.891,-1.7584,-1.7249,-1.681,-1.6239,-1.6001,-1.6046,-1.6266,-1.6353,-1.6413,-1.6433,-1.6587,-1.67,-1.6707,-1.6693,-1.6687,-1.6687,-1.6767,-1.6927,-1.7128,-1.7395,-1.7689,-1.8003,-1.8237,-1.8457,-1.8711,-1.8878,-1.8744,-1.8711,-1.848,-1.8292,-1.796,-1.7602,-1.7485,-1.7367,-1.7485,-1.7485,-1.7485,-1.7485,-1.7485,-1.7485,-1.7485,-1.7485,-1.7244,-1.6649,-1.6053,-1.5575,-1.4738,-1.4018,-1.3066,-1.1989,-1.1511,-3.4606,-3.4516,-3.3773,-3.3296,-3.2897,-3.2561,-3.2318,-3.2035,-3.1623,-3.1427,-3.1219,-3.1241,-3.1275,-3.1032,-3.0368,-2.9705,-2.9406,-2.921,-2.8528,-2.766,-2.756,-2.756,-2.756,-2.756,-2.7473,-2.7188,-2.6269,-2.5504,-2.493,-2.4883,-2.4936,-2.5092,-2.5325,-2.5419,-2.5307,-2.5243,-2.5277,-2.5678,-2.6244,-2.6452,-2.6433,-2.6162,-2.5707,-2.4962,-2.372,-2.3298,-2.3863,-2.2542,-2.1807,-2.1807,-2.1807,-2.1589,-2.1282,-2.0799,-2.0576,-2.0625,-2.0605,-2.0596,-2.0674,-2.0946,-2.0647,-1.9861,-1.9326,-1.8698,-1.7644,-1.6638,-1.607,-1.6092,-1.5715,-1.5585,-1.6199,-1.6506,-1.668,-1.6714,-1.678,-1.6814,-1.678,-1.674,-1.6727,-1.6807,-1.6994,-1.7134,-1.7318,-1.7408,-1.7689,-1.7916,-1.8023,-1.815,-1.843,-1.8651,-1.8618,-1.8275,-1.818,-1.8075,-1.7781,-1.7479,-1.7367,-1.7367,-1.7485,-1.7485,-1.7485,-1.7485,-1.7485,-1.7485,-1.7485,-1.7479,-1.6762,-1.6166,-1.5456,-1.4857,-1.4023,-1.2946,-1.1864,-1.0906,-1.0422,-3.5439,-3.5421,-3.5168,-3.4655,-3.3988,-3.3352,-3.2524,-3.1736,-3.2703,-3.2459,-3.1476,-3.1725,-3.1681,-3.1139,-3.0535,-2.9995,-2.954,-2.915,-2.8496,-2.771,-2.761,-2.7625,-2.756,-2.756,-2.7137,-2.6269,-2.5189,-2.4784,-2.5004,-2.4975,-2.5145,-2.5537,-2.567,-2.5623,-2.5549,-2.5679,-2.5803,-2.5848,-2.6231,-2.6245,-2.5746,-2.561,-2.5194,-2.4338,-2.3501,-2.3282,-2.3718,-2.2486,-2.1818,-2.1818,-2.1807,-2.1578,-2.1205,-2.0809,-2.0723,-2.0986,-2.1025,-2.1182,-2.1354,-2.0907,-2.0301,-1.9525,-1.8866,-1.8089,-1.7348,-1.6919,-1.6692,-1.6614,-1.6047,-1.5845,-1.6413,-1.6639,-1.676,-1.6994,-1.7188,-1.7268,-1.7261,-1.7275,-1.7308,-1.7315,-1.7388,-1.7442,-1.7448,-1.7562,-1.7622,-1.7716,-1.7749,-1.7856,-1.8123,-1.829,-1.8307,-1.8019,-1.8032,-1.7802,-1.7267,-1.6763,-1.6598,-1.6391,-1.6526,-1.6644,-1.6885,-1.6885,-1.7003,-1.712,-1.7126,-1.6885,-1.6284,-1.5596,-1.4898,-1.3564,-1.2251,-1.1281,-1.0547,-1.0183,-0.9943,-3.6268,-3.6218,-3.5946,-3.5341,-3.4582,-3.4104,-3.3223,-3.2337,-3.3567,-3.3651,-3.2964,-3.2432,-3.2036,-3.1476,-3.0667,-3.0038,-2.9524,-2.8951,-2.8301,-2.7775,-2.7675,-2.7625,-2.7494,-2.7107,-2.662,-2.5783,-2.4878,-2.4754,-2.5236,-2.5092,-2.5367,-2.6007,-2.5929,-2.5816,-2.5781,-2.5807,-2.5766,-2.5848,-2.5946,-2.5816,-2.5419,-2.5206,-2.4783,-2.4016,-2.3375,-2.2993,-2.2938,-2.2171,-2.1901,-2.1994,-2.1911,-2.165,-2.1416,-2.1214,-2.1191,-2.1396,-2.1494,-2.1602,-2.1783,-2.1137,-2.0458,-1.9834,-1.8977,-1.8281,-1.769,-1.7517,-1.7239,-1.6979,-1.6676,-1.6422,-1.6635,-1.6721,-1.6773,-1.6947,-1.7215,-1.7455,-1.7542,-1.7589,-1.7575,-1.7555,-1.7569,-1.7589,-1.7589,-1.7589,-1.7589,-1.7589,-1.7589,-1.7615,-1.7849,-1.7983,-1.7925,-1.7883,-1.7776,-1.739,-1.6603,-1.6147,-1.582,-1.5521,-1.5451,-1.5451,-1.5451,-1.5456,-1.5575,-1.5456,-1.5451,-1.5332,-1.4857,-1.461,-1.3937,-1.2206,-1.0845,-1.0767,-1.0656,-1.0086,-0.9829,-3.713,-3.6975,-3.6254,-3.5641,-3.4991,-3.5006,-3.4441,-3.3701,-3.4109,-3.4712,-3.4856,-3.3379,-3.2391,-3.1958,-3.0721,-2.9907,-2.9451,-2.8669,-2.8235,-2.7989,-2.789,-2.7725,-2.7479,-2.6541,-2.5962,-2.57,-2.516,-2.5175,-2.5654,-2.5328,-2.5651,-2.6569,-2.6308,-2.5999,-2.6181,-2.5679,-2.5677,-2.5816,-2.564,-2.5511,-2.5182,-2.4985,-2.4476,-2.3677,-2.3123,-2.2606,-2.2182,-2.2018,-2.2066,-2.2335,-2.1983,-2.1763,-2.1829,-2.1905,-2.1953,-2.2026,-2.1914,-2.1963,-2.1874,-2.1485,-2.0962,-2.0727,-1.9544,-1.8703,-1.8395,-1.7662,-1.7239,-1.7066,-1.7145,-1.7072,-1.6746,-1.6642,-1.6694,-1.676,-1.6994,-1.7275,-1.7502,-1.7555,-1.7589,-1.7589,-1.7589,-1.7582,-1.7477,-1.7477,-1.7477,-1.7153,-1.7153,-1.7285,-1.7006,-1.6933,-1.7417,-1.7245,-1.6833,-1.6069,-1.5058,-1.463,-1.4169,-1.3175,-1.3386,-1.3836,-1.4242,-1.4381,-1.4386,-1.4262,-1.4018,-1.378,-1.3564,-1.3291,-1.2738,-1.1504,-1.0923,-1.1001,-1.0747,-1.006,-0.9937,-3.8041,-3.799,-3.7762,-3.7354,-3.6862,-3.6547,-3.5866,-3.5078,-3.5145,-3.5273,-3.5275,-3.4449,-3.3169,-3.2225,-3.1122,-3.0295,-2.9624,-2.8779,-2.8299,-2.8137,-2.8005,-2.7806,-2.7393,-2.6424,-2.5807,-2.5673,-2.4905,-2.4807,-2.5733,-2.5602,-2.6138,-2.7262,-2.7066,-2.7013,-2.7103,-2.6841,-2.6693,-2.662,-2.6395,-2.5639,-2.4647,-2.4391,-2.3653,-2.241,-2.2239,-2.2203,-2.2263,-2.2315,-2.217,-2.1983,-2.189,-2.1871,-2.2048,-2.2472,-2.2624,-2.2493,-2.2408,-2.248,-2.2553,-2.1895,-2.1255,-2.0454,-1.9356,-1.8519,-1.7792,-1.7512,-1.7239,-1.7239,-1.7232,-1.708,-1.67,-1.6443,-1.6395,-1.6484,-1.6794,-1.7141,-1.7268,-1.7455,-1.7589,-1.7589,-1.7575,-1.7259,-1.6935,-1.6935,-1.6935,-1.5855,-1.5749,-1.6074,-1.5779,-1.547,-1.5707,-1.5304,-1.4757,-1.4113,-1.3458,-1.3136,-1.2316,-1.0864,-1.1091,-1.1844,-1.2746,-1.3665,-1.3784,-1.3789,-1.3301,-1.2942,-1.247,-1.2147,-1.1335,-1.08,-1.0598,-1.0411,-1.0339,-1.0073,-1.0127,-3.8433,-3.8336,-3.834,-3.7933,-3.7376,-3.7034,-3.6377,-3.5634,-3.5237,-3.4928,-3.4566,-3.3905,-3.3085,-3.2208,-3.1007,-3.0243,-2.971,-2.8842,-2.8348,-2.8235,-2.8103,-2.7855,-2.7488,-2.677,-2.6221,-2.5535,-2.4851,-2.5051,-2.5638,-2.5602,-2.6242,-2.721,-2.7288,-2.7235,-2.7364,-2.7335,-2.7214,-2.693,-2.6508,-2.5697,-2.4755,-2.3975,-2.3276,-2.2327,-2.2035,-2.1963,-2.218,-2.2201,-2.2066,-2.1859,-2.1828,-2.1937,-2.2196,-2.2817,-2.2978,-2.2675,-2.2571,-2.2532,-2.2129,-2.1496,-2.0692,-1.9687,-1.8703,-1.7971,-1.7419,-1.7333,-1.7333,-1.7333,-1.7333,-1.7052,-1.6683,-1.6305,-1.6103,-1.6099,-1.65,-1.682,-1.6947,-1.7221,-1.7375,-1.7422,-1.7495,-1.7364,-1.6611,-1.6823,-1.618,-1.5316,-1.5108,-1.4888,-1.446,-1.4132,-1.3922,-1.3764,-1.3707,-1.3397,-1.3179,-1.2852,-1.2069,-1.0517,-0.9764,-1.0502,-1.1248,-1.2419,-1.2217,-1.2217,-1.2101,-1.1985,-1.1511,-1.1065,-1.0678,-1.0246,-1.0029,-1.0073,-1.0131,-1.0181,-1.0246,-3.8442,-3.8212,-3.8194,-3.7665,-3.687,-3.6732,-3.6324,-3.5676,-3.4865,-3.3989,-3.3227,-3.263,-3.2544,-3.2198,-3.0962,-2.9995,-2.9853,-2.8967,-2.8541,-2.8284,-2.8088,-2.7875,-2.7575,-2.7135,-2.6494,-2.5604,-2.5119,-2.5229,-2.5533,-2.5341,-2.6007,-2.7053,-2.7,-2.6987,-2.7246,-2.7258,-2.7149,-2.693,-2.6427,-2.5779,-2.5052,-2.3986,-2.3128,-2.2553,-2.2101,-2.1818,-2.1859,-2.1849,-2.1818,-2.1818,-2.1807,-2.1968,-2.2145,-2.2744,-2.2707,-2.2439,-2.2458,-2.2223,-2.1425,-2.0862,-1.9932,-1.9125,-1.8157,-1.7404,-1.7311,-1.7333,-1.7333,-1.7333,-1.7333,-1.7052,-1.6683,-1.6116,-1.5845,-1.5919,-1.6119,-1.6339,-1.6593,-1.6901,-1.7108,-1.7128,-1.7355,-1.7502,-1.7002,-1.6486,-1.5642,-1.3814,-1.3706,-1.3599,-1.3166,-1.2955,-1.295,-1.3068,-1.3113,-1.3158,-1.2927,-1.2691,-1.1803,-1.076,-0.976,-0.9764,-0.9968,-1.0542,-1.0254,-1.0169,-1.0778,-1.0781,-1.0425,-1.0009,-0.9968,-1.0002,-0.9995,-1.0093,-1.0198,-1.0239,-1.0297,-3.8464,-3.7644,-3.7502,-3.6944,-3.619,-3.5736,-3.5934,-3.6387,-3.4772,-3.3226,-3.2186,-3.2648,-3.273,-3.2239,-3.1416,-3.0912,-3.0172,-2.9287,-2.8732,-2.8235,-2.8061,-2.7849,-2.7434,-2.6765,-2.625,-2.5771,-2.4805,-2.4906,-2.5484,-2.5785,-2.6255,-2.7223,-2.7,-2.6948,-2.7313,-2.7039,-2.6973,-2.7124,-2.685,-2.6,-2.4981,-2.4264,-2.3327,-2.2327,-2.1949,-2.1807,-2.1807,-2.1807,-2.1807,-2.1807,-2.1838,-2.1937,-2.2247,-2.1961,-2.1928,-2.223,-2.2142,-2.2012,-2.1614,-2.0845,-2.0208,-1.9237,-1.83,-1.7865,-1.7311,-1.7326,-1.7326,-1.7326,-1.7333,-1.7052,-1.6683,-1.6116,-1.5832,-1.5852,-1.5905,-1.5979,-1.6092,-1.6493,-1.6767,-1.686,-1.6952,-1.6607,-1.503,-1.5617,-1.4495,-1.2611,-1.2191,-1.2304,-1.2096,-1.1773,-1.1878,-1.22,-1.1996,-1.1923,-1.1625,-1.1475,-1.0875,-1.0397,-0.9639,-0.9256,-0.9452,-0.9574,-0.9615,-0.9713,-0.994,-0.9812,-0.9781,-0.9829,-0.9886,-0.992,-0.9968,-1.0063,-1.0158,-1.0236,-1.0368,-3.7599,-3.7034,-3.6765,-3.6315,-3.5716,-3.5388,-3.5456,-3.5463,-3.4189,-3.2656,-3.159,-3.21,-3.2121,-3.1742,-3.1324,-3.0707,-3.0076,-2.9212,-2.8372,-2.7931,-2.7946,-2.8056,-2.7531,-2.6549,-2.5929,-2.598,-2.5354,-2.532,-2.5647,-2.585,-2.6229,-2.7053,-2.6791,-2.6817,-2.7079,-2.6804,-2.6857,-2.6999,-2.7085,-2.6633,-2.5836,-2.5122,-2.3986,-2.2692,-2.2327,-2.2252,-2.1797,-2.1807,-2.1807,-2.1807,-2.1807,-2.1901,-2.2097,-2.1722,-2.172,-2.1868,-2.197,-2.1289,-2.0641,-2.0057,-1.9307,-1.8265,-1.7679,-1.7325,-1.712,-1.7113,-1.7238,-1.7186,-1.713,-1.7138,-1.6676,-1.6305,-1.6021,-1.5825,-1.5825,-1.5825,-1.5899,-1.6226,-1.65,-1.6454,-1.6351,-1.5763,-1.5154,-1.4647,-1.3789,-1.2103,-1.1285,-1.1302,-1.1446,-1.1122,-1.1017,-1.1122,-1.0798,-1.0586,-1.015,-0.9846,-0.9647,-0.9468,-0.9269,-0.9127,-0.9266,-0.9357,-0.9429,-0.9551,-0.9676,-0.9713,-0.97,-0.9754,-0.9798,-0.9852,-0.9917,-1.0008,-1.0103,-1.0195,-1.0378,-3.6563,-3.6295,-3.6066,-3.5642,-3.5159,-3.5091,-3.4796,-3.4279,-3.3323,-3.2294,-3.1354,-3.119,-3.1292,-3.096,-3.067,-3.0128,-2.935,-2.8618,-2.7721,-2.7272,-2.7628,-2.7674,-2.7193,-2.6234,-2.5631,-2.58,-2.5397,-2.5455,-2.5551,-2.5654,-2.5772,-2.6373,-2.6255,-2.6255,-2.6425,-2.6425,-2.6478,-2.6765,-2.6933,-2.6815,-2.6458,-2.5615,-2.4348,-2.2916,-2.2553,-2.2327,-2.1873,-2.1807,-2.1807,-2.1807,-2.1807,-2.1807,-2.1807,-2.1807,-2.1731,-2.1543,-2.143,-2.0665,-1.958,-1.8875,-1.8046,-1.6528,-1.6382,-1.6426,-1.6499,-1.6791,-1.6916,-1.6967,-1.6904,-1.6743,-1.6324,-1.59,-1.5534,-1.5343,-1.5248,-1.5343,-1.5382,-1.557,-1.5577,-1.5849,-1.5543,-1.4998,-1.4033,-1.3291,-1.2457,-1.1709,-1.0903,-1.0444,-1.0578,-1.066,-1.0639,-1.0574,-1.0472,-1.0147,-0.971,-0.9379,-0.9064,-0.9068,-0.8964,-0.9025,-0.911,-0.915,-0.9242,-0.9395,-0.9496,-0.954,-0.9585,-0.9612,-0.9673,-0.9764,-0.9869,-0.9961,-1.0059,-1.0154,-1.0365,-3.6573,-3.5565,-3.5462,-3.488,-3.4071,-3.3949,-3.3912,-3.3623,-3.2892,-3.2004,-3.1239,-3.1159,-3.0772,-3.0374,-3.0256,-2.942,-2.8362,-2.7719,-2.7094,-2.6655,-2.6809,-2.6794,-2.6336,-2.5403,-2.513,-2.5568,-2.5163,-2.4766,-2.505,-2.4726,-2.5132,-2.5602,-2.5171,-2.5105,-2.5537,-2.5576,-2.5769,-2.619,-2.644,-2.6302,-2.566,-2.5228,-2.412,-2.2606,-2.2467,-2.2101,-2.1883,-2.1807,-2.1807,-2.1807,-2.1807,-2.1807,-2.1807,-2.1807,-2.1655,-2.1369,-2.0732,-2.0093,-1.9396,-1.8006,-1.7373,-1.6884,-1.6395,-1.6118,-1.6294,-1.6433,-1.6462,-1.6461,-1.6335,-1.6012,-1.5086,-1.5042,-1.4244,-1.3686,-1.3573,-1.3488,-1.3409,-1.3556,-1.3899,-1.4334,-1.4311,-1.4149,-1.3073,-1.2122,-1.1522,-1.1088,-1.0611,-1.029,-1.0428,-1.0389,-1.0413,-1.0381,-1.0363,-0.9926,-0.9599,-0.9268,-0.8944,-0.8944,-0.8947,-0.8947,-0.8998,-0.8977,-0.9059,-0.9225,-0.9337,-0.9401,-0.9439,-0.9469,-0.9591,-0.9713,-0.9815,-0.991,-1.0042,-1.0164,-1.0314,-3.5509,-3.4904,-3.4648,-3.4236,-3.3808,-3.3726,-3.3694,-3.3539,-3.2621,-3.1381,-3.0439,-3.0206,-3.0023,-2.9658,-2.9533,-2.8941,-2.8076,-2.7316,-2.6761,-2.6299,-2.629,-2.5883,-2.5402,-2.4537,-2.4326,-2.4476,-2.4244,-2.4708,-2.5558,-2.5084,-2.4827,-2.4872,-2.4688,-2.4655,-2.4517,-2.4543,-2.4635,-2.5132,-2.5647,-2.5897,-2.549,-2.5468,-2.4732,-2.3526,-2.2861,-2.2596,-2.1883,-2.1807,-2.1807,-2.1807,-2.1807,-2.1807,-2.1807,-2.1807,-2.1731,-2.1425,-2.0722,-2.0079,-1.952,-1.8149,-1.7368,-1.683,-1.6156,-1.5716,-1.584,-1.5877,-1.5913,-1.5915,-1.6094,-1.5791,-1.5339,-1.4838,-1.4285,-1.3561,-1.311,-1.289,-1.278,-1.2614,-1.2716,-1.2813,-1.2639,-1.2324,-1.1826,-1.1111,-1.0615,-1.0272,-1.0113,-1.0128,-1.027,-1.0208,-1.0134,-1.0011,-0.9992,-0.9625,-0.9332,-0.9168,-0.894,-0.894,-0.8991,-0.8991,-0.8977,-0.9001,-0.9005,-0.9072,-0.9164,-0.9283,-0.93,-0.934,-0.9503,-0.9646,-0.971,-0.9805,-1.0015,-1.0188,-1.0314,-3.4614,-3.4529,-3.4136,-3.3902,-3.3868,-3.3815,-3.3799,-3.3553,-3.2527,-3.0809,-2.9041,-2.9299,-2.9317,-2.8864,-2.8496,-2.8176,-2.7778,-2.6944,-2.6281,-2.5816,-2.5712,-2.5264,-2.4633,-2.4247,-2.4103,-2.3847,-2.412,-2.4829,-2.4881,-2.4717,-2.4408,-2.4024,-2.434,-2.4189,-2.3511,-2.3785,-2.3576,-2.4151,-2.4792,-2.5566,-2.5716,-2.5798,-2.546,-2.4035,-2.3606,-2.2663,-2.1816,-2.16,-2.1704,-2.1766,-2.1807,-2.1807,-2.1807,-2.1807,-2.1731,-2.1425,-2.1041,-2.0235,-1.9274,-1.7997,-1.6804,-1.6358,-1.5839,-1.5521,-1.546,-1.554,-1.5496,-1.5456,-1.5655,-1.5478,-1.4761,-1.4731,-1.395,-1.2968,-1.2494,-1.2549,-1.1924,-1.151,-1.126,-1.1187,-1.0942,-1.0792,-1.0632,-1.0461,-1.0079,-1.0,-0.9839,-0.9933,-1.0059,-0.9995,-0.9939,-0.9715,-0.9492,-0.9169,-0.9043,-0.9064,-0.895,-0.894,-0.9055,-0.9133,-0.9103,-0.9083,-0.9083,-0.9089,-0.9106,-0.9208,-0.9208,-0.9218,-0.9334,-0.9445,-0.9547,-0.973,-0.9985,-1.0131,-1.0236,-3.5037,-3.4831,-3.4529,-3.4325,-3.4124,-3.3913,-3.3825,-3.3625,-3.2526,-3.0523,-2.8418,-2.9103,-2.904,-2.8186,-2.716,-2.6664,-2.6379,-2.6091,-2.5686,-2.5267,-2.4885,-2.4642,-2.4359,-2.4307,-2.4141,-2.3852,-2.4202,-2.383,-2.362,-2.3284,-2.2986,-2.2784,-2.2666,-2.2283,-2.3014,-2.3223,-2.3825,-2.4543,-2.4909,-2.4981,-2.4655,-2.3826,-2.3154,-2.2466,-2.1881,-2.1485,-2.1439,-2.1271,-2.1331,-2.1662,-2.1745,-2.1787,-2.1807,-2.1807,-2.1655,-2.1088,-2.0051,-1.8771,-1.8461,-1.7269,-1.6237,-1.5989,-1.5499,-1.5431,-1.5431,-1.5347,-1.5347,-1.5445,-1.5426,-1.471,-1.3611,-1.2956,-1.1812,-1.1037,-1.0598,-1.025,-0.9862,-1.0577,-1.0332,-1.0202,-1.0136,-1.0032,-0.9899,-0.9719,-0.9644,-0.9652,-0.9681,-0.9782,-0.9851,-0.9794,-0.9579,-0.9369,-0.9286,-0.8969,-0.8882,-0.8899,-0.8954,-0.8944,-0.9052,-0.9205,-0.9188,-0.9147,-0.9195,-0.9198,-0.9195,-0.9161,-0.9164,-0.9181,-0.9195,-0.9317,-0.9507,-0.9741,-0.9992,-1.009,-1.0137,-3.5089,-3.487,-3.4593,-3.4394,-3.4197,-3.4074,-3.3954,-3.3529,-3.2263,-3.0523,-2.8845,-2.8611,-2.8244,-2.7451,-2.6809,-2.6606,-2.6367,-2.6033,-2.5615,-2.515,-2.4681,-2.4309,-2.4297,-2.4261,-2.4143,-2.3791,-2.3714,-2.3155,-2.2624,-2.308,-2.3458,-2.2352,-2.2485,-2.2564,-2.264,-2.2635,-2.2975,-2.3498,-2.4112,-2.4741,-2.4861,-2.4357,-2.3532,-2.2649,-2.1956,-2.1415,-2.0936,-2.0803,-2.0803,-2.101,-2.1031,-2.1031,-2.1104,-2.1238,-2.1329,-2.1049,-2.0169,-1.9474,-1.8939,-1.7585,-1.6714,-1.5989,-1.5741,-1.5431,-1.5431,-1.5347,-1.4824,-1.3886,-1.4155,-1.363,-1.2614,-1.1997,-1.1158,-1.0248,-0.9574,-0.9284,-0.914,-0.9133,-0.9407,-0.9378,-0.9348,-0.9421,-0.9498,-0.9539,-0.9575,-0.9636,-0.964,-0.9689,-0.9622,-0.953,-0.9236,-0.8951,-0.8985,-0.891,-0.8831,-0.8852,-0.8933,-0.8944,-0.896,-0.9096,-0.9191,-0.9211,-0.9013,-0.9171,-0.9185,-0.9134,-0.9057,-0.9171,-0.9211,-0.9347,-0.95,-0.9583,-0.9519,-0.9675,-0.9611,-3.5155,-3.4963,-3.4714,-3.4505,-3.4367,-3.4298,-3.408,-3.3622,-3.2195,-3.0556,-2.9143,-2.8324,-2.7654,-2.7166,-2.7072,-2.6908,-2.6708,-2.6401,-2.6033,-2.5533,-2.5,-2.4555,-2.4368,-2.4225,-2.3952,-2.3246,-2.3822,-2.3455,-2.3192,-2.3342,-2.3497,-2.2119,-2.2512,-2.2604,-2.2273,-2.2454,-2.291,-2.3223,-2.3851,-2.4424,-2.4702,-2.4469,-2.3631,-2.2787,-2.2036,-2.1358,-2.0586,-2.0265,-2.0265,-2.0472,-2.0514,-2.0596,-2.071,-2.0855,-2.0937,-2.0693,-2.0029,-1.938,-1.8801,-1.7966,-1.7326,-1.6542,-1.5899,-1.5431,-1.5431,-1.5347,-1.4657,-1.3105,-1.3555,-1.3052,-1.2015,-1.1348,-1.066,-1.0046,-0.9643,-0.9393,-0.9121,-0.9083,-0.9031,-0.908,-0.9153,-0.9254,-0.9332,-0.9417,-0.9498,-0.96,-0.9628,-0.9628,-0.9533,-0.9339,-0.9107,-0.8834,-0.8756,-0.8779,-0.8673,-0.8598,-0.8818,-0.8732,-0.8749,-0.8722,-0.8628,-0.8555,-0.8338,-0.8615,-0.8775,-0.8135,-0.7355,-0.8289,-0.9242,-0.9252,-0.9258,-0.9013,-0.9004,-0.9166,-0.8732,-3.535,-3.5245,-3.5001,-3.4851,-3.4812,-3.4591,-3.4218,-3.3759,-3.2391,-3.0785,-2.9098,-2.8237,-2.7809,-2.753,-2.7352,-2.7181,-2.6876,-2.6742,-2.6401,-2.598,-2.5582,-2.4994,-2.4563,-2.4287,-2.4234,-2.4124,-2.4094,-2.4118,-2.4103,-2.3512,-2.3083,-2.1992,-2.2379,-2.2287,-2.243,-2.286,-2.3367,-2.3642,-2.406,-2.378,-2.3593,-2.3071,-2.2366,-2.1458,-2.0554,-1.9959,-2.026,-2.0017,-1.9913,-2.0213,-2.0213,-2.0307,-2.04,-2.0472,-2.0494,-2.0288,-1.9742,-1.8976,-1.8267,-1.7556,-1.6577,-1.5809,-1.5423,-1.5431,-1.5431,-1.5431,-1.4482,-1.3105,-1.3275,-1.2687,-1.1666,-1.0733,-1.0067,-0.9569,-0.9261,-0.9025,-0.8841,-0.8894,-0.8844,-0.8877,-0.8958,-0.9076,-0.9153,-0.923,-0.9393,-0.9502,-0.9624,-0.9628,-0.943,-0.9331,-0.9031,-0.8814,-0.8729,-0.8518,-0.837,-0.8226,-0.8072,-0.797,-0.8006,-0.7888,-0.7671,-0.7564,-0.7399,-0.7091,-0.6879,-0.6263,-0.6136,-0.7338,-0.8314,-0.8813,-0.8784,-0.8205,-0.7541,-0.721,-0.6867,-3.5481,-3.5411,-3.5254,-3.51,-3.4889,-3.4812,-3.4548,-3.4093,-3.3013,-3.1372,-2.9475,-2.8827,-2.8273,-2.7904,-2.7577,-2.7396,-2.7164,-2.6925,-2.659,-2.6376,-2.6098,-2.5464,-2.4816,-2.4327,-2.4296,-2.4277,-2.4104,-2.3763,-2.354,-2.3564,-2.3487,-2.2974,-2.2578,-2.2445,-2.276,-2.3267,-2.3785,-2.4008,-2.4125,-2.3923,-2.3734,-2.3365,-2.2689,-2.1628,-2.1135,-2.0249,-1.9793,-1.9479,-1.9515,-1.9561,-1.9634,-1.9758,-1.9913,-1.9944,-1.9885,-1.9745,-1.9017,-1.8507,-1.7663,-1.6946,-1.6137,-1.565,-1.5431,-1.5431,-1.5423,-1.5347,-1.4475,-1.3529,-1.2845,-1.2169,-1.0549,-0.9777,-0.9262,-0.8911,-0.874,-0.8656,-0.8601,-0.867,-0.8694,-0.8743,-0.882,-0.8917,-0.8982,-0.9043,-0.923,-0.9405,-0.9531,-0.9533,-0.9232,-0.8965,-0.8582,-0.8414,-0.8225,-0.7827,-0.747,-0.7359,-0.736,-0.7304,-0.7129,-0.6853,-0.6577,-0.635,-0.6098,-0.5672,-0.5472,-0.5348,-0.5718,-0.6493,-0.7123,-0.7367,-0.7199,-0.6696,-0.6115,-0.5388,-0.503,-3.5611,-3.5566,-3.5476,-3.5273,-3.5037,-3.5001,-3.4885,-3.4529,-3.3542,-3.2064,-3.0236,-2.9446,-2.8799,-2.835,-2.79,-2.7504,-2.7289,-2.7023,-2.6792,-2.6552,-2.6277,-2.5751,-2.4973,-2.4527,-2.4537,-2.4582,-2.4154,-2.3792,-2.4417,-2.3617,-2.3631,-2.3741,-2.3487,-2.3137,-2.3078,-2.3424,-2.3929,-2.4073,-2.4125,-2.3923,-2.3793,-2.3365,-2.2811,-2.1628,-2.1008,-2.0453,-1.9713,-1.9414,-1.9271,-1.9225,-1.9214,-1.9173,-1.9132,-1.909,-1.8917,-1.8635,-1.8168,-1.787,-1.7112,-1.628,-1.5633,-1.5256,-1.5255,-1.5313,-1.5311,-1.5166,-1.4132,-1.293,-1.2248,-1.1225,-0.9689,-0.9257,-0.8999,-0.874,-0.8744,-0.8572,-0.8572,-0.8613,-0.8605,-0.8617,-0.869,-0.8755,-0.8812,-0.8881,-0.8955,-0.9049,-0.8817,-0.8743,-0.8538,-0.8189,-0.7664,-0.7601,-0.7664,-0.7041,-0.651,-0.6086,-0.5744,-0.626,-0.607,-0.563,-0.5328,-0.5115,-0.4672,-0.3997,-0.391,-0.4415,-0.4561,-0.4579,-0.5221,-0.5879,-0.5575,-0.5262,-0.4298,-0.3689,-0.3569,-3.576,-3.5688,-3.5546,-3.5424,-3.5289,-3.5209,-3.5172,-3.4948,-3.3848,-3.2575,-3.1299,-3.0009,-2.937,-2.9223,-2.8699,-2.8206,-2.7681,-2.7358,-2.7162,-2.7148,-2.6759,-2.6008,-2.5442,-2.5115,-2.5472,-2.5804,-2.5369,-2.5201,-2.5986,-2.4793,-2.4476,-2.4467,-2.4309,-2.3781,-2.3517,-2.3293,-2.3563,-2.4021,-2.4112,-2.3793,-2.3399,-2.2919,-2.231,-2.1616,-2.0933,-2.0431,-1.9987,-1.9473,-1.9274,-1.9208,-1.9142,-1.9131,-1.9106,-1.8502,-1.7881,-1.6996,-1.6281,-1.585,-1.57,-1.511,-1.4889,-1.4874,-1.4874,-1.4924,-1.5072,-1.4636,-1.3522,-1.2145,-1.166,-1.0722,-0.9689,-0.9082,-0.8911,-0.874,-0.8656,-0.8572,-0.8572,-0.8572,-0.8572,-0.8572,-0.8572,-0.8593,-0.8645,-0.8633,-0.8699,-0.859,-0.8196,-0.7949,-0.7773,-0.7575,-0.7044,-0.6426,-0.6471,-0.5943,-0.527,-0.4433,-0.4269,-0.4877,-0.492,-0.4263,-0.3929,-0.3715,-0.3157,-0.237,-0.2612,-0.3212,-0.266,-0.2096,-0.3179,-0.4289,-0.4125,-0.3676,-0.2831,-0.2346,-0.2468,-3.5885,-3.5807,-3.5745,-3.564,-3.5543,-3.5364,-3.5242,-3.5019,-3.4089,-3.3189,-3.258,-3.2109,-3.1501,-3.0844,-3.017,-2.9594,-2.9193,-2.838,-2.8239,-2.8339,-2.7729,-2.6636,-2.614,-2.6566,-2.6892,-2.6493,-2.6072,-2.5978,-2.6371,-2.5571,-2.5742,-2.579,-2.5129,-2.4639,-2.4186,-2.3958,-2.4071,-2.4086,-2.4054,-2.3982,-2.3734,-2.3424,-2.2919,-2.2224,-2.1428,-2.0816,-2.0313,-1.966,-1.9341,-1.9208,-1.9131,-1.9054,-1.8911,-1.8297,-1.7139,-1.6026,-1.5188,-1.5158,-1.4719,-1.4193,-1.4312,-1.4328,-1.4244,-1.4363,-1.5051,-1.3758,-1.2542,-1.1508,-1.1075,-1.024,-0.9777,-0.934,-0.9082,-0.8823,-0.874,-0.8656,-0.8572,-0.8572,-0.8572,-0.8572,-0.8572,-0.8392,-0.8332,-0.7771,-0.7706,-0.7982,-0.767,-0.735,-0.718,-0.7099,-0.669,-0.5599,-0.5055,-0.4609,-0.4018,-0.3375,-0.2964,-0.334,-0.3246,-0.269,-0.2466,-0.2576,-0.2467,-0.2025,-0.1918,-0.1812,-0.1825,-0.184,-0.2215,-0.2601,-0.2874,-0.2905,-0.2308,-0.2081,-0.2099,-3.5981,-3.5914,-3.585,-3.5807,-3.5704,-3.5438,-3.5248,-3.5022,-3.4508,-3.4012,-3.3627,-3.3696,-3.3044,-3.1898,-3.1237,-3.0838,-3.0422,-2.9651,-2.9257,-2.9403,-2.8793,-2.7901,-2.7684,-2.7896,-2.7987,-2.7498,-2.7115,-2.6969,-2.6866,-2.6624,-2.6379,-2.6117,-2.596,-2.5204,-2.4654,-2.4323,-2.4221,-2.4086,-2.3969,-2.3662,-2.3471,-2.3173,-2.2677,-2.2175,-2.1553,-2.0944,-2.0366,-1.9857,-1.9351,-1.9274,-1.9131,-1.888,-1.8583,-1.7784,-1.6636,-1.5401,-1.4697,-1.4633,-1.4168,-1.3747,-1.3792,-1.357,-1.3263,-1.3385,-1.3649,-1.2431,-1.1288,-1.0449,-1.0309,-0.9952,-0.9475,-0.9147,-0.8918,-0.8657,-0.8632,-0.8544,-0.8376,-0.8376,-0.8032,-0.8032,-0.7768,-0.7768,-0.7687,-0.7035,-0.6566,-0.6813,-0.7066,-0.6756,-0.6338,-0.6069,-0.5682,-0.4568,-0.3813,-0.3444,-0.2938,-0.2515,-0.2098,-0.1903,-0.1793,-0.1791,-0.1907,-0.213,-0.1906,-0.1795,-0.18,-0.1803,-0.1802,-0.1929,-0.2065,-0.2086,-0.2107,-0.2011,-0.1911,-0.1934,-0.1958,-3.6013,-3.5988,-3.5934,-3.5869,-3.5788,-3.5551,-3.5254,-3.4964,-3.5071,-3.4891,-3.447,-3.4008,-3.3401,-3.2537,-3.1636,-3.1165,-3.0854,-3.0389,-3.0258,-2.9981,-2.9557,-2.9132,-2.8917,-2.876,-2.9165,-2.901,-2.8478,-2.7794,-2.7458,-2.7155,-2.668,-2.6275,-2.6283,-2.5701,-2.5147,-2.4694,-2.4523,-2.4176,-2.3884,-2.3649,-2.3471,-2.2347,-2.2113,-2.1678,-2.1123,-2.0635,-2.0194,-1.9791,-1.9615,-1.9407,-1.9198,-1.8502,-1.7841,-1.7154,-1.5983,-1.4982,-1.4338,-1.4129,-1.3768,-1.3492,-1.298,-1.2567,-1.2467,-1.1908,-1.1419,-1.1016,-1.0207,-0.9577,-0.9316,-0.9174,-0.8835,-0.8632,-0.8426,-0.8406,-0.8321,-0.8162,-0.7994,-0.7738,-0.7224,-0.6874,-0.6432,-0.6257,-0.6266,-0.586,-0.5481,-0.5438,-0.5508,-0.4862,-0.4497,-0.432,-0.3893,-0.3135,-0.2555,-0.2375,-0.1958,-0.1849,-0.1866,-0.1773,-0.1782,-0.1783,-0.1789,-0.1794,-0.1795,-0.1795,-0.1795,-0.1796,-0.1798,-0.1797,-0.1801,-0.1819,-0.1839,-0.1857,-0.1879,-0.1908,-0.193,-3.601,-3.6009,-3.5991,-3.5955,-3.5923,-3.5859,-3.5639,-3.535,-3.5248,-3.5094,-3.4964,-3.4487,-3.4041,-3.3667,-3.3209,-3.2766,-3.235,-3.1936,-3.1657,-3.1245,-3.0698,-3.0659,-3.0554,-3.0463,-3.0717,-3.0377,-2.9776,-2.8794,-2.8542,-2.8091,-2.7493,-2.7129,-2.6864,-2.6336,-2.5756,-2.5314,-2.4865,-2.435,-2.3943,-2.3708,-2.3471,-2.2604,-2.2298,-2.1865,-2.106,-2.0635,-2.0302,-1.9857,-1.9605,-1.9274,-1.8654,-1.7986,-1.7656,-1.6665,-1.5551,-1.4633,-1.4201,-1.384,-1.3185,-1.282,-1.2305,-1.1558,-1.1133,-1.0825,-1.0324,-0.9917,-0.9329,-0.9039,-0.8845,-0.8724,-0.847,-0.8193,-0.7823,-0.7462,-0.7454,-0.7235,-0.6997,-0.6621,-0.6116,-0.5752,-0.5302,-0.5323,-0.5238,-0.4904,-0.4505,-0.4264,-0.3858,-0.3366,-0.3037,-0.2918,-0.266,-0.2086,-0.1898,-0.1916,-0.182,-0.1714,-0.1735,-0.1752,-0.1759,-0.1771,-0.1784,-0.1789,-0.1793,-0.1795,-0.1795,-0.1795,-0.1795,-0.1795,-0.1795,-0.1795,-0.1812,-0.1828,-0.1848,-0.1877,-0.1898,-3.6015,-3.6013,-3.6009,-3.6021,-3.601,-3.6001,-3.5885,-3.5679,-3.5438,-3.5296,-3.519,-3.4904,-3.4626,-3.4302,-3.4006,-3.3705,-3.3377,-3.285,-3.2565,-3.2384,-3.1956,-3.1673,-3.1685,-3.1709,-3.1543,-3.1251,-3.0675,-2.9789,-2.9361,-2.8889,-2.8319,-2.7464,-2.7363,-2.6692,-2.5974,-2.5425,-2.4978,-2.4465,-2.406,-2.3708,-2.328,-2.2725,-2.2298,-2.1928,-2.106,-2.0677,-2.042,-1.9868,-1.9539,-1.9208,-1.8509,-1.7842,-1.7214,-1.6105,-1.5267,-1.4489,-1.4346,-1.3688,-1.3025,-1.2666,-1.1781,-1.0887,-1.0143,-0.9922,-0.9575,-0.9217,-0.8966,-0.8774,-0.8704,-0.8542,-0.8193,-0.7675,-0.7062,-0.6443,-0.6251,-0.6141,-0.5778,-0.5326,-0.4965,-0.4694,-0.4546,-0.4474,-0.4308,-0.3961,-0.3637,-0.3423,-0.3093,-0.2654,-0.2483,-0.2511,-0.2232,-0.1846,-0.1758,-0.1669,-0.1677,-0.1689,-0.1705,-0.172,-0.1729,-0.1743,-0.1767,-0.1779,-0.1778,-0.1786,-0.1795,-0.1795,-0.1795,-0.1795,-0.1795,-0.1795,-0.1795,-0.1808,-0.1826,-0.1846,-0.1862,-3.5974,-3.5996,-3.6015,-3.601,-3.6016,-3.6013,-3.5994,-3.5981,-3.567,-3.5442,-3.5316,-3.525,-3.5002,-3.463,-3.4348,-3.413,-3.3865,-3.3497,-3.3247,-3.3302,-3.2845,-3.2429,-3.2144,-3.2039,-3.1866,-3.145,-3.0875,-3.0192,-2.9689,-2.9074,-2.8334,-2.7565,-2.7144,-2.664,-2.6122,-2.555,-2.5104,-2.4549,-2.4002,-2.3518,-2.2652,-2.1741,-2.088,-2.0582,-2.0335,-2.014,-2.0074,-1.9878,-1.9671,-1.9264,-1.8442,-1.7472,-1.6428,-1.5525,-1.484,-1.4561,-1.4418,-1.3608,-1.2799,-1.2291,-1.1254,-1.0438,-0.969,-0.9231,-0.8799,-0.8655,-0.8476,-0.8099,-0.7935,-0.7415,-0.6904,-0.6607,-0.6077,-0.5563,-0.5208,-0.4997,-0.462,-0.4272,-0.4015,-0.3737,-0.3711,-0.3645,-0.3527,-0.3173,-0.303,-0.2722,-0.2462,-0.2093,-0.1911,-0.2017,-0.182,-0.1521,-0.1633,-0.1645,-0.165,-0.1662,-0.1675,-0.1687,-0.1697,-0.1715,-0.174,-0.1752,-0.1761,-0.1773,-0.1785,-0.1793,-0.1795,-0.1795,-0.1795,-0.1795,-0.1795,-0.1795,-0.1807,-0.1825,-0.183,-3.5935,-3.5923,-3.5976,-3.6013,-3.6011,-3.6011,-3.6003,-3.5997,-3.5929,-3.571,-3.55,-3.5407,-3.5227,-3.4889,-3.4614,-3.442,-3.4307,-3.4018,-3.3839,-3.3625,-3.3325,-3.3006,-3.256,-3.242,-3.2125,-3.1631,-3.1061,-3.0427,-2.9673,-2.8997,-2.8525,-2.8171,-2.758,-2.6938,-2.6481,-2.592,-2.5342,-2.4778,-2.4376,-2.3897,-2.3352,-2.2482,-2.1741,-2.125,-2.0944,-2.0205,-1.9868,-1.932,-1.8921,-1.8375,-1.707,-1.6035,-1.5117,-1.4776,-1.4641,-1.4569,-1.4201,-1.331,-1.2352,-1.162,-1.0657,-0.9528,-0.8699,-0.8318,-0.8089,-0.8008,-0.7778,-0.7395,-0.6788,-0.6268,-0.5821,-0.552,-0.5224,-0.4644,-0.4205,-0.3824,-0.352,-0.3268,-0.3089,-0.2987,-0.2869,-0.2835,-0.2706,-0.266,-0.2412,-0.224,-0.2059,-0.1882,-0.1706,-0.1615,-0.1312,-0.1214,-0.1517,-0.1626,-0.1631,-0.1637,-0.1651,-0.166,-0.167,-0.169,-0.1711,-0.1513,-0.1418,-0.1651,-0.1773,-0.178,-0.1788,-0.1795,-0.1795,-0.1795,-0.1795,-0.1795,-0.1795,-0.1808,-0.1806,-3.5811,-3.5817,-3.595,-3.6015,-3.6015,-3.6015,-3.6015,-3.6012,-3.6003,-3.5895,-3.5693,-3.5566,-3.5343,-3.5076,-3.4832,-3.4656,-3.4614,-3.4398,-3.4242,-3.4006,-3.376,-3.353,-3.3196,-3.287,-3.2608,-3.2179,-3.1623,-3.092,-2.9876,-2.9406,-2.9074,-2.8637,-2.8012,-2.7348,-2.6938,-2.6336,-2.5605,-2.509,-2.4835,-2.4434,-2.3982,-2.304,-2.2347,-2.1854,-2.1187,-2.0506,-2.0183,-1.9639,-1.9253,-1.8684,-1.7686,-1.5859,-1.4864,-1.4152,-1.4008,-1.3768,-1.3317,-1.2718,-1.1613,-1.0801,-1.0132,-0.8998,-0.847,-0.8318,-0.7936,-0.7859,-0.7553,-0.7015,-0.5925,-0.5246,-0.5093,-0.4867,-0.4164,-0.3563,-0.3346,-0.3122,-0.2995,-0.2884,-0.2733,-0.2751,-0.2618,-0.2654,-0.2527,-0.2499,-0.2337,-0.2351,-0.2067,-0.1388,-0.1204,-0.0909,-0.0707,-0.0707,-0.0909,-0.1414,-0.1622,-0.1624,-0.1628,-0.1637,-0.144,-0.1245,-0.0945,-0.0961,-0.0974,-0.0977,-0.1311,-0.1766,-0.1774,-0.167,-0.1792,-0.1795,-0.1795,-0.1795,-0.1795,-0.1683,-0.1685,-3.5666,-3.5696,-3.588,-3.5964,-3.5966,-3.5966,-3.5987,-3.5993,-3.5976,-3.5991,-3.5923,-3.569,-3.5469,-3.5249,-3.5073,-3.4868,-3.4736,-3.4636,-3.4553,-3.4483,-3.425,-3.3895,-3.3625,-3.3379,-3.2957,-3.2504,-3.1986,-3.1359,-3.0584,-3.0005,-2.9435,-2.9042,-2.8321,-2.75,-2.7159,-2.6496,-2.5674,-2.5272,-2.4878,-2.4363,-2.3826,-2.328,-2.2592,-2.1978,-2.1428,-2.0996,-2.0752,-2.0237,-1.9802,-1.8875,-1.7705,-1.5938,-1.4457,-1.3594,-1.3294,-1.306,-1.2732,-1.199,-1.1025,-1.0501,-0.9679,-0.8927,-0.8699,-0.8241,-0.771,-0.7326,-0.7019,-0.6318,-0.5154,-0.4611,-0.4457,-0.4146,-0.3366,-0.2823,-0.2678,-0.2606,-0.2561,-0.2594,-0.2533,-0.256,-0.2515,-0.2456,-0.2341,-0.231,-0.2143,-0.2158,-0.178,-0.1098,-0.0502,-0.0,0.0303,0.0303,0.0101,-0.0505,-0.0909,-0.1011,-0.0809,-0.0608,-0.0306,-0.0205,-0.0206,-0.0,0.0106,-0.0,-0.0322,-0.076,-0.1205,-0.1102,-0.1331,-0.1562,-0.1794,-0.1794,-0.157,-0.157,-0.157,-3.5488,-3.5542,-3.5694,-3.578,-3.5836,-3.5836,-3.5916,-3.5987,-3.594,-3.5909,-3.5918,-3.5925,-3.5797,-3.5573,-3.5454,-3.5295,-3.5185,-3.499,-3.4851,-3.4792,-3.4486,-3.4136,-3.3805,-3.3543,-3.2983,-3.2535,-3.2074,-3.138,-3.1111,-3.0394,-2.9685,-2.9225,-2.8529,-2.7705,-2.6834,-2.6229,-2.5715,-2.5328,-2.4878,-2.4421,-2.3492,-2.2895,-2.2237,-2.1553,-2.0816,-2.0453,-1.9998,-1.9044,-1.8365,-1.7482,-1.6533,-1.5196,-1.4,-1.3089,-1.2647,-1.2546,-1.2224,-1.1403,-1.0657,-0.9981,-0.9155,-0.8546,-0.8089,-0.7403,-0.6865,-0.6325,-0.5938,-0.5473,-0.454,-0.4229,-0.3995,-0.3604,-0.2981,-0.2744,-0.2515,-0.2516,-0.2533,-0.2555,-0.2528,-0.2538,-0.2436,-0.2233,-0.2032,-0.1793,-0.1243,-0.106,-0.0584,0.0098,0.0892,0.1198,0.1408,0.1411,0.131,0.121,0.1009,0.0605,0.0707,0.0807,0.0908,0.1014,0.1122,0.1235,0.1246,0.1251,0.0948,0.0533,0.0215,-0.0108,-0.0656,-0.0879,-0.1561,-0.1682,-0.1457,-0.1234,-0.1234]},{"header":{"parameterUnit":"m.s-1","parameterCategory":1,"la1":31.0,"la2":29.5877,"lo1":-88.7671,"lo2":-86.6584,"dx":0.0162,"dy":0.0185,"nx":115,"ny":88,"refTime":"2022-12-06T18:00:00:Z","depth":0,"parameterNumber":3,"parameterNumberName":"V-component_of_WINDS"},"data":[0.0,0.0,0.0,0.0,0.0,0.0,0.0,0.0,0.0,0.0,0.0,0.0,0.0,0.0,0.0,0.0,0.0,0.0,0.0,0.0,0.0,0.0,0.0,0.0,0.0,0.0,0.0,0.0,0.0,0.0,0.0,0.0,0.0,0.0,0.0,0.0,0.0,0.0,0.0,0.0,0.0,0.0,0.0,0.0,0.0,0.0,0.0,0.0,0.0,0.0,0.0,0.0,0.0,0.0,0.0,0.0,0.0,0.0,0.0,0.0,0.0,0.0,0.0,0.0,0.0,0.0,0.0,0.0,0.0,0.0,0.0,0.0,0.0,0.0,0.0,0.0,0.0,0.0,0.0,0.0,0.0,0.0,0.0,0.0,0.0,0.0,0.0,0.0,0.0,0.0,0.0,0.0,0.0,0.0,0.0,0.0,0.0,0.0,0.0,0.0,0.0,0.0,0.0,0.0,0.0,0.0,0.0,0.0,0.0,0.0,0.0,0.0,0.0,0.0,0.0,0.0,0.0,0.0,0.0,0.0,0.0,0.0,0.0,0.0,0.0,0.0,0.0,0.0,0.0,0.0,0.0,0.0,0.0,0.0,0.0,0.0,0.0,0.0,0.0,0.0,0.0,0.0,0.0,0.0,0.0,0.0,0.0,0.0,0.0,0.0,0.0,0.0,0.0,0.0,0.0,0.0,0.0,0.0,0.0,0.0,0.0,0.0,0.0,0.0,0.0,0.0,0.0,0.0,0.0,0.0,0.0,0.0,0.0,0.0,0.0,0.0,0.0,0.0,0.0,0.0,0.0,0.0,0.0,0.0,0.0,0.0,0.0,0.0,0.0,0.0,0.0,0.0,0.0,0.0,0.0,0.0,0.0,0.0,0.0,0.0,0.0,0.0,0.0,0.0,0.0,0.0,0.0,0.0,0.0,0.0,0.0,0.0,0.0,0.0,0.0,0.0,0.0,0.0,0.0,0.0,0.0,0.0,0.0,0.0,0.0,0.0,0.0,0.0,0.0,0.0,0.0,0.0,0.0,0.0,0.0,0.0,0.0,0.0,0.0,0.0,0.0,0.0,0.0,0.0,0.0,0.0,0.0,0.0,0.0,0.0,0.0,0.0,0.0,0.0,0.0,0.0,0.0,0.0,0.0,0.0,0.0,0.0,0.0,0.0,0.0,0.0,0.0,0.0,0.0,0.0,0.0,0.0,0.0,0.0,0.0,0.0,0.0,0.0,0.0,0.0,0.0,0.0,0.0,0.0,0.0,0.0,0.0,0.0,0.0,0.0,0.0,0.0,0.0,0.0,0.0,0.0,0.0,0.0,0.0,0.0,0.0,0.0,0.0,0.0,0.0,0.0,0.0,0.0,0.0,0.0,0.0,0.0,0.0,0.0,0.0,0.0,0.0,0.0,0.0,0.0,0.0,0.0,0.0,0.0,0.0,0.0,0.0,0.0,0.0,0.0,0.0,0.0,0.0,0.0,0.0,0.0,0.0,0.0,0.0,0.0,0.0,0.0,0.0,0.0,0.0,0.0,0.0,0.0,0.0,0.0,0.0,0.0,0.0,0.0,0.0,0.0,0.0,0.0,0.0,0.0,0.0,0.0,0.0,0.0,0.0,0.0,0.0,0.0,0.0,0.0,0.0,0.0,0.0,0.0,0.0,0.0,0.0,0.0,0.0,0.0,0.0,0.0,0.0,0.0,0.0,0.0,0.0,0.0,0.0,0.0,0.0,0.0,0.0,0.0,0.0,0.0,0.0,0.0,0.0,0.0,0.0,0.0,0.0,0.0,0.0,0.0,0.0,0.0,0.0,0.0,0.0,0.0,0.0,0.0,0.0,0.0,0.0,0.0,0.0,0.0,0.0,0.0,0.0,0.0,0.0,0.0,0.0,0.0,0.0,0.0,0.0,0.0,0.0,0.0,0.0,0.0,0.0,0.0,0.0,0.0,0.0,0.0,0.0,0.0,0.0,0.0,0.0,0.0,0.0,0.0,0.0,0.0,0.0,0.0,0.0,0.0,0.0,0.0,0.0,0.0,0.0,0.0,0.0,0.0,0.0,0.0,0.0,0.0,0.0,0.0,0.0,0.0,0.0,0.0,0.0,0.0,0.0,0.0,0.0,0.0,0.0,0.0,0.0,0.0,0.0,0.0,0.0,0.0,0.0,0.0,0.0,0.0,0.0,0.0,0.0,0.0,0.0,0.0,0.0,0.0,0.0,0.0,0.0,0.0,0.0,0.0,0.0,0.0,0.0,0.0,0.0,0.0,0.0,0.0,0.0,0.0,0.0,0.0,0.0,0.0,0.0,0.0,0.0,0.0,0.0,0.0,0.0,0.0,0.0,0.0,0.0,0.0,0.0,0.0,0.0,0.0,0.0,0.0,0.0,0.0,0.0,0.0,0.0,0.0,0.0,0.0,0.0,0.0,0.0,0.0,0.0,0.0,0.0,0.0,0.0,0.0,0.0,0.0,0.0,0.0,0.0,0.0,0.0,0.0,0.0,0.0,0.0,0.0,0.0,0.0,0.0,0.0,0.0,0.0,0.0,0.0,0.0,0.0,0.0,0.0,0.0,0.0,0.0,0.0,0.0,0.0,0.0,0.0,0.0,0.0,0.0,0.0,0.0,0.0,0.0,0.0,0.0,0.0,0.0,0.0,0.0,0.0,0.0,0.0,0.0,0.0,0.0,0.0,0.0,0.0,0.0,0.0,0.0,0.0,0.0,0.0,0.0,0.0,0.0,0.0,0.0,0.0,0.0,0.0,0.0,0.0,0.0,0.0,0.0,0.0,0.0,0.0,0.0,0.0,0.0,0.0,0.0,0.0,0.0,0.0,0.0,0.0,0.0,0.0,0.0,0.0,0.0,0.0,0.0,0.0,0.0,0.0,0.0,0.0,0.0,0.0,0.0,0.0,0.0,0.0,0.0,0.0,0.0,0.0,0.0,0.0,0.0,0.0,0.0,0.0,0.0,0.0,0.0,0.0,0.0,0.0,0.0,0.0,0.0,0.0,0.0,0.0,0.0,0.0,0.0,0.0,0.0,0.0,0.0,0.0,0.0,0.0,0.0,0.0,0.0,0.0,0.0,0.0,0.0,0.0,0.0,0.0,0.0,0.0,0.0,0.0,0.0,0.0,0.0,0.0,0.0,0.0,0.0,0.0,0.0,0.0,0.0,0.0,0.0,0.0,0.0,0.0,0.0,0.0,0.0,0.0,0.0,0.0,0.0,0.0,0.0,0.0,0.0,0.0,0.0,0.0,0.0,0.0,0.0,0.0,0.0,0.0,0.0,0.0,0.0,0.0,0.0,0.0,0.0,0.0,0.0,0.0,0.0,0.0,0.0,0.0,0.0,0.0,0.0,0.0,0.0,0.0,0.0,0.0,0.0,0.0,0.0,0.0,0.0,0.0,0.0,0.0,0.0,0.0,0.0,0.0,0.0,0.0,0.0,0.0,0.0,0.0,0.0,0.0,0.0,0.0,0.0,0.0,0.0,0.0,0.0,0.0,0.0,0.0,0.0,0.0,0.0,0.0,0.0,0.0,0.0,0.0,0.0,0.0,0.0,0.0,0.0,0.0,0.0,0.0,0.0,0.0,0.0,0.0,0.0,0.0,0.0,0.0,0.0,0.0,0.0,0.0,0.0,0.0,0.0,0.0,0.0,0.0,0.0,0.0,0.0,0.0,0.0,0.0,0.0,0.0,0.0,0.0,0.0,0.0,0.0,0.0,0.0,0.0,0.0,0.0,0.0,0.0,0.0,0.0,0.0,0.0,0.0,0.0,0.0,0.0,0.0,0.0,0.0,0.0,0.0,0.0,0.0,0.0,0.0,0.0,0.0,0.0,0.0,0.0,0.0,0.0,0.0,0.0,0.0,0.0,0.0,0.0,0.0,0.0,0.0,0.0,0.0,0.0,0.0,0.0,0.0,0.0,0.0,0.0,0.0,0.0,0.0,0.0,0.0,0.0,0.0,0.0,0.0,0.0,0.0,0.0,0.0,0.0,0.0,0.0,0.0,0.0,0.0,0.0,0.0,0.0,0.0,0.0,0.0,0.0,0.0,0.0,0.0,0.0,0.0,0.0,0.0,0.0,0.0,0.0,0.0,0.0,0.0,0.0,0.0,0.0,0.0,0.0,0.0,0.0,0.0,0.0,0.0,0.0,0.0,0.0,0.0,0.0,0.0,0.0,0.0,0.0,0.0,0.0,0.0,0.0,0.0,0.0,0.0,0.0,0.0,0.0,0.0,0.0,0.0,0.0,-1.1131,0.0,0.0,0.0,-1.1265,0.0,0.0,0.0,0.0,0.0,0.0,0.0,0.0,0.0,0.0,0.0,0.0,0.0,0.0,0.0,0.0,0.0,0.0,0.0,0.0,0.0,0.0,0.0,0.0,0.0,0.0,0.0,0.0,0.0,0.0,0.0,0.0,0.0,0.0,0.0,0.0,0.0,0.0,0.0,0.0,0.0,0.0,0.0,0.0,0.0,0.0,0.0,0.0,0.0,0.0,0.0,0.0,0.0,0.0,0.0,0.0,0.0,0.0,0.0,0.0,0.0,0.0,0.0,0.0,0.0,0.0,0.0,0.0,0.0,0.0,0.0,0.0,0.0,0.0,0.0,0.0,0.0,0.0,0.0,0.0,0.0,0.0,0.0,0.0,0.0,0.0,0.0,0.0,0.0,0.0,0.0,0.0,0.0,0.0,0.0,0.0,0.0,0.0,0.0,0.0,0.0,0.0,0.0,0.0,0.0,0.0,0.0,0.0,0.0,0.0,-1.1719,-1.0658,-1.1994,-1.2125,-1.0809,0.0,0.0,0.0,0.0,0.0,0.0,0.0,0.0,0.0,0.0,0.0,0.0,0.0,0.0,0.0,0.0,0.0,0.0,0.0,0.0,0.0,0.0,0.0,0.0,0.0,0.0,0.0,0.0,0.0,0.0,0.0,0.0,0.0,0.0,0.0,0.0,0.0,0.0,0.0,0.0,0.0,0.0,0.0,0.0,0.0,0.0,0.0,0.0,0.0,0.0,0.0,0.0,0.0,0.0,0.0,0.0,0.0,0.0,0.0,0.0,0.0,0.0,0.0,0.0,0.0,0.0,0.0,0.0,0.0,0.0,0.0,0.0,0.0,0.0,0.0,0.0,0.0,0.0,0.0,0.0,0.0,0.0,0.0,0.0,0.0,0.0,0.0,0.0,0.0,0.0,0.0,0.0,0.0,0.0,0.0,0.0,0.0,0.0,0.0,0.0,0.0,0.0,0.0,0.0,0.0,0.0,0.0,0.0,0.0,0.0,0.0,0.0,-1.2347,-1.2297,-1.0798,0.0,0.0,0.0,0.0,0.0,0.0,0.0,0.0,0.0,0.0,0.0,0.0,0.0,0.0,0.0,0.0,0.0,0.0,0.0,0.0,0.0,0.0,0.0,0.0,0.0,0.0,0.0,0.0,0.0,0.0,0.0,0.0,0.0,0.0,0.0,0.0,0.0,0.0,0.0,0.0,0.0,0.0,0.0,0.0,0.0,0.0,0.0,0.0,0.0,0.0,0.0,0.0,0.0,0.0,0.0,0.0,0.0,0.0,0.0,0.0,0.0,0.0,0.0,0.0,0.0,0.0,0.0,0.0,0.0,0.0,0.0,0.0,0.0,0.0,0.0,0.0,0.0,0.0,0.0,0.0,0.0,0.0,0.0,0.0,0.0,0.0,0.0,0.0,0.0,0.0,0.0,0.0,0.0,0.0,0.0,0.0,0.0,0.0,0.0,0.0,0.0,0.0,0.0,0.0,0.0,0.0,0.0,0.0,0.0,0.0,-1.1719,-1.2496,-1.2036,0.0,-1.1744,0.0,0.0,0.0,0.0,0.0,0.0,0.0,0.0,0.0,0.0,0.0,0.0,0.0,0.0,0.0,0.0,0.0,0.0,0.0,0.0,0.0,0.0,0.0,0.0,0.0,0.0,0.0,0.0,0.0,0.0,0.0,0.0,0.0,0.0,0.0,0.0,0.0,0.0,0.0,0.0,0.0,0.0,0.0,0.0,0.0,0.0,0.0,0.0,0.0,0.0,0.0,0.0,0.0,0.0,0.0,0.0,0.0,0.0,0.0,0.0,0.0,0.0,0.0,0.0,0.0,0.0,0.0,0.0,0.0,0.0,0.0,0.0,0.0,0.0,0.0,0.0,0.0,0.0,0.0,0.0,0.0,0.0,0.0,0.0,0.0,0.0,0.0,0.0,0.0,0.0,0.0,0.0,0.0,0.0,0.0,0.0,0.0,0.0,0.0,0.0,0.0,0.0,0.0,0.0,0.0,0.0,0.0,0.0,0.0,0.0,-1.1885,-1.2446,-1.2163,-1.1975,0.0,0.0,0.0,0.0,0.0,0.0,0.0,0.0,0.0,0.0,0.0,0.0,0.0,0.0,0.0,0.0,0.0,0.0,0.0,0.0,0.0,0.0,0.0,0.0,0.0,0.0,0.0,0.0,0.0,0.0,0.0,0.0,0.0,0.0,0.0,0.0,0.0,0.0,0.0,0.0,0.0,0.0,0.0,0.0,0.0,0.0,0.0,0.0,0.0,0.0,0.0,0.0,0.0,0.0,0.0,0.0,0.0,0.0,0.0,0.0,0.0,0.0,0.0,0.0,0.0,0.0,0.0,0.0,0.0,0.0,0.0,0.0,0.0,0.0,0.0,0.0,0.0,0.0,0.0,0.0,0.0,0.0,0.0,0.0,0.0,0.0,0.0,0.0,0.0,0.0,0.0,0.0,0.0,0.0,0.0,0.0,0.0,0.0,0.0,0.0,0.0,0.0,0.0,0.0,0.0,0.0,0.0,0.0,0.0,0.0,-1.2173,-1.2413,-1.2805,-1.2687,-1.2489,-1.2257,0.0,0.0,0.0,0.0,0.0,0.0,0.0,0.0,0.0,0.0,0.0,0.0,0.0,0.0,0.0,0.0,0.0,0.0,0.0,0.0,0.0,0.0,0.0,0.0,0.0,0.0,0.0,0.0,0.0,0.0,0.0,0.0,0.0,0.0,0.0,0.0,0.0,0.0,0.0,0.0,0.0,0.0,0.0,0.0,0.0,0.0,0.0,0.0,0.0,0.0,0.0,0.0,0.0,0.0,0.0,0.0,0.0,0.0,0.0,0.0,0.0,0.0,0.0,0.0,0.0,0.0,0.0,0.0,0.0,0.0,0.0,0.0,0.0,0.0,0.0,0.0,0.0,0.0,0.0,0.0,0.0,0.0,0.0,0.0,0.0,0.0,0.0,0.0,0.0,0.0,0.0,0.0,0.0,0.0,0.0,0.0,0.0,0.0,0.0,0.0,0.0,0.0,0.0,0.0,0.0,0.0,0.0,0.0,-1.4045,-1.3379,-1.34,-1.4218,-1.3611,-1.3227,0.0,0.0,0.0,0.0,0.0,0.0,0.0,0.0,0.0,0.0,0.0,0.0,0.0,0.0,0.0,0.0,0.0,0.0,0.0,0.0,0.0,0.0,0.0,0.0,0.0,0.0,0.0,0.0,0.0,0.0,0.0,0.0,0.0,0.0,0.0,0.0,0.0,0.0,0.0,0.0,0.0,0.0,0.0,0.0,0.0,0.0,0.0,0.0,0.0,0.0,0.0,0.0,0.0,0.0,0.0,0.0,0.0,0.0,0.0,0.0,0.0,0.0,0.0,0.0,0.0,0.0,0.0,0.0,0.0,0.0,0.0,0.0,0.0,0.0,0.0,0.0,0.0,0.0,0.0,0.0,0.0,0.0,0.0,0.0,0.0,0.0,0.0,0.0,0.0,0.0,0.0,0.0,0.0,0.0,0.0,0.0,0.0,0.0,0.0,0.0,0.0,0.0,0.0,0.0,0.0,0.0,0.0,0.0,0.0,-1.3181,-1.351,-1.3993,-1.4739,-1.4121,-1.3632,0.0,0.0,0.0,0.0,0.0,0.0,0.0,0.0,0.0,0.0,0.0,0.0,0.0,0.0,0.0,0.0,0.0,0.0,0.0,0.0,0.0,0.0,0.0,0.0,0.0,0.0,0.0,0.0,0.0,0.0,0.0,0.0,0.0,0.0,0.0,0.0,0.0,0.0,0.0,0.0,0.0,0.0,0.0,0.0,0.0,0.0,0.0,0.0,0.0,0.0,0.0,0.0,0.0,0.0,0.0,0.0,0.0,0.0,0.0,0.0,0.0,0.0,0.0,0.0,0.0,0.0,0.0,0.0,0.0,0.0,0.0,0.0,0.0,0.0,0.0,0.0,0.0,0.0,0.0,0.0,0.0,0.0,0.0,0.0,0.0,0.0,0.0,0.0,0.0,0.0,0.0,0.0,0.0,0.0,0.0,0.0,0.0,0.0,0.0,0.0,0.0,0.0,0.0,0.0,0.0,0.0,0.0,0.0,0.0,-1.3393,-1.423,-1.4938,-1.5563,-1.4821,-1.4103,0.0,0.0,0.0,0.0,0.0,0.0,0.0,0.0,0.0,0.0,0.0,0.0,0.0,0.0,0.0,0.0,0.0,0.0,0.0,0.0,0.0,0.0,0.0,0.0,0.0,0.0,0.0,0.0,0.0,0.0,0.0,0.0,0.0,0.0,0.0,0.0,0.0,0.0,0.0,0.0,0.0,0.0,0.0,0.0,0.0,0.0,0.0,0.0,0.0,0.0,0.0,0.0,0.0,0.0,0.0,0.0,0.0,0.0,0.0,0.0,0.0,0.0,0.0,0.0,0.0,0.0,0.0,0.0,0.0,0.0,0.0,0.0,0.0,0.0,0.0,0.0,0.0,0.0,0.0,0.0,0.0,0.0,0.0,0.0,0.0,0.0,0.0,0.0,0.0,0.0,0.0,0.0,0.0,0.0,0.0,0.0,0.0,0.0,0.0,0.0,0.0,0.0,0.0,0.0,0.0,0.0,0.0,0.0,-1.3191,-1.4985,-1.5656,-1.6224,-1.6799,-1.5675,-1.4603,0.0,0.0,0.0,0.0,0.0,0.0,0.0,0.0,0.0,0.0,0.0,0.0,0.0,0.0,0.0,0.0,0.0,0.0,0.0,0.0,0.0,0.0,0.0,0.0,0.0,0.0,0.0,0.0,0.0,0.0,0.0,0.0,0.0,0.0,0.0,0.0,0.0,0.0,0.0,0.0,0.0,0.0,0.0,0.0,0.0,0.0,0.0,0.0,0.0,0.0,0.0,0.0,0.0,0.0,0.0,0.0,0.0,0.0,0.0,0.0,0.0,0.0,0.0,0.0,0.0,0.0,0.0,0.0,0.0,0.0,0.0,0.0,0.0,0.0,0.0,0.0,0.0,0.0,0.0,0.0,0.0,0.0,0.0,0.0,0.0,0.0,0.0,0.0,0.0,0.0,0.0,0.0,0.0,0.0,0.0,0.0,0.0,0.0,0.0,0.0,0.0,0.0,0.0,0.0,0.0,0.0,0.0,0.0,0.0,-1.5311,-1.6044,-1.6364,-1.6267,-1.5495,-1.4733,0.0,0.0,0.0,0.0,0.0,0.0,0.0,0.0,0.0,0.0,0.0,0.0,0.0,0.0,0.0,0.0,0.0,0.0,0.0,0.0,0.0,0.0,0.0,0.0,0.0,0.0,0.0,0.0,0.0,0.0,0.0,0.0,0.0,0.0,0.0,0.0,0.0,0.0,0.0,0.0,0.0,0.0,0.0,0.0,0.0,0.0,0.0,0.0,0.0,0.0,0.0,0.0,0.0,0.0,0.0,0.0,0.0,0.0,0.0,0.0,0.0,0.0,0.0,0.0,0.0,0.0,0.0,0.0,0.0,0.0,0.0,0.0,0.0,0.0,0.0,0.0,0.0,0.0,0.0,0.0,0.0,0.0,0.0,0.0,0.0,0.0,0.0,0.0,0.0,0.0,0.0,0.0,0.0,0.0,0.0,0.0,0.0,0.0,0.0,0.0,0.0,0.0,0.0,0.0,0.0,0.0,0.0,0.0,0.0,-1.6031,-1.6927,-1.7256,-1.6938,-1.6184,-1.5295,-1.4326,0.0,0.0,0.0,0.0,0.0,0.0,0.0,0.0,0.0,0.0,0.0,0.0,0.0,0.0,0.0,0.0,0.0,0.0,0.0,0.0,0.0,0.0,0.0,0.0,0.0,0.0,0.0,0.0,0.0,0.0,0.0,0.0,0.0,0.0,0.0,0.0,0.0,0.0,0.0,0.0,0.0,0.0,0.0,0.0,0.0,0.0,0.0,0.0,0.0,0.0,0.0,0.0,0.0,0.0,0.0,0.0,0.0,0.0,0.0,0.0,0.0,0.0,0.0,0.0,0.0,0.0,0.0,0.0,0.0,0.0,0.0,0.0,0.0,0.0,0.0,0.0,0.0,0.0,0.0,0.0,0.0,0.0,0.0,0.0,0.0,0.0,0.0,0.0,0.0,0.0,0.0,0.0,0.0,0.0,0.0,0.0,0.0,0.0,0.0,0.0,0.0,0.0,0.0,0.0,0.0,0.0,0.0,0.0,-1.7008,-1.822,-1.8674,-1.8441,-1.7398,-1.6131,0.0,0.0,0.0,0.0,0.0,0.0,0.0,0.0,0.0,0.0,0.0,0.0,0.0,0.0,0.0,0.0,0.0,0.0,0.0,0.0,0.0,0.0,0.0,0.0,0.0,0.0,0.0,0.0,0.0,0.0,0.0,0.0,0.0,0.0,0.0,0.0,0.0,0.0,0.0,0.0,0.0,0.0,0.0,0.0,0.0,0.0,0.0,0.0,0.0,0.0,0.0,0.0,0.0,0.0,0.0,0.0,0.0,0.0,0.0,0.0,0.0,0.0,0.0,0.0,0.0,0.0,0.0,0.0,0.0,0.0,0.0,0.0,0.0,0.0,0.0,0.0,0.0,0.0,0.0,0.0,0.0,0.0,0.0,0.0,0.0,0.0,0.0,0.0,0.0,0.0,0.0,0.0,0.0,0.0,0.0,0.0,0.0,0.0,0.0,0.0,0.0,0.0,0.0,0.0,0.0,0.0,0.0,0.0,0.0,-1.8406,-1.9113,-1.8962,-1.7913,-1.6938,-1.6177,0.0,0.0,0.0,0.0,0.0,0.0,0.0,0.0,0.0,0.0,0.0,0.0,0.0,0.0,0.0,0.0,0.0,0.0,0.0,0.0,0.0,0.0,0.0,0.0,0.0,0.0,0.0,0.0,0.0,0.0,0.0,0.0,0.0,0.0,0.0,0.0,0.0,0.0,0.0,0.0,0.0,0.0,0.0,0.0,0.0,0.0,0.0,0.0,0.0,0.0,0.0,0.0,0.0,0.0,0.0,0.0,0.0,0.0,0.0,0.0,0.0,0.0,0.0,0.0,0.0,0.0,0.0,0.0,0.0,0.0,0.0,0.0,0.0,0.0,0.0,0.0,0.0,0.0,0.0,0.0,0.0,0.0,0.0,0.0,0.0,0.0,0.0,0.0,0.0,0.0,0.0,0.0,0.0,0.0,0.0,0.0,0.0,0.0,0.0,0.0,0.0,0.0,0.0,0.0,0.0,0.0,0.0,0.0,-1.8545,-1.961,-1.9413,-1.9264,-1.9137,-1.7995,-1.7017,0.0,0.0,0.0,0.0,0.0,0.0,0.0,0.0,0.0,0.0,0.0,0.0,0.0,0.0,0.0,0.0,0.0,0.0,0.0,0.0,0.0,0.0,0.0,0.0,0.0,0.0,0.0,0.0,0.0,0.0,0.0,0.0,0.0,0.0,0.0,0.0,0.0,0.0,0.0,0.0,0.0,0.0,0.0,0.0,0.0,0.0,0.0,0.0,0.0,0.0,0.0,0.0,0.0,0.0,0.0,0.0,0.0,0.0,0.0,0.0,0.0,0.0,0.0,0.0,0.0,0.0,0.0,0.0,0.0,0.0,0.0,0.0,0.0,0.0,0.0,0.0,0.0,0.0,0.0,0.0,0.0,0.0,0.0,0.0,0.0,0.0,0.0,0.0,0.0,0.0,0.0,0.0,0.0,0.0,0.0,0.0,0.0,0.0,0.0,0.0,0.0,0.0,0.0,0.0,0.0,0.0,0.0,0.0,-1.8944,-2.0552,-1.9529,-1.9656,-2.095,-1.9645,-1.8282,0.0,0.0,0.0,0.0,0.0,0.0,0.0,0.0,0.0,0.0,0.0,0.0,0.0,0.0,0.0,0.0,0.0,0.0,0.0,0.0,0.0,0.0,0.0,0.0,0.0,0.0,0.0,0.0,0.0,0.0,0.0,0.0,0.0,0.0,0.0,0.0,0.0,0.0,0.0,0.0,0.0,0.0,0.0,0.0,0.0,0.0,0.0,0.0,0.0,0.0,0.0,0.0,0.0,0.0,0.0,0.0,0.0,0.0,0.0,0.0,0.0,0.0,0.0,0.0,0.0,0.0,0.0,0.0,0.0,0.0,0.0,0.0,0.0,0.0,0.0,0.0,0.0,0.0,0.0,0.0,0.0,0.0,0.0,0.0,0.0,0.0,0.0,0.0,0.0,0.0,0.0,0.0,0.0,0.0,0.0,0.0,0.0,0.0,0.0,0.0,0.0,0.0,0.0,0.0,0.0,0.0,0.0,0.0,-2.0157,-2.0913,-1.9845,-1.9865,-2.1057,-1.9645,-1.8851,0.0,0.0,0.0,0.0,0.0,0.0,0.0,0.0,0.0,0.0,0.0,0.0,0.0,0.0,0.0,0.0,0.0,0.0,0.0,0.0,0.0,0.0,0.0,0.0,0.0,0.0,0.0,0.0,0.0,0.0,0.0,0.0,0.0,0.0,0.0,0.0,0.0,0.0,0.0,0.0,0.0,0.0,0.0,0.0,0.0,0.0,0.0,0.0,-2.3708,0.0,0.0,0.0,0.0,0.0,0.0,0.0,0.0,0.0,0.0,0.0,0.0,0.0,0.0,0.0,0.0,0.0,0.0,0.0,0.0,0.0,0.0,0.0,0.0,0.0,0.0,0.0,0.0,0.0,0.0,0.0,0.0,0.0,0.0,0.0,0.0,0.0,0.0,0.0,0.0,0.0,0.0,0.0,0.0,0.0,0.0,0.0,0.0,0.0,0.0,0.0,0.0,0.0,0.0,0.0,0.0,0.0,0.0,0.0,-2.0903,-2.1449,-2.0636,-2.0587,-2.1425,-2.0925,-2.0249,0.0,0.0,0.0,0.0,0.0,0.0,0.0,0.0,0.0,0.0,0.0,0.0,0.0,0.0,0.0,0.0,0.0,0.0,0.0,0.0,0.0,0.0,0.0,0.0,0.0,0.0,0.0,0.0,0.0,0.0,0.0,0.0,0.0,0.0,0.0,0.0,0.0,0.0,0.0,0.0,0.0,0.0,0.0,0.0,0.0,0.0,0.0,0.0,0.0,0.0,0.0,0.0,0.0,0.0,0.0,0.0,0.0,0.0,0.0,0.0,0.0,0.0,0.0,0.0,0.0,0.0,0.0,0.0,0.0,0.0,0.0,0.0,0.0,0.0,0.0,0.0,0.0,0.0,0.0,0.0,0.0,0.0,0.0,0.0,0.0,0.0,0.0,0.0,0.0,0.0,0.0,0.0,0.0,0.0,0.0,0.0,0.0,0.0,0.0,0.0,0.0,0.0,0.0,0.0,0.0,0.0,0.0,-2.1068,-2.1433,-2.1919,-2.1368,-2.1331,-2.1981,-2.2382,-2.1652,-1.9666,0.0,0.0,0.0,0.0,0.0,0.0,0.0,0.0,0.0,0.0,0.0,0.0,0.0,0.0,0.0,0.0,0.0,0.0,0.0,0.0,0.0,0.0,0.0,0.0,0.0,0.0,0.0,0.0,0.0,0.0,0.0,0.0,0.0,0.0,0.0,0.0,0.0,0.0,-2.0141,-2.1849,0.0,0.0,0.0,0.0,0.0,0.0,0.0,0.0,-2.5432,0.0,0.0,0.0,0.0,0.0,0.0,0.0,0.0,0.0,0.0,0.0,0.0,0.0,0.0,0.0,0.0,0.0,0.0,0.0,0.0,0.0,0.0,0.0,0.0,0.0,0.0,0.0,0.0,0.0,0.0,0.0,0.0,0.0,0.0,0.0,0.0,0.0,0.0,0.0,0.0,0.0,0.0,0.0,0.0,0.0,0.0,0.0,0.0,0.0,0.0,0.0,0.0,0.0,0.0,0.0,0.0,-2.2114,-2.215,-2.2227,-2.2375,-2.1337,-2.1285,-2.2311,-2.242,-2.181,-2.0511,0.0,0.0,0.0,0.0,0.0,0.0,0.0,0.0,0.0,0.0,0.0,0.0,0.0,0.0,0.0,0.0,0.0,0.0,0.0,0.0,0.0,0.0,0.0,0.0,0.0,0.0,0.0,0.0,0.0,0.0,0.0,0.0,0.0,0.0,0.0,0.0,0.0,0.0,0.0,-2.476,-2.5547,0.0,0.0,0.0,0.0,0.0,0.0,0.0,0.0,-2.4806,0.0,0.0,0.0,0.0,0.0,0.0,0.0,0.0,0.0,0.0,0.0,0.0,0.0,0.0,0.0,0.0,0.0,0.0,0.0,0.0,0.0,0.0,0.0,0.0,0.0,0.0,0.0,0.0,0.0,0.0,0.0,0.0,0.0,0.0,0.0,0.0,0.0,0.0,0.0,0.0,0.0,0.0,0.0,0.0,0.0,0.0,0.0,0.0,0.0,0.0,0.0,0.0,0.0,0.0,0.0,-2.1537,-2.2361,-2.2596,-2.2071,-2.1742,-2.1716,-2.2058,-2.257,-2.2139,0.0,0.0,0.0,0.0,0.0,0.0,0.0,0.0,0.0,0.0,0.0,0.0,0.0,0.0,0.0,0.0,0.0,0.0,0.0,0.0,0.0,0.0,0.0,0.0,0.0,0.0,0.0,0.0,0.0,0.0,0.0,0.0,0.0,0.0,0.0,0.0,0.0,0.0,0.0,0.0,-2.5899,-2.6707,-2.8665,0.0,0.0,0.0,0.0,0.0,0.0,-2.7777,-2.6208,0.0,0.0,0.0,0.0,0.0,0.0,0.0,0.0,0.0,0.0,0.0,0.0,0.0,0.0,0.0,0.0,0.0,0.0,0.0,0.0,0.0,0.0,0.0,0.0,0.0,0.0,0.0,0.0,0.0,0.0,0.0,0.0,0.0,0.0,0.0,0.0,0.0,0.0,0.0,0.0,0.0,0.0,0.0,0.0,0.0,0.0,0.0,0.0,0.0,0.0,0.0,0.0,0.0,0.0,0.0,-2.0751,-2.223,-2.2717,-2.2035,-2.2029,-2.2016,-2.2022,-2.2808,-2.2465,0.0,0.0,0.0,0.0,0.0,0.0,0.0,0.0,0.0,0.0,0.0,0.0,0.0,0.0,0.0,0.0,0.0,0.0,0.0,0.0,0.0,0.0,0.0,0.0,0.0,0.0,0.0,0.0,0.0,0.0,0.0,0.0,0.0,0.0,0.0,0.0,0.0,0.0,0.0,0.0,0.0,-2.7973,-2.9728,-3.119,0.0,0.0,0.0,0.0,-3.0675,-2.9333,0.0,0.0,0.0,0.0,0.0,0.0,0.0,0.0,0.0,0.0,0.0,0.0,0.0,0.0,0.0,0.0,0.0,0.0,0.0,0.0,0.0,0.0,0.0,0.0,0.0,0.0,0.0,0.0,0.0,0.0,0.0,0.0,0.0,0.0,0.0,0.0,0.0,0.0,0.0,0.0,0.0,0.0,0.0,0.0,0.0,0.0,0.0,0.0,0.0,0.0,0.0,0.0,0.0,0.0,0.0,0.0,-2.0738,-2.1891,-2.2675,-2.2972,-2.1629,-2.1577,-2.2942,-2.3128,-2.2648,0.0,0.0,0.0,0.0,0.0,0.0,0.0,0.0,0.0,0.0,0.0,0.0,0.0,0.0,0.0,0.0,0.0,0.0,0.0,0.0,0.0,0.0,0.0,0.0,0.0,0.0,0.0,0.0,0.0,0.0,0.0,0.0,0.0,0.0,0.0,0.0,0.0,0.0,0.0,0.0,0.0,-3.0298,-3.0573,-3.1637,-3.1817,0.0,0.0,-3.2224,-3.2145,-3.1431,0.0,0.0,0.0,0.0,0.0,0.0,0.0,0.0,0.0,0.0,0.0,0.0,0.0,0.0,0.0,0.0,0.0,0.0,0.0,0.0,0.0,0.0,0.0,0.0,0.0,0.0,0.0,0.0,0.0,0.0,0.0,0.0,0.0,0.0,0.0,0.0,0.0,0.0,0.0,0.0,0.0,0.0,0.0,0.0,0.0,0.0,0.0,0.0,0.0,0.0,0.0,0.0,0.0,0.0,0.0,-2.0699,-2.0738,-2.1799,-2.2831,-2.3629,-2.1707,-2.1695,-2.3668,-2.3106,-2.2531,0.0,0.0,0.0,0.0,0.0,0.0,0.0,0.0,0.0,0.0,0.0,0.0,0.0,0.0,0.0,0.0,0.0,0.0,0.0,0.0,0.0,0.0,0.0,0.0,0.0,0.0,0.0,0.0,0.0,0.0,0.0,0.0,0.0,0.0,0.0,0.0,0.0,0.0,0.0,0.0,0.0,0.0,-3.0627,-3.2565,0.0,0.0,0.0,-3.3054,-3.2179,0.0,0.0,0.0,0.0,0.0,0.0,0.0,0.0,0.0,0.0,0.0,0.0,0.0,0.0,0.0,0.0,0.0,0.0,0.0,0.0,0.0,0.0,0.0,0.0,0.0,0.0,0.0,0.0,0.0,0.0,0.0,0.0,0.0,0.0,0.0,0.0,0.0,0.0,0.0,0.0,0.0,0.0,0.0,0.0,0.0,0.0,0.0,0.0,0.0,0.0,0.0,0.0,0.0,0.0,0.0,0.0,0.0,-2.0738,-2.1943,-2.3171,-2.4217,-2.1917,-2.1878,-2.4204,-2.321,0.0,0.0,0.0,0.0,0.0,0.0,0.0,0.0,0.0,0.0,0.0,0.0,0.0,0.0,0.0,0.0,0.0,0.0,0.0,0.0,0.0,0.0,0.0,0.0,0.0,0.0,0.0,-1.5694,0.0,0.0,0.0,0.0,0.0,0.0,0.0,0.0,0.0,0.0,0.0,0.0,0.0,0.0,-3.0006,-3.1351,-3.33,-3.3886,0.0,0.0,-3.3835,-3.23,-3.2231,-3.2438,0.0,0.0,0.0,0.0,0.0,0.0,0.0,0.0,0.0,0.0,0.0,0.0,0.0,0.0,0.0,0.0,0.0,0.0,0.0,0.0,0.0,0.0,0.0,0.0,0.0,0.0,0.0,0.0,0.0,0.0,0.0,0.0,0.0,0.0,0.0,0.0,0.0,0.0,0.0,0.0,0.0,0.0,0.0,0.0,0.0,0.0,0.0,0.0,0.0,0.0,0.0,0.0,0.0,0.0,-2.1198,-2.0777,-2.2309,-2.3733,-2.4839,-2.2166,-2.2074,-2.4779,-2.3772,-2.3675,0.0,0.0,0.0,0.0,0.0,0.0,0.0,0.0,0.0,0.0,0.0,0.0,0.0,0.0,0.0,0.0,0.0,0.0,0.0,0.0,0.0,0.0,0.0,0.0,0.0,0.0,0.0,0.0,0.0,0.0,0.0,0.0,0.0,0.0,0.0,0.0,0.0,0.0,0.0,0.0,0.0,-3.0575,-3.3455,-3.3404,-3.3266,0.0,-3.4576,-3.4576,-3.3059,-3.3455,-3.3455,-3.211,0.0,0.0,0.0,0.0,0.0,0.0,0.0,0.0,0.0,0.0,0.0,0.0,0.0,0.0,0.0,0.0,0.0,0.0,0.0,0.0,0.0,0.0,0.0,0.0,0.0,0.0,0.0,0.0,0.0,0.0,0.0,0.0,0.0,0.0,0.0,0.0,0.0,0.0,0.0,0.0,0.0,0.0,0.0,0.0,0.0,0.0,0.0,0.0,0.0,0.0,0.0,0.0,0.0,-2.2645,-2.1773,-2.2701,-2.416,-2.5882,-2.2867,-2.2603,-2.5539,-2.4055,-2.3798,0.0,0.0,0.0,0.0,0.0,0.0,0.0,0.0,0.0,0.0,0.0,0.0,0.0,0.0,0.0,0.0,0.0,0.0,0.0,0.0,0.0,0.0,0.0,0.0,0.0,0.0,0.0,0.0,-2.1453,-2.2177,-2.0567,0.0,0.0,0.0,0.0,0.0,0.0,0.0,0.0,0.0,0.0,-3.1351,-3.2524,-3.4007,0.0,0.0,-3.4714,-3.5145,-3.5025,-3.4869,-3.4772,-3.4827,-3.5374,0.0,0.0,0.0,0.0,0.0,0.0,0.0,0.0,0.0,0.0,0.0,0.0,0.0,0.0,0.0,0.0,0.0,0.0,0.0,0.0,0.0,0.0,0.0,0.0,0.0,0.0,0.0,0.0,0.0,0.0,0.0,0.0,0.0,0.0,0.0,0.0,0.0,0.0,0.0,0.0,0.0,0.0,0.0,0.0,0.0,0.0,0.0,0.0,0.0,0.0,0.0,0.0,-2.3811,-2.3192,-2.3575,-2.4936,-2.7322,-2.4217,-2.3757,-2.604,-2.5003,-2.4734,0.0,0.0,0.0,0.0,0.0,0.0,0.0,0.0,0.0,0.0,0.0,0.0,0.0,0.0,0.0,0.0,0.0,0.0,0.0,0.0,0.0,0.0,0.0,0.0,0.0,0.0,0.0,0.0,-2.2746,-2.4178,-2.2919,0.0,0.0,0.0,0.0,0.0,0.0,0.0,0.0,0.0,0.0,-3.2455,-3.3386,-3.4921,-3.5835,-3.549,-3.6077,-3.6577,-3.6628,-3.6404,-3.6291,-3.6527,0.0,0.0,0.0,0.0,0.0,0.0,0.0,0.0,0.0,0.0,0.0,0.0,0.0,0.0,0.0,0.0,0.0,0.0,0.0,0.0,0.0,0.0,0.0,0.0,0.0,0.0,0.0,-1.0871,0.0,0.0,-1.0939,0.0,0.0,0.0,0.0,0.0,0.0,0.0,0.0,0.0,0.0,0.0,0.0,0.0,0.0,0.0,0.0,0.0,0.0,0.0,0.0,0.0,0.0,-2.4474,-2.5043,-2.5012,-2.6194,-2.8478,-2.6299,-2.554,-2.6666,-2.6821,-2.6816,-2.6645,0.0,0.0,0.0,0.0,0.0,0.0,0.0,0.0,0.0,0.0,0.0,0.0,0.0,0.0,0.0,0.0,0.0,0.0,0.0,0.0,0.0,0.0,0.0,0.0,0.0,0.0,-1.6743,-2.0773,-2.5023,0.0,0.0,0.0,0.0,0.0,0.0,0.0,0.0,0.0,-3.38,-3.3369,-3.3973,-3.6835,-3.6146,-3.6077,-3.8112,-3.906,-3.906,-3.768,-3.806,-3.8025,0.0,0.0,0.0,0.0,0.0,0.0,0.0,0.0,0.0,0.0,0.0,0.0,0.0,0.0,0.0,0.0,0.0,0.0,0.0,0.0,0.0,0.0,0.0,0.0,0.0,0.0,0.0,-1.3176,-1.3186,0.0,0.0,0.0,0.0,0.0,0.0,0.0,0.0,0.0,0.0,0.0,-2.0481,-2.1267,0.0,0.0,0.0,0.0,0.0,0.0,0.0,0.0,0.0,0.0,0.0,0.0,-2.6776,-2.6284,-2.619,-2.7215,-2.9261,-2.7427,-2.6901,-2.8037,-2.7272,-2.7056,-2.7506,0.0,0.0,0.0,0.0,0.0,0.0,0.0,0.0,0.0,0.0,0.0,0.0,0.0,0.0,0.0,0.0,0.0,0.0,0.0,0.0,0.0,0.0,0.0,0.0,0.0,-2.3677,0.0,0.0,0.0,0.0,0.0,0.0,0.0,0.0,0.0,0.0,-3.2059,-3.3507,-3.4024,-3.4697,-3.5525,-3.6559,-3.7146,-3.7905,0.0,0.0,0.0,0.0,0.0,0.0,0.0,0.0,0.0,0.0,0.0,0.0,0.0,-3.769,-3.6917,-3.6167,-3.5826,-3.5626,-3.5588,0.0,0.0,0.0,0.0,0.0,0.0,0.0,0.0,0.0,0.0,0.0,0.0,0.0,0.0,-1.5028,-1.5018,-1.4852,0.0,0.0,0.0,0.0,0.0,0.0,0.0,0.0,-2.1469,-2.1751,-2.1192,-2.2021,-2.2246,-2.2058,-2.1812,-2.1472,0.0,0.0,0.0,0.0,0.0,0.0,0.0,0.0,-2.7874,-2.709,-2.7097,-2.795,-2.9516,-2.8722,-2.849,-2.9028,-2.7781,-2.7752,-2.9083,-2.9116,-2.8891,0.0,0.0,0.0,0.0,0.0,0.0,0.0,0.0,0.0,0.0,0.0,0.0,0.0,0.0,0.0,0.0,0.0,0.0,0.0,0.0,0.0,0.0,0.0,-2.6833,0.0,0.0,0.0,0.0,0.0,0.0,0.0,0.0,0.0,-3.2372,-3.3507,-3.4663,-3.5197,-3.6111,-3.6972,-3.7619,0.0,0.0,0.0,0.0,0.0,0.0,0.0,-4.0833,-3.9957,-4.0561,-4.1094,-4.0878,-4.0405,-4.0131,-4.0249,0.0,0.0,-3.8978,-3.8509,-3.8253,-3.8077,-3.7906,-3.7967,-3.8517,-3.8921,-3.9522,0.0,0.0,0.0,0.0,-1.5355,0.0,0.0,0.0,-1.6337,-1.6415,0.0,-1.6011,0.0,0.0,0.0,0.0,-2.069,-2.1234,0.0,0.0,-2.2018,-2.2006,-2.1572,-2.1725,-2.1847,-2.1962,-2.2089,-2.2535,-2.3132,-2.2139,0.0,0.0,0.0,0.0,0.0,0.0,-2.7724,-2.7629,-2.7768,-2.84,-2.9624,-3.0223,-3.0238,-2.9624,-2.8382,-2.8861,-3.1165,-2.9117,-2.8423,-2.9501,-2.7585,0.0,0.0,0.0,0.0,0.0,0.0,0.0,0.0,0.0,0.0,0.0,0.0,0.0,0.0,0.0,0.0,0.0,0.0,0.0,0.0,-2.4988,0.0,0.0,0.0,0.0,0.0,0.0,0.0,0.0,0.0,-3.6015,-3.3592,-3.4501,-3.5877,-3.7344,0.0,0.0,0.0,0.0,-4.0245,-4.141,-4.1841,-4.175,-4.106,-4.1039,-4.1227,-4.1515,0.0,0.0,-4.353,-4.2752,-4.234,-4.4035,-4.3743,-4.2723,-4.0742,-3.9751,-3.9319,-3.9728,-4.057,-4.1248,-4.1464,-4.2069,-4.2953,-1.3514,0.0,0.0,0.0,0.0,-1.5918,-1.6497,-1.69,-1.7093,-1.7339,-1.7636,-1.7956,0.0,0.0,0.0,0.0,0.0,0.0,-2.1635,-2.166,-2.2209,-2.24,-2.2325,-2.2799,-2.312,-2.3325,-2.3467,-2.3636,-2.3851,-2.4306,-2.5574,-2.7414,0.0,0.0,0.0,0.0,-2.8791,-2.8412,-2.9223,-2.9878,-3.0238,-3.0896,-3.0911,-3.0253,-2.9864,-2.9594,-2.9445,-2.9214,-2.8688,-2.7845,-2.9192,0.0,0.0,0.0,0.0,0.0,0.0,0.0,0.0,0.0,0.0,0.0,0.0,0.0,0.0,0.0,0.0,0.0,0.0,0.0,-2.7764,-3.011,-3.2639,0.0,0.0,0.0,0.0,0.0,0.0,0.0,0.0,0.0,-3.7881,-3.8291,-3.8594,0.0,0.0,-4.1202,-4.1912,-4.2409,-4.28,-4.3149,-4.3006,0.0,-4.2593,-4.3458,-4.3927,-4.3335,-4.3793,-4.4474,-4.5136,-4.5065,-4.4961,-4.495,-4.4926,-4.4784,-4.4364,-4.3156,-4.2451,-4.2678,-4.2989,-4.341,-4.4035,-4.44,-4.4841,-1.3126,-1.3123,-1.4653,-1.5235,-1.5128,-1.6128,-1.6809,-1.7232,-1.7419,-1.7687,-1.7933,-1.8173,-1.8575,-1.9164,-2.0377,0.0,0.0,0.0,-2.1794,-2.166,-2.2197,-2.233,-2.2189,-2.2609,-2.2907,-2.3119,-2.3271,-2.3594,-2.4089,-2.4808,-2.6201,-2.8111,0.0,-2.859,-2.9564,-2.9325,-2.8727,-2.7919,-2.9355,-3.0013,-2.9759,-3.0911,-3.1287,-3.0926,-3.0657,-3.0133,-2.94,-2.949,-2.9147,-2.8193,-2.9373,-2.913,0.0,0.0,0.0,0.0,0.0,0.0,0.0,0.0,0.0,0.0,0.0,-2.0567,-1.927,0.0,0.0,0.0,-3.0075,-3.1869,-3.092,-3.2934,0.0,0.0,0.0,0.0,0.0,0.0,0.0,-3.4878,-3.6933,-3.8815,-3.9982,-4.1104,-4.1548,-4.0967,-4.1683,-4.265,-4.3576,0.0,-4.4245,-4.4422,-4.4036,-4.3728,-4.3775,-4.4516,-4.4956,-4.4563,-4.5252,-4.6069,-4.6463,-4.6676,-4.6757,-4.6705,-4.7002,-4.7445,-4.7607,-4.7087,-4.6234,-4.5236,-4.5249,-4.5658,-4.616,-4.6475,-4.6958,-1.2541,-1.2662,-1.4233,-1.5023,-1.5396,-1.6314,-1.695,-1.7269,-1.7458,-1.7646,-1.774,-1.7327,-1.7832,-1.8934,-2.017,0.0,-2.2372,-2.2322,-2.2033,-2.1556,-2.2069,-2.2056,-2.1625,-2.1799,-2.1928,-2.2101,-2.2196,-2.2905,-2.4069,-2.4191,-2.5715,-2.8562,-2.8606,-2.8928,-2.9535,-2.8936,-2.7979,-2.6797,-2.8682,-2.9385,-2.8891,-3.0597,-3.1467,-3.1452,-3.0866,-3.0492,-3.0477,-2.9849,-2.9559,-2.9689,-2.8688,-2.8476,-2.9173,0.0,0.0,0.0,0.0,0.0,0.0,0.0,0.0,0.0,0.0,0.0,0.0,0.0,0.0,-2.93,-3.1829,0.0,-3.2959,-3.4065,0.0,0.0,0.0,-3.7417,-3.7488,-3.6537,-3.6376,-3.765,0.0,0.0,-4.069,-4.3086,-4.4455,-4.3768,-4.3112,-4.3382,-4.5236,-4.5126,-4.4988,-4.5486,-4.5108,-4.4775,-4.4804,-4.5043,-4.5479,-4.6027,-4.625,-4.7113,-4.7903,-4.8122,-4.8396,-4.8895,-4.9707,-5.0153,-5.019,-5.0618,-5.0469,-4.7478,-4.7497,-4.7999,-4.8091,-4.8574,-4.9243,-1.2753,-1.2639,-1.403,-1.4897,-1.5415,-1.6997,-1.774,-1.7839,-1.8171,-1.8294,-1.8294,-1.852,-1.934,-2.0569,-2.1363,-2.2176,-2.2865,-2.2498,-2.2234,-2.2108,-2.2247,-2.2352,-2.251,-2.2916,-2.3297,-2.3551,-2.3638,-2.3808,-2.4109,-2.4956,-2.6295,-2.7933,-2.8414,-2.891,-2.9535,-2.8921,-2.8442,-2.8128,-2.9549,-3.0477,-3.0851,-3.1243,-3.1467,-3.1467,-3.0866,-3.0492,-3.0477,-2.943,-2.8937,-2.9182,-2.848,-2.8658,-2.9845,-3.029,0.0,0.0,0.0,0.0,0.0,0.0,0.0,0.0,0.0,-2.8117,-2.7607,0.0,-3.1011,0.0,-3.4467,-3.4904,-3.3417,-3.4576,0.0,0.0,-3.6041,-3.6494,-3.7366,-3.7,-3.7332,-3.913,-3.9783,-4.0999,-4.3395,-4.4271,-4.5095,-4.6043,-4.6079,-4.6239,-4.6985,-4.6988,-4.6946,-4.7093,-4.6747,-4.6373,-4.6292,-4.7276,-4.8405,-4.9556,-5.0302,-5.0932,-5.1137,-5.1212,-5.1139,-5.0787,-5.0897,-5.1082,-5.1101,-5.1268,-5.1193,-5.0413,-5.0376,-5.0525,-5.0525,-5.0673,-5.0859,-1.3119,-1.309,-1.4517,-1.5249,-1.5566,-1.6883,-1.7507,-1.7629,-1.7835,-1.8021,-1.8236,-1.9244,-2.0087,-2.0853,-2.1777,-2.2392,-2.2749,-2.2447,-2.2322,-2.2322,-2.2546,-2.2738,-2.293,-2.3334,-2.361,-2.3891,-2.4524,-2.498,-2.5356,-2.6468,-2.7614,-2.8591,-2.8904,-2.922,-2.9549,-2.922,-2.9325,-2.9909,-3.0298,-3.0851,-3.1495,-3.1467,-3.1943,-3.2766,-3.1614,-3.124,-3.1809,-3.0597,-3.0153,-3.0752,-3.0744,-3.1239,-3.2325,-3.2868,-3.3677,0.0,0.0,0.0,0.0,0.0,0.0,0.0,0.0,0.0,0.0,0.0,-3.4362,-3.4446,-3.514,-3.5042,-3.3793,-3.5244,-3.6272,-3.6272,-3.6739,-3.7429,-3.845,-3.8223,-3.8758,-4.073,-4.132,-4.2359,-4.4399,-4.5351,-4.6085,-4.7021,-4.7425,-4.7716,-4.7886,-4.7897,-4.7955,-4.8014,-4.8148,-4.8327,-4.855,-4.9227,-5.0068,-5.0969,-5.1526,-5.1822,-5.1879,-5.1936,-5.1825,-5.1399,-5.164,-5.1936,-5.1936,-5.2252,-5.2457,-5.2457,-5.2475,-5.2327,-5.2011,-5.1936,-5.2011,-1.3492,-1.3637,-1.5117,-1.5666,-1.5764,-1.6534,-1.7022,-1.7266,-1.7339,-1.7592,-1.7989,-1.9632,-2.043,-2.058,-2.1738,-2.2351,-2.2422,-2.2422,-2.241,-2.2435,-2.2912,-2.3138,-2.3138,-2.3344,-2.3502,-2.3806,-2.5087,-2.6137,-2.6947,-2.815,-2.9031,-2.9699,-2.9699,-2.9819,-3.0073,-2.9924,-3.0342,-3.1375,-3.0971,-3.1091,-3.1764,-3.1646,-3.2512,-3.4158,-3.2512,-3.2063,-3.314,-3.2048,-3.1775,-3.268,-3.3268,-3.3936,-3.4636,-3.4806,-3.4512,0.0,-3.3805,0.0,0.0,0.0,0.0,0.0,0.0,0.0,0.0,-3.4194,-3.5587,-3.5137,-3.5084,-3.4854,-3.4413,-3.6053,-3.717,-3.7271,-3.8204,-3.9166,-3.9918,-3.9732,-4.0229,-4.2087,-4.2612,-4.3269,-4.4527,-4.603,-4.6966,-4.715,-4.7774,-4.8233,-4.8306,-4.8267,-4.8304,-4.8416,-4.9285,-5.0079,-5.0728,-5.0916,-5.1027,-5.1343,-5.164,-5.1584,-5.1788,-5.1825,-5.1769,-5.1825,-5.2327,-5.2735,-5.2754,-5.333,-5.3738,-5.3683,-5.3664,-5.3478,-5.2921,-5.2754,-5.2995,-1.3492,-1.3637,-1.5117,-1.5666,-1.5807,-1.7203,-1.7773,-1.7831,-1.8165,-1.8497,-1.8903,-1.9791,-2.0453,-2.0997,-2.1784,-2.2408,-2.2927,-2.2975,-2.2975,-2.2915,-2.3027,-2.3163,-2.3346,-2.3381,-2.3813,-2.4502,-2.5297,-2.6367,-2.7515,-2.8318,-2.9237,-3.0328,-3.0328,-3.1135,-3.2602,0.0,0.0,0.0,-3.1644,-3.2452,-3.308,-3.2602,-3.2766,-3.3604,-3.2287,0.0,-3.1795,-3.112,-3.0803,-3.1091,-3.1334,0.0,0.0,0.0,0.0,0.0,0.0,0.0,0.0,0.0,0.0,0.0,-3.3701,-3.3615,-3.4032,-3.5576,-3.6138,-3.5294,-3.6257,-3.6827,-3.6414,-3.7272,-3.8034,-3.8363,-3.9153,-3.9992,-4.0763,-4.0808,-4.1192,-4.2176,-4.2365,-4.3006,-4.449,-4.5553,-4.6397,-4.7058,-4.781,-4.8269,-4.8324,-4.8361,-4.8601,-4.9321,-5.0361,-5.1083,-5.1287,-5.2345,-5.2772,-5.2586,-5.2902,-5.3217,-5.3255,-5.3274,-5.3311,-5.3292,-5.3478,-5.3553,-5.3553,-5.372,-5.3813,-5.3813,-5.3813,-5.3757,-5.359,-5.3571,-5.3627,-1.3492,-1.3637,-1.5108,-1.5666,0.0,-1.7364,-1.8008,-1.8008,-1.8269,-1.8617,-1.9019,-1.9642,-2.0402,-2.1123,-2.1803,-2.2433,-2.3138,-2.3125,-2.3125,-2.3125,-2.3125,-2.315,-2.3248,-2.3657,-2.4081,-2.4557,-2.6285,-2.7456,-2.8132,-2.94,-3.0389,-3.1001,-3.1016,-3.1509,-3.2467,-3.181,-3.136,-3.1016,-3.1689,-3.2198,-3.2497,-3.2198,-3.2662,-3.3873,-3.2392,0.0,0.0,0.0,0.0,0.0,0.0,0.0,0.0,-3.4605,-3.4337,-3.3541,-3.4167,-3.459,-3.459,-3.4583,-3.4457,-3.3998,-3.4092,-3.4176,-3.4252,-3.5042,-3.5894,-3.6855,-3.7154,-3.7404,-3.7785,-3.851,-3.9213,-3.9813,-4.0267,-4.0799,-4.1534,-4.1699,-4.2029,-4.2763,-4.324,-4.3846,-4.4599,-4.5792,-4.6599,-4.7039,-4.7792,-4.8471,-4.8857,-4.893,-4.9391,-5.0706,-5.1007,-5.1565,-5.2419,-5.3181,-5.3701,-5.3367,-5.3534,-5.3775,-5.3813,-5.3813,-5.3813,-5.3813,-5.3813,-5.3813,-5.3813,-5.3813,-5.3813,-5.3813,-5.3813,-5.3813,-5.3813,-5.3813,-5.3813,-1.3492,-1.363,-1.5108,-1.5666,-1.5816,-1.7364,-1.8008,-1.8008,-1.8212,0.0,0.0,-1.9379,-2.014,-2.1123,-2.1678,-2.2372,-2.3065,-2.3125,-2.3125,-2.3125,-2.3125,-2.3125,-2.3113,-2.3761,-2.4233,-2.4556,-2.6962,-2.8267,-2.8722,-3.0406,-3.1362,-3.1467,-3.1467,-3.1467,-3.1467,-3.1467,-3.1467,-3.1482,-3.1601,-3.1764,-3.1869,-3.1706,-3.2527,-3.4262,-3.2497,-3.2302,-3.3858,-3.2392,-3.2652,-3.5058,-3.4777,-3.5347,-3.715,-3.5652,-3.4489,-3.4015,-3.2747,-3.1968,-3.1985,-3.2527,-3.2814,-3.2737,-3.4016,-3.4627,-3.4116,-3.4545,-3.6025,-3.8889,-3.8141,-3.7981,-3.9025,-3.9845,-4.0579,-4.1258,-4.1442,-4.1809,-4.2415,-4.2506,-4.2763,-4.3424,-4.4011,-4.447,-4.4488,-4.5847,-4.6911,-4.704,-4.7865,-4.8912,-4.9756,-5.0068,-5.057,-5.1759,-5.1837,-5.2137,-5.3309,-5.3775,-5.3813,-5.3757,-5.3775,-5.3813,-5.3813,-5.3813,-5.3813,-5.3813,-5.3813,-5.3813,-5.3813,-5.3813,-5.3813,-5.3813,-5.3813,-5.3813,-5.3813,-5.3813,-5.3813,-1.3492,-1.3637,-1.5117,-1.5666,-1.5816,-1.7373,-1.8008,-1.8008,-1.8183,-1.8512,-1.8808,-1.8911,-1.9748,-2.1123,-2.1175,-2.1928,-2.3065,-2.3125,-2.3125,-2.3125,-2.3125,-2.3125,-2.3125,-2.322,-2.3887,-2.5087,-2.6022,-2.7428,-2.9182,-3.0089,-3.0785,-3.1407,-3.1467,-3.1467,-3.1467,-3.1467,-3.1467,-3.1482,-3.2093,-3.2647,-3.3185,-3.2662,-3.2766,-3.3514,-3.2273,-3.1644,-3.1913,-3.1674,-3.1974,-3.3005,-3.3488,-3.3342,-3.2512,-3.4363,-3.4878,-3.3711,-3.4438,-3.4996,-3.4979,-3.5098,-3.4861,-3.4286,-3.4979,-3.5419,-3.5423,-3.6295,-3.7972,-4.0427,-3.9891,-3.9818,-4.0708,-4.1442,-4.1919,-4.2158,-4.2745,-4.3204,-4.3277,-4.3277,-4.3314,-4.3461,-4.3571,-4.3699,-4.3864,-4.5112,-4.614,-4.6416,-4.8049,-4.9903,-5.1114,-5.1646,-5.1783,-5.214,-5.2739,-5.3244,-5.3621,-5.3754,-5.3813,-5.3813,-5.3813,-5.3813,-5.3813,-5.3813,-5.3813,-5.3813,-5.3813,-5.3813,-5.3813,-5.3813,-5.3813,-5.3813,-5.3813,-5.3813,-5.3813,-5.3813,-5.3813,-1.3492,-1.3702,-1.5108,-1.5666,-1.5816,-1.7373,-1.8008,-1.8008,-1.8095,-1.8289,-1.8529,-1.8583,-1.9488,-2.0899,-2.1049,-2.1815,-2.3125,-2.3125,-2.3125,-2.3125,-2.3125,-2.3125,-2.315,-2.347,-2.3942,-2.4684,-2.5964,-2.7131,-2.8173,-2.9584,-3.0461,-3.0902,-3.1287,-3.1467,-3.1467,-3.1467,-3.1467,-3.1482,-3.1765,-3.2123,-3.2422,-3.2138,-3.2123,-3.2407,-3.1765,-3.1467,-3.1467,-3.1811,-3.2327,-3.2986,-3.3281,-3.3502,-3.37,-3.4164,-3.4472,-3.4573,-3.4489,-3.4421,-3.4421,-3.4793,-3.5047,-3.5115,-3.5419,-3.5756,-3.6071,-3.7189,-3.8797,-4.0848,-4.0763,-4.0873,-4.1662,-4.2084,-4.247,-4.291,-4.3296,-4.3479,-4.3479,-4.3479,-4.3479,-4.3479,-4.3479,-4.3479,-4.3479,-4.4911,-4.5883,-4.614,-4.8361,-5.0637,-5.1848,-5.238,-5.272,-5.2884,-5.3219,-5.3484,-5.3716,-5.3793,-5.3813,-5.3813,-5.3813,-5.3813,-5.3813,-5.3813,-5.3813,-5.3813,-5.3813,-5.3813,-5.3813,-5.3813,-5.3813,-5.3813,-5.3813,-5.3813,-5.3813,-5.3813,-5.3813,-1.3492,-1.363,-1.4895,-1.5675,-1.6097,-1.7442,-1.8008,-1.8008,-1.8008,-1.8076,-1.8269,-1.8459,-1.9291,-2.0568,-2.0921,-2.1753,-2.2763,-2.3017,-2.3125,-2.3125,-2.3125,-2.3125,-2.3198,-2.3782,-2.417,-2.4459,-2.5992,-2.6917,-2.7396,-2.899,-3.0015,-3.0398,-3.1153,-3.1467,-3.1467,-3.1467,-3.1467,-3.1467,-3.1467,-3.1467,-3.1467,-3.1467,-3.1467,-3.1524,-3.1655,-3.1697,-3.1754,-3.2272,-3.2895,-3.3531,-3.3583,-3.419,-3.5431,-3.4539,-3.4421,-3.5368,-3.4539,-3.3914,-3.3947,-3.4421,-3.4996,-3.5571,-3.5639,-3.5871,-3.652,-3.7857,-3.9387,-4.0912,-4.1317,-4.1699,-4.2415,-4.258,-4.2818,-4.3406,-4.3479,-4.3479,-4.3479,-4.3479,-4.3479,-4.3479,-4.3479,-4.3479,-4.3736,-4.4727,-4.5902,-4.704,-4.9132,-5.1041,-5.2105,-5.2858,-5.3235,-5.3437,-5.3477,-5.3518,-5.3754,-5.3813,-5.3813,-5.3813,-5.3813,-5.3813,-5.3813,-5.3813,-5.3813,-5.3813,-5.3813,-5.3813,-5.3813,-5.3813,-5.3813,-5.3813,-5.3813,-5.3813,-5.3813,-5.3813,-5.3813,-1.3492,-1.363,-1.4402,-1.5517,-1.6793,-1.7647,-1.8008,-1.8008,-1.8008,-1.8008,-1.8076,-1.8337,-1.8988,-1.9901,-2.0741,-2.1491,-2.2237,-2.2811,-2.3065,-2.3125,-2.3125,-2.3125,-2.316,-2.378,-2.441,-2.4908,-2.5675,-2.6617,-2.7719,-2.8248,-2.9154,-3.0406,-3.1123,-3.1452,-3.1467,-3.1467,-3.1467,-3.1467,-3.1467,-3.1467,-3.1467,-3.1467,-3.1467,-3.1524,-3.2023,-3.2287,-3.2327,-3.2826,-3.3443,-3.407,-3.4219,-3.4703,-3.5436,-3.547,-3.547,-3.556,-3.547,-3.5419,-3.5402,-3.547,-3.5537,-3.5605,-3.5639,-3.5871,-3.652,-3.8315,-4.0085,-4.132,-4.1925,-4.2525,-4.3259,-4.3332,-4.3332,-4.3442,-4.3479,-4.3479,-4.3479,-4.3479,-4.3479,-4.3479,-4.3479,-4.3479,-4.3589,-4.4452,-4.6122,-4.8691,-5.0031,-5.1426,-5.2692,-5.3078,-5.329,-5.3437,-5.3536,-5.3595,-5.3695,-5.3754,-5.3813,-5.3813,-5.3813,-5.3813,-5.3813,-5.3813,-5.3813,-5.3813,-5.3813,-5.3813,-5.3813,-5.3813,-5.3813,-5.3813,-5.3813,-5.3813,-5.3813,-5.3832,-5.3832,-1.3492,-1.3564,-1.433,-1.5525,-1.6862,-1.7716,-1.8008,-1.8008,-1.8008,-1.8008,-1.8018,-1.8241,-1.8895,-1.9694,-2.0161,-2.0985,-2.2113,-2.2372,-2.275,-2.3065,-2.3125,-2.3125,-2.3113,-2.3369,-2.3866,-2.4504,-2.5108,-2.5841,-2.6726,-2.7657,-2.8872,-3.025,-3.0651,-3.1021,-3.1437,-3.1467,-3.1467,-3.1467,-3.1467,-3.1467,-3.1467,-3.1467,-3.1697,-3.2023,-3.2287,-3.2547,-3.2895,-3.3439,-3.3866,-3.4168,-3.461,-3.5055,-3.5412,-3.5532,-3.5639,-3.5639,-3.5639,-3.5639,-3.5639,-3.5639,-3.5639,-3.5639,-3.5639,-3.5915,-3.6748,-3.8488,-4.0029,-4.1085,-4.2273,-4.3167,-4.3424,-4.3479,-4.3479,-4.3479,-4.3479,-4.3479,-4.3479,-4.3479,-4.3479,-4.3479,-4.3479,-4.3479,-4.3754,-4.5057,-4.7223,-4.9756,-5.0986,-5.1903,-5.3004,-5.3206,-5.323,-5.3359,-5.3481,-5.36,-5.3716,-5.3793,-5.3813,-5.3813,-5.3813,-5.3813,-5.3813,-5.3813,-5.3813,-5.3813,-5.3813,-5.3813,-5.3813,-5.3813,-5.3813,-5.3813,-5.3813,-5.3813,-5.3813,-5.3963,-5.4054,-1.3492,-1.363,-1.433,-1.5234,-1.6367,-1.7326,-1.7696,-1.7745,-1.7872,-1.8008,-1.8008,-1.8183,-1.8569,-1.9243,-1.9639,-2.0526,-2.1655,-2.1978,-2.2482,-2.3065,-2.3125,-2.3125,-2.3125,-2.3339,-2.3644,-2.4148,-2.4929,-2.5591,-2.6236,-2.7364,-2.8601,-2.9648,-3.0134,-3.0607,-3.1111,-3.1347,-3.1467,-3.1467,-3.1467,-3.1467,-3.1524,-3.164,-3.191,-3.2176,-3.2492,-3.2788,-3.3198,-3.3917,-3.43,-3.4349,-3.4883,-3.5245,-3.5308,-3.5458,-3.5577,-3.5577,-3.5639,-3.5639,-3.5639,-3.5639,-3.5667,-3.58,-3.5783,-3.6156,-3.711,-3.8546,-3.9784,-4.0775,-4.2239,-4.3167,-4.3461,-4.3479,-4.3479,-4.3479,-4.3479,-4.3479,-4.3479,-4.3479,-4.3479,-4.3479,-4.3479,-4.3608,-4.4066,-4.5718,-4.7884,-4.9921,-5.1077,-5.2105,-5.2931,-5.3206,-5.3248,-5.3318,-5.3462,-5.3561,-5.3736,-5.3813,-5.3794,-5.3813,-5.3813,-5.3813,-5.3813,-5.3813,-5.3813,-5.3813,-5.3813,-5.3813,-5.3813,-5.3813,-5.3832,-5.3851,-5.387,-5.3963,-5.4,-5.4212,-5.4397,-1.3492,-1.3637,-1.425,-1.4665,-1.4879,-1.6312,-1.6986,-1.7144,-1.7745,-1.8008,-1.8008,-1.8008,-1.8144,-1.8472,-1.932,-2.0139,-2.0951,-2.1717,-2.2433,-2.3065,-2.3125,-2.3125,-2.3125,-2.3748,-2.4086,-2.4262,-2.5174,-2.6096,-2.689,-2.7618,-2.8091,-2.8385,-2.9574,-3.0283,-3.0503,-3.1066,-3.1452,-3.1407,-3.1437,-3.1467,-3.1582,-3.2023,-3.2023,-3.1739,-3.2625,-3.3198,-3.3355,-3.4267,-3.4851,-3.4851,-3.5041,-3.5198,-3.5291,-3.5446,-3.552,-3.5577,-3.5639,-3.5639,-3.5639,-3.5639,-3.5783,-3.6174,-3.6285,-3.6632,-3.7481,-3.8598,-3.9698,-4.0753,-4.2001,-4.2928,-4.3461,-4.3644,-4.3589,-4.3589,-4.3571,-4.3608,-4.3571,-4.3754,-4.3516,-4.3608,-4.3718,-4.4066,-4.4672,-4.6085,-4.7774,-4.9334,-5.0362,-5.1426,-5.2711,-5.3133,-5.3198,-5.3378,-5.3496,-5.3514,-5.3656,-5.3736,-5.3813,-5.3813,-5.3813,-5.3813,-5.3813,-5.3813,-5.3813,-5.3813,-5.3813,-5.3813,-5.3813,-5.3832,-5.387,-5.3926,-5.4142,-5.4246,-5.4281,-5.456,-5.4746,-1.3492,-1.3564,-1.4258,-1.4887,-1.5392,-1.643,-1.7153,-1.7617,-1.7872,-1.8008,-1.8008,-1.8008,-1.8076,-1.8144,-1.8607,-1.9552,-2.0812,-2.1604,-2.2372,-2.3065,-2.3125,-2.3125,-2.3125,-2.3386,-2.3943,-2.4687,-2.5131,-2.5879,-2.6794,-2.7147,-2.7506,-2.8047,-2.8557,-2.9094,-2.9733,-3.0398,-3.0768,-3.0926,-3.13,-3.1467,-3.1524,-3.1697,-3.1697,-3.1582,-3.3018,-3.3901,-3.4251,-3.4675,-3.4899,-3.4899,-3.5041,-3.5088,-3.5088,-3.5367,-3.5594,-3.5577,-3.5639,-3.5639,-3.5639,-3.5639,-3.5783,-3.6293,-3.6826,-3.7428,-3.8282,-3.9367,-4.0508,-4.1576,-4.3155,-4.4158,-4.4195,-4.4268,-4.4268,-4.4323,-4.4709,-4.4947,-4.5021,-4.5039,-4.5021,-4.5039,-4.5039,-4.5369,-4.6104,-4.7205,-4.8288,-4.937,-5.027,-5.1206,-5.2087,-5.2417,-5.2642,-5.323,-5.3459,-5.3518,-5.3693,-5.3754,-5.3813,-5.3813,-5.3813,-5.3813,-5.3813,-5.3813,-5.3813,-5.3813,-5.3813,-5.3813,-5.3813,-5.3926,-5.3963,-5.4106,-5.433,-5.4528,-5.4623,-5.4895,-5.5056,-1.3653,-1.3704,-1.4095,-1.4681,-1.5392,-1.621,-1.6939,-1.7655,-1.7891,-1.8008,-1.8008,-1.8008,-1.8008,-1.8144,-1.8596,-1.9497,-2.0707,-2.1302,-2.2113,-2.3078,-2.3125,-2.3125,-2.3125,-2.3125,-2.3531,-2.4394,-2.4838,-2.5716,-2.6949,-2.7084,-2.7384,-2.7886,-2.813,-2.8616,-2.9307,-2.9778,-3.0171,-3.0567,-3.1195,-3.1467,-3.1554,-3.1908,-3.2243,-3.2507,-3.353,-3.4134,-3.4366,-3.4691,-3.4899,-3.4899,-3.4994,-3.5041,-3.5041,-3.5412,-3.5639,-3.5639,-3.5639,-3.5639,-3.5673,-3.5859,-3.6157,-3.6655,-3.7507,-3.8345,-3.9035,-3.9908,-4.0835,-4.203,-4.3082,-4.4085,-4.469,-4.4929,-4.5094,-4.5149,-4.5571,-4.5883,-4.5902,-4.5865,-4.5847,-4.5847,-4.6067,-4.6507,-4.7058,-4.7792,-4.86,-4.9462,-5.0105,-5.071,-5.1408,-5.1867,-5.2206,-5.2839,-5.3293,-5.3502,-5.3676,-5.3774,-5.3813,-5.3851,-5.3813,-5.3813,-5.3813,-5.3813,-5.3813,-5.3813,-5.3813,-5.3813,-5.387,-5.4036,-5.4196,-5.4315,-5.4528,-5.4697,-5.4952,-5.5217,-5.5339,-1.3982,-1.3945,-1.3645,-1.4133,-1.4992,-1.5618,-1.629,-1.7213,-1.7801,-1.8144,-1.8115,-1.8037,-1.8057,-1.8279,-1.9253,-2.0226,-2.059,-2.0835,-2.1791,-2.3005,-2.3125,-2.3125,-2.3125,-2.3125,-2.3258,-2.3531,-2.4496,-2.5953,-2.7567,-2.7636,-2.7694,-2.7868,-2.8499,-2.8858,-2.9112,-2.9426,-2.9858,-3.0466,-3.1138,-3.1524,-3.1642,-3.2597,-3.3352,-3.3889,-3.4034,-3.3899,-3.3455,-3.4382,-3.4899,-3.4899,-3.4899,-3.5058,-3.5245,-3.5487,-3.5639,-3.5723,-3.569,-3.5673,-3.5808,-3.6463,-3.7058,-3.7551,-3.8552,-3.9423,-3.9863,-4.0167,-4.0797,-4.192,-4.2313,-4.2818,-4.4507,-4.5351,-4.5828,-4.592,-4.6104,-4.6195,-4.6104,-4.5993,-4.5957,-4.6177,-4.6691,-4.7076,-4.7259,-4.7829,-4.86,-4.9224,-4.9517,-4.9866,-5.0637,-5.1242,-5.1856,-5.233,-5.2797,-5.3246,-5.353,-5.3794,-5.3851,-5.3851,-5.3813,-5.3813,-5.3813,-5.3813,-5.3813,-5.3813,-5.3813,-5.3794,-5.3981,-5.4142,-5.4349,-5.4495,-5.4716,-5.4981,-5.5224,-5.5461,-5.5554,-1.4318,-1.4311,-1.4209,-1.4979,-1.612,-1.6448,-1.7293,-1.8508,-1.8786,-1.874,-1.8449,-1.8409,-1.8291,-1.8251,-1.8988,-1.9759,-2.0398,-2.0985,-2.1865,-2.2944,-2.3065,-2.3078,-2.3125,-2.3125,-2.359,-2.4496,-2.5632,-2.6694,-2.7527,-2.7737,-2.7926,-2.8361,-2.8635,-2.8834,-2.9005,-2.954,-3.0078,-3.0398,-3.1123,-3.1697,-3.2079,-3.2486,-3.2982,-3.3498,-3.3877,-3.4194,-3.451,-3.4792,-3.4916,-3.4916,-3.4899,-3.5041,-3.5291,-3.5503,-3.5893,-3.6349,-3.6417,-3.6688,-3.7174,-3.7718,-3.818,-3.8736,-3.9776,-4.0628,-4.1119,-4.1614,-4.2105,-4.2723,-4.2919,-4.3534,-4.4491,-4.5407,-4.6049,-4.6691,-4.7223,-4.7443,-4.7425,-4.7462,-4.7553,-4.7572,-4.7774,-4.7921,-4.7939,-4.8251,-4.8416,-4.8673,-4.8765,-4.9058,-4.9793,-5.0251,-5.064,-5.124,-5.2001,-5.2823,-5.3144,-5.3571,-5.3868,-5.4033,-5.4054,-5.4017,-5.3963,-5.3963,-5.3926,-5.3889,-5.3907,-5.3963,-5.4106,-5.439,-5.4646,-5.4912,-5.526,-5.5446,-5.5551,-5.5618,-5.5682,-1.4561,-1.4633,-1.4523,-1.5459,-1.6867,-1.6911,-1.7851,-1.9143,-1.9282,-1.9136,-1.8841,-1.863,-1.8496,-1.8449,-1.907,-1.9694,-2.0386,-2.1325,-2.2211,-2.2896,-2.3017,-2.3078,-2.3173,-2.3357,-2.3968,-2.5007,-2.5988,-2.7014,-2.8028,-2.7868,-2.8173,-2.8884,-2.8797,-2.8924,-2.9268,-2.9557,-2.9903,-3.0398,-3.1336,-3.2023,-3.2388,-3.285,-3.3341,-3.3825,-3.4011,-3.4412,-3.4987,-3.497,-3.5048,-3.5197,-3.5065,-3.5157,-3.5643,-3.6194,-3.6705,-3.706,-3.7229,-3.7415,-3.7919,-3.8528,-3.9091,-3.9565,-4.0695,-4.1546,-4.1929,-4.2551,-4.2938,-4.3104,-4.316,-4.3633,-4.4492,-4.5022,-4.5773,-4.6562,-4.7297,-4.7957,-4.8196,-4.8324,-4.8288,-4.8233,-4.8269,-4.8324,-4.8324,-4.8324,-4.8324,-4.8324,-4.8324,-4.8398,-4.904,-4.9407,-4.9926,-5.0501,-5.1263,-5.1972,-5.2659,-5.323,-5.3837,-5.4127,-5.433,-5.433,-5.433,-5.4349,-5.4315,-5.4349,-5.433,-5.4364,-5.4495,-5.5007,-5.5383,-5.563,-5.5792,-5.6045,-5.6126,-5.5775,-5.5742,-1.472,-1.4845,-1.4648,-1.5405,-1.6784,-1.6979,-1.7929,-1.9165,-1.9396,-1.944,-1.9222,-1.8981,-1.8701,-1.8824,-1.9572,-2.0172,-2.0526,-2.1702,-2.2359,-2.2665,-2.2787,-2.2957,-2.316,-2.3793,-2.4423,-2.5036,-2.5715,-2.6997,-2.8492,-2.8129,-2.8364,-2.9508,-2.9218,-2.9258,-2.9853,-2.954,-2.9799,-3.063,-3.1663,-3.2216,-3.2523,-3.3459,-3.4314,-3.4775,-3.4443,-3.448,-3.4987,-3.5066,-3.5313,-3.5744,-3.5181,-3.534,-3.6329,-3.7374,-3.8024,-3.7959,-3.7956,-3.8041,-3.8272,-3.9162,-3.9842,-4.003,-4.1205,-4.2257,-4.2306,-4.2639,-4.2938,-4.3049,-4.2975,-4.3341,-4.42,-4.451,-4.4949,-4.5737,-4.6691,-4.7462,-4.8086,-4.8233,-4.8324,-4.8324,-4.8324,-4.8306,-4.8344,-4.8344,-4.8344,-4.8439,-4.8439,-4.8475,-4.8698,-4.9178,-4.9527,-5.0083,-5.0676,-5.1353,-5.2086,-5.2755,-5.3345,-5.3841,-5.4191,-5.4481,-5.4579,-5.4623,-5.4642,-5.4654,-5.4697,-5.4758,-5.4912,-5.536,-5.5731,-5.5919,-5.6194,-5.6597,-5.6606,-5.6335,-5.6357,-1.4698,-1.4774,-1.4875,-1.5568,-1.6605,-1.7334,-1.8275,-1.9344,-1.9985,-1.9957,-1.9755,-1.9589,-1.915,-1.8793,-1.9923,-2.0435,-2.0551,-2.1588,-2.2309,-2.2482,-2.2678,-2.2921,-2.3292,-2.4213,-2.4813,-2.5119,-2.6016,-2.731,-2.8579,-2.8434,-2.9029,-3.0277,-3.006,-3.0133,-3.0367,-3.0338,-3.0572,-3.0894,-3.1317,-3.2089,-3.2857,-3.3266,-3.3938,-3.4841,-3.4741,-3.502,-3.5628,-3.5711,-3.5479,-3.5181,-3.5032,-3.5343,-3.6334,-3.8151,-3.8989,-3.8569,-3.8618,-3.8937,-3.9459,-4.0117,-4.0614,-4.1024,-4.1747,-4.2338,-4.2691,-4.2806,-4.2938,-4.2938,-4.292,-4.3085,-4.3506,-4.3688,-4.4144,-4.4985,-4.614,-4.7095,-4.7443,-4.7957,-4.8324,-4.8324,-4.8288,-4.8402,-4.8495,-4.8495,-4.8495,-4.8797,-4.8832,-4.8746,-4.8925,-4.9064,-4.944,-4.9668,-5.022,-5.0892,-5.1574,-5.2201,-5.2821,-5.3398,-5.391,-5.4549,-5.4666,-5.4806,-5.4776,-5.4795,-5.4876,-5.4962,-5.5111,-5.5363,-5.5714,-5.6218,-5.6495,-5.6867,-5.7178,-5.7126,-5.7434,-1.4657,-1.4908,-1.5006,-1.5906,-1.7033,-1.7764,-1.8735,-1.9752,-2.0139,-2.0166,-1.9856,-1.9477,-1.9102,-1.8783,-1.9849,-2.0303,-2.0324,-2.1537,-2.2247,-2.2359,-2.2555,-2.286,-2.3271,-2.421,-2.4775,-2.5093,-2.596,-2.7219,-2.8349,-2.8434,-2.9145,-3.0219,-3.0306,-3.038,-3.0658,-3.0762,-3.0895,-3.1117,-3.1452,-3.2018,-3.2703,-3.3303,-3.3866,-3.4546,-3.4756,-3.5148,-3.5495,-3.5528,-3.5313,-3.4982,-3.4932,-3.5278,-3.622,-3.7786,-3.8623,-3.8303,-3.8704,-3.9223,-3.9922,-4.0642,-4.1276,-4.1743,-4.2257,-4.2595,-4.2844,-4.29,-4.29,-4.29,-4.29,-4.3013,-4.3178,-4.3322,-4.3648,-4.4232,-4.5333,-4.6214,-4.6562,-4.7315,-4.7737,-4.7865,-4.8067,-4.8364,-4.8586,-4.8513,-4.8711,-4.8949,-4.9034,-4.908,-4.9209,-4.9283,-4.9363,-4.9631,-4.9849,-5.0438,-5.096,-5.1547,-5.2277,-5.287,-5.3332,-5.4028,-5.4675,-5.4882,-5.5107,-5.5107,-5.5153,-5.5198,-5.5339,-5.5629,-5.6241,-5.6659,-5.6876,-5.7126,-5.7453,-5.7742,-5.8107,-1.4468,-1.4956,-1.4949,-1.5988,-1.7291,-1.7717,-1.8408,-1.9877,-1.9726,-1.9723,-1.967,-1.9029,-1.8789,-1.8684,-1.963,-2.0042,-2.0042,-2.1336,-2.1999,-2.2297,-2.2543,-2.2775,-2.3138,-2.4007,-2.4598,-2.5051,-2.5673,-2.7054,-2.8233,-2.8144,-2.8884,-3.0045,-2.9987,-3.0104,-3.0527,-3.0674,-3.0822,-3.1117,-3.1495,-3.1977,-3.2501,-3.3319,-3.3968,-3.4399,-3.4691,-3.4916,-3.4982,-3.4965,-3.4916,-3.4916,-3.4899,-3.5328,-3.6137,-3.6754,-3.7236,-3.7716,-3.8317,-3.8882,-3.9461,-4.029,-4.1323,-4.1724,-4.2261,-4.2808,-4.2846,-4.29,-4.29,-4.29,-4.29,-4.3013,-4.3178,-4.3393,-4.3534,-4.3736,-4.4287,-4.4892,-4.559,-4.6434,-4.7003,-4.7058,-4.7682,-4.8086,-4.8347,-4.8567,-4.8866,-4.9394,-4.9424,-4.9453,-4.957,-4.9646,-4.9627,-4.9637,-4.9807,-4.9977,-5.044,-5.0903,-5.1637,-5.2303,-5.2658,-5.3332,-5.4446,-5.4875,-5.5327,-5.5542,-5.5446,-5.5466,-5.5573,-5.6047,-5.653,-5.6722,-5.6684,-5.7242,-5.7838,-5.8069,-5.8396,-1.3432,-1.3981,-1.4302,-1.4553,-1.4806,-1.5724,-1.6756,-1.7845,-1.8391,-1.8894,-1.9244,-1.9231,-1.8896,-1.8613,-1.9346,-1.9599,-1.9594,-2.0794,-2.1651,-2.2359,-2.2421,-2.2652,-2.3122,-2.4099,-2.4801,-2.5215,-2.6139,-2.7299,-2.8303,-2.8637,-2.916,-3.0234,-2.9987,-2.9929,-3.0468,-3.0162,-3.0221,-3.0793,-3.1161,-3.1823,-3.2555,-3.3093,-3.3783,-3.4546,-3.4787,-3.4899,-3.4899,-3.4899,-3.4899,-3.4899,-3.4949,-3.5278,-3.5776,-3.5837,-3.6315,-3.7181,-3.7778,-3.8125,-3.8397,-3.8997,-3.966,-4.0789,-4.1346,-4.1833,-4.2846,-4.2882,-4.2882,-4.2882,-4.29,-4.3013,-4.3178,-4.3393,-4.3497,-4.3552,-4.3699,-4.3901,-4.4213,-4.5314,-4.6067,-4.6324,-4.6893,-4.7555,-4.8035,-4.8423,-4.8933,-4.9654,-4.9819,-4.9811,-4.9903,-5.0,-4.9955,-4.9857,-4.9967,-5.0145,-5.0355,-5.071,-5.1162,-5.1679,-5.2005,-5.2491,-5.3606,-5.4299,-5.453,-5.5088,-5.5662,-5.5645,-5.5472,-5.5742,-5.6069,-5.6261,-5.653,-5.7069,-5.7607,-5.805,-5.88,-1.2581,-1.3024,-1.3654,-1.4122,-1.4521,-1.5204,-1.6158,-1.7201,-1.7608,-1.8195,-1.8794,-1.8814,-1.8545,-1.8419,-1.9008,-1.9375,-1.9813,-2.0933,-2.177,-2.2019,-2.2031,-2.2018,-2.2394,-2.3696,-2.4714,-2.5308,-2.5689,-2.6916,-2.8235,-2.871,-2.9131,-3.0045,-2.9755,-2.9784,-3.0074,-2.9769,-2.9827,-3.025,-3.0749,-3.1321,-3.1905,-3.2446,-3.3319,-3.4284,-3.4546,-3.4594,-3.4883,-3.4899,-3.4899,-3.4899,-3.4899,-3.5048,-3.5363,-3.5274,-3.5618,-3.6214,-3.6928,-3.7437,-3.782,-3.8529,-3.9368,-4.0313,-4.0659,-4.1065,-4.1848,-4.2357,-4.2665,-4.2538,-4.2666,-4.2957,-4.316,-4.3322,-4.3428,-4.3479,-4.3479,-4.3479,-4.3681,-4.458,-4.5333,-4.5516,-4.6175,-4.6771,-4.7341,-4.7909,-4.8487,-4.8996,-4.9371,-4.9447,-5.0076,-5.0169,-5.0212,-5.0169,-5.0259,-5.0344,-5.0454,-5.0653,-5.0811,-5.1083,-5.1258,-5.176,-5.2549,-5.3068,-5.3472,-5.4164,-5.4876,-5.5088,-5.5011,-5.5318,-5.5568,-5.5876,-5.6242,-5.6761,-5.73,-5.7819,-5.8858,-1.1792,-1.2232,-1.2949,-1.386,-1.4743,-1.4805,-1.5675,-1.6998,-1.7071,-1.7352,-1.8193,-1.8008,-1.8066,-1.8055,-1.8429,-1.9194,-1.9984,-2.0887,-2.1367,-2.1403,-2.1392,-2.1331,-2.163,-2.2604,-2.4006,-2.5353,-2.5619,-2.6707,-2.8006,-2.8492,-2.8623,-2.929,-2.916,-2.916,-2.9348,-2.9348,-2.9406,-2.9726,-3.0309,-3.0984,-3.1392,-3.2059,-3.3055,-3.4134,-3.4399,-3.4546,-3.4835,-3.4899,-3.4899,-3.4899,-3.4899,-3.4899,-3.4899,-3.4899,-3.4947,-3.5155,-3.6021,-3.6712,-3.7413,-3.8275,-3.9146,-4.0149,-4.0293,-4.0402,-4.0836,-4.156,-4.1868,-4.1995,-4.2104,-4.2778,-4.3086,-4.3389,-4.3563,-4.3631,-4.3664,-4.3631,-4.3741,-4.4276,-4.4604,-4.4757,-4.5463,-4.616,-4.6625,-4.7126,-4.7737,-4.8308,-4.8677,-4.9137,-4.9767,-5.0149,-5.0054,-5.0287,-5.0348,-5.0435,-5.054,-5.0603,-5.0759,-5.0779,-5.0837,-5.1183,-5.1664,-5.1895,-5.2414,-5.328,-5.3857,-5.4107,-5.4357,-5.4511,-5.4857,-5.5376,-5.5972,-5.6492,-5.7049,-5.7588,-5.8781,-1.0487,-1.1642,-1.1952,-1.2437,-1.2993,-1.3202,-1.3874,-1.4707,-1.5513,-1.6219,-1.6961,-1.7629,-1.7677,-1.7625,-1.7556,-1.8117,-1.904,-1.9863,-2.0417,-2.0638,-2.0758,-2.0746,-2.0855,-2.1411,-2.2528,-2.4158,-2.5384,-2.6791,-2.7458,-2.7461,-2.7911,-2.8434,-2.7955,-2.7882,-2.8361,-2.8405,-2.8494,-2.9087,-2.9754,-3.0524,-3.1546,-3.229,-3.3198,-3.4317,-3.4431,-3.4691,-3.4851,-3.4899,-3.4899,-3.4899,-3.4899,-3.4899,-3.4899,-3.4899,-3.4994,-3.5215,-3.5729,-3.6249,-3.6671,-3.733,-3.8122,-3.8832,-3.9337,-3.9894,-4.0329,-4.0673,-4.0745,-4.0999,-4.1469,-4.2264,-4.2603,-4.3074,-4.3838,-4.4076,-4.405,-4.4117,-4.4202,-4.4341,-4.4419,-4.4445,-4.5047,-4.5569,-4.597,-4.6452,-4.7087,-4.7552,-4.7861,-4.8411,-4.906,-4.9408,-4.9522,-4.9908,-5.0371,-5.0478,-5.0562,-5.0623,-5.0721,-5.0721,-5.0741,-5.0741,-5.1029,-5.0914,-5.1375,-5.2318,-5.2953,-5.3318,-5.353,-5.3703,-5.4395,-5.5088,-5.5665,-5.6203,-5.6953,-5.7646,-5.8492,-1.0015,-1.0755,-1.1677,-1.2208,-1.2472,-1.2526,-1.3103,-1.3807,-1.4269,-1.5052,-1.6015,-1.6572,-1.69,-1.6951,-1.7051,-1.7476,-1.8233,-1.9216,-1.9622,-1.9818,-1.9991,-2.0041,-2.0116,-2.0498,-2.1522,-2.2924,-2.4671,-2.615,-2.6932,-2.7135,-2.7212,-2.7382,-2.718,-2.7263,-2.7229,-2.7258,-2.736,-2.7911,-2.8735,-2.966,-3.0648,-3.145,-3.2671,-3.3598,-3.4053,-3.4301,-3.4851,-3.4899,-3.4899,-3.4899,-3.4899,-3.4899,-3.4899,-3.4899,-3.4947,-3.5135,-3.5532,-3.5854,-3.6139,-3.6803,-3.7458,-3.8024,-3.8527,-3.8898,-3.9206,-3.9297,-3.9387,-3.9639,-4.0598,-4.1407,-4.1577,-4.2193,-4.2693,-4.3338,-4.3558,-4.3868,-4.4205,-4.4354,-4.4346,-4.4318,-4.4814,-4.5205,-4.5318,-4.584,-4.6439,-4.6816,-4.707,-4.7646,-4.8315,-4.8548,-4.8723,-4.9207,-4.9669,-5.0099,-5.0353,-5.0701,-5.0702,-5.0702,-5.0991,-5.0991,-5.0914,-5.1048,-5.1068,-5.1452,-5.1972,-5.2645,-5.2741,-5.2972,-5.3895,-5.4703,-5.5068,-5.5607,-5.6799,-5.778,-5.8492,-0.9518,-0.982,-1.1174,-1.1922,-1.2077,-1.2224,-1.2721,-1.3302,-1.339,-1.4203,-1.5441,-1.5579,-1.5918,-1.6331,-1.6619,-1.693,-1.7612,-1.8692,-1.892,-1.8929,-1.92,-1.9211,-1.9419,-1.9899,-2.0768,-2.1472,-2.2789,-2.4613,-2.5877,-2.6275,-2.6404,-2.6332,-2.6679,-2.663,-2.6112,-2.6416,-2.6184,-2.6823,-2.7534,-2.8519,-2.9195,-3.0339,-3.1582,-3.2631,-3.2942,-3.3599,-3.4409,-3.4568,-3.4733,-3.4833,-3.4899,-3.4899,-3.4899,-3.4899,-3.4947,-3.5135,-3.5367,-3.5766,-3.6249,-3.69,-3.7522,-3.7847,-3.8003,-3.8176,-3.8264,-3.8464,-3.8355,-3.8497,-3.949,-4.0586,-4.0832,-4.1029,-4.1693,-4.2417,-4.2865,-4.3052,-4.3736,-4.4109,-4.4335,-4.4454,-4.4716,-4.4953,-4.5152,-4.5312,-4.5938,-4.6056,-4.629,-4.6729,-4.7322,-4.7535,-4.7786,-4.829,-4.8832,-4.947,-5.0009,-5.0759,-5.076,-5.0702,-5.1356,-5.1798,-5.1625,-5.151,-5.151,-5.1548,-5.1645,-5.2222,-5.2222,-5.2279,-5.2933,-5.3568,-5.4145,-5.5184,-5.6626,-5.7453,-5.805,-0.8169,-0.8927,-0.982,-1.0576,-1.1335,-1.2009,-1.2311,-1.2572,-1.2977,-1.3749,-1.448,-1.507,-1.536,-1.5785,-1.6078,-1.626,-1.6644,-1.727,-1.7902,-1.8189,-1.8414,-1.8738,-1.8946,-1.9076,-1.9812,-2.0461,-2.1131,-2.2613,-2.4353,-2.4969,-2.5085,-2.5084,-2.4953,-2.4747,-2.556,-2.5792,-2.646,-2.7258,-2.7665,-2.836,-2.9514,-3.0634,-3.1291,-3.1788,-3.2288,-3.2927,-3.3653,-3.3876,-3.4137,-3.4667,-3.48,-3.4866,-3.4899,-3.4899,-3.4994,-3.527,-3.5803,-3.6446,-3.6626,-3.7246,-3.7792,-3.7898,-3.8122,-3.8192,-3.8192,-3.8225,-3.8225,-3.8228,-3.9161,-3.9873,-4.0385,-4.1092,-4.1882,-4.2295,-4.2507,-4.2693,-4.3145,-4.3639,-4.3878,-4.4189,-4.4345,-4.4789,-4.5118,-4.5237,-4.5373,-4.5411,-4.5545,-4.6023,-4.6347,-4.6579,-4.7082,-4.7642,-4.8335,-4.899,-4.974,-5.0471,-5.0779,-5.0721,-5.1337,-5.2202,-5.2106,-5.1875,-5.2145,-5.2164,-5.2145,-5.1952,-5.1972,-5.2068,-5.2145,-5.2837,-5.3914,-5.5241,-5.6665,-5.7223,-5.7492,-0.794,-0.8775,-0.9593,-1.0351,-1.1111,-1.1484,-1.1774,-1.2038,-1.2143,-1.2565,-1.3145,-1.3647,-1.4391,-1.5217,-1.5557,-1.5672,-1.5921,-1.6425,-1.7034,-1.7611,-1.7932,-1.8401,-1.8898,-1.904,-1.9377,-2.0141,-2.0888,-2.1877,-2.3224,-2.4005,-2.4292,-2.4075,-2.4431,-2.4624,-2.4924,-2.5139,-2.5517,-2.6097,-2.6779,-2.7842,-2.8981,-2.9811,-3.0392,-3.1031,-3.1502,-3.2201,-3.2863,-3.3131,-3.3292,-3.3624,-3.3657,-3.3657,-3.3773,-3.3988,-3.43,-3.4518,-3.5467,-3.6053,-3.6381,-3.7076,-3.7541,-3.7898,-3.8002,-3.8192,-3.8192,-3.8225,-3.8368,-3.8676,-3.8891,-3.9305,-3.9704,-4.0181,-4.0928,-4.1487,-4.1888,-4.2314,-4.2545,-4.2966,-4.3326,-4.3652,-4.3978,-4.4322,-4.4685,-4.4876,-4.5048,-4.5335,-4.5354,-4.5583,-4.5757,-4.5816,-4.6434,-4.7146,-4.7895,-4.8664,-4.9452,-5.0202,-5.0664,-5.0721,-5.0818,-5.1587,-5.2125,-5.2241,-5.2454,-5.2684,-5.2761,-5.2472,-5.203,-5.201,-5.2241,-5.301,-5.3876,-5.5051,-5.6132,-5.6304,-5.6671,-0.7553,-0.8394,-0.9221,-0.9976,-1.0507,-1.0732,-1.1156,-1.1659,-1.1243,-1.1577,-1.2221,-1.2685,-1.3563,-1.4597,-1.4852,-1.5069,-1.542,-1.5864,-1.6425,-1.698,-1.7587,-1.817,-1.8614,-1.8927,-1.9396,-2.0207,-2.0346,-2.1119,-2.2008,-2.2838,-2.3293,-2.341,-2.4247,-2.456,-2.4413,-2.4829,-2.5444,-2.5792,-2.6489,-2.7365,-2.8292,-2.8777,-2.9444,-3.0102,-3.0752,-3.1368,-3.2159,-3.2431,-3.2431,-3.2762,-3.2829,-3.2961,-3.3143,-3.3375,-3.3669,-3.3934,-3.4692,-3.5326,-3.5925,-3.6632,-3.7155,-3.7596,-3.7915,-3.8192,-3.8192,-3.8225,-3.8433,-3.8886,-3.8815,-3.9007,-3.9298,-3.9577,-4.0132,-4.0672,-4.095,-4.1509,-4.2009,-4.2277,-4.2488,-4.2717,-4.3061,-4.3539,-4.3902,-4.4303,-4.4685,-4.5163,-4.5297,-4.5297,-4.5337,-4.5397,-4.5783,-4.6532,-4.7242,-4.7953,-4.8567,-4.9394,-5.001,-5.0818,-5.0914,-5.1433,-5.2261,-5.253,-5.2644,-5.2897,-5.3148,-5.2854,-5.2337,-5.2336,-5.2414,-5.3146,-5.3878,-5.4593,-5.5287,-5.5518,-5.5924,-0.6472,-0.7411,-0.8322,-0.8851,-0.9003,-0.9674,-1.0461,-1.1132,-1.0603,-1.1129,-1.2277,-1.2498,-1.2967,-1.3726,-1.4163,-1.4529,-1.5205,-1.5362,-1.5864,-1.6472,-1.7013,-1.7664,-1.8258,-1.872,-1.9105,-1.9275,-1.9685,-2.0147,-2.0768,-2.1925,-2.2684,-2.3583,-2.4104,-2.4321,-2.4693,-2.5278,-2.5952,-2.6257,-2.6721,-2.6997,-2.7624,-2.8112,-2.8627,-2.9265,-2.9907,-3.0588,-3.1347,-3.1572,-3.1868,-3.2348,-3.2348,-3.2497,-3.2646,-3.2762,-3.2956,-3.3106,-3.3684,-3.4411,-3.5278,-3.6397,-3.7452,-3.7931,-3.8174,-3.8192,-3.8192,-3.8192,-3.8478,-3.8886,-3.8828,-3.9045,-3.9383,-3.9708,-4.0003,-4.0245,-4.0517,-4.0711,-4.1151,-4.1399,-4.1609,-4.1762,-4.2144,-4.2698,-4.3061,-4.3424,-4.4188,-4.4704,-4.5277,-4.5297,-4.5338,-4.5359,-4.54,-4.588,-4.6532,-4.7107,-4.7471,-4.8507,-5.0254,-5.1042,-5.1273,-5.2003,-5.2904,-5.2978,-5.2647,-5.2965,-5.315,-5.2912,-5.2828,-5.305,-5.3241,-5.3379,-5.3938,-5.4898,-5.5407,-5.5707,-5.5928,-0.5461,-0.6244,-0.6773,-0.7621,-0.8699,-0.9003,-0.9825,-1.0668,-1.0647,-1.1109,-1.2134,-1.2014,-1.2367,-1.3086,-1.3674,-1.4034,-1.4519,-1.5079,-1.5584,-1.6243,-1.6867,-1.7501,-1.8112,-1.8667,-1.9153,-1.9397,-1.9519,-2.0295,-2.1665,-2.1783,-2.3081,-2.3999,-2.4212,-2.4388,-2.4947,-2.5727,-2.6416,-2.6663,-2.6794,-2.6922,-2.7063,-2.7357,-2.7894,-2.8701,-2.909,-2.9879,-3.0625,-3.0872,-3.108,-3.1305,-3.1421,-3.162,-3.1868,-3.1918,-3.1978,-3.2064,-3.2773,-3.3733,-3.4666,-3.5931,-3.7112,-3.8018,-3.8192,-3.8192,-3.8174,-3.8225,-3.846,-3.8741,-3.8952,-3.9189,-3.9717,-3.9954,-4.0117,-4.0196,-4.0253,-4.0291,-4.0463,-4.0788,-4.0903,-4.1132,-4.1495,-4.1953,-4.2259,-4.2545,-4.3424,-4.4246,-4.4838,-4.5337,-4.5379,-4.5592,-4.5745,-4.5955,-4.6644,-4.7405,-4.7838,-4.9238,-5.0758,-5.1161,-5.154,-5.2051,-5.2618,-5.2665,-5.2499,-5.286,-5.3176,-5.311,-5.3288,-5.3848,-5.4103,-5.413,-5.4684,-5.5535,-5.5838,-5.5952,-5.6083,-0.4373,-0.5157,-0.5619,-0.6777,-0.8169,-0.8322,-0.9185,-1.031,-1.0335,-1.0962,-1.1758,-1.1525,-1.1929,-1.2771,-1.3233,-1.3863,-1.4282,-1.4902,-1.5313,-1.5954,-1.666,-1.7288,-1.7895,-1.8566,-1.9257,-1.9641,-1.9735,-2.0321,-2.1508,-2.1927,-2.2821,-2.3741,-2.4643,-2.4812,-2.5185,-2.5901,-2.6576,-2.6736,-2.6794,-2.6922,-2.7011,-2.7357,-2.7795,-2.8701,-2.9182,-2.9621,-3.0211,-3.0474,-3.0542,-3.0617,-3.06,-3.0534,-3.0767,-3.1,-3.1174,-3.1479,-3.2111,-3.3257,-3.4134,-3.5315,-3.6606,-3.7525,-3.7757,-3.7902,-3.8135,-3.8256,-3.8566,-3.8924,-3.9144,-3.947,-3.9975,-4.0098,-4.0176,-4.0253,-4.0273,-4.0329,-4.0329,-4.052,-4.0482,-4.054,-4.0883,-4.1189,-4.1457,-4.1781,-4.2584,-4.3502,-4.4327,-4.4978,-4.5515,-4.5856,-4.6422,-4.667,-4.7056,-4.7824,-4.8629,-4.9569,-5.0416,-5.0984,-5.1283,-5.1411,-5.1777,-5.1936,-5.2095,-5.225,-5.2609,-5.3137,-5.3478,-5.3692,-5.4222,-5.4783,-5.5364,-5.5925,-5.6183,-5.6285,-5.6332,-0.3365,-0.4224,-0.5154,-0.6167,-0.7099,-0.7484,-0.8444,-0.9774,-0.9786,-1.0349,-1.1315,-1.1145,-1.1717,-1.2631,-1.2853,-1.3453,-1.4333,-1.4777,-1.5134,-1.5595,-1.6478,-1.697,-1.7568,-1.8331,-1.9195,-1.9533,-1.9555,-1.9867,-2.0949,-2.1553,-2.2233,-2.3218,-2.4415,-2.528,-2.5552,-2.5756,-2.617,-2.6678,-2.6779,-2.7011,-2.7276,-2.768,-2.8174,-2.8685,-2.9212,-2.9589,-2.9913,-3.0274,-3.0401,-3.0443,-3.0485,-3.0468,-3.0576,-3.0945,-3.1286,-3.1797,-3.2126,-3.2861,-3.3668,-3.496,-3.5945,-3.6816,-3.7047,-3.7406,-3.802,-3.8378,-3.8722,-3.9115,-3.9364,-3.967,-3.9975,-4.0138,-4.0196,-4.0253,-4.0291,-4.0329,-4.0329,-4.0329,-4.0329,-4.0329,-4.0329,-4.0425,-4.0673,-4.1055,-4.182,-4.2699,-4.3691,-4.4511,-4.5235,-4.5883,-4.6441,-4.7221,-4.755,-4.8406,-4.9112,-4.943,-5.0053,-5.0645,-5.1092,-5.1307,-5.1354,-5.1507,-5.1622,-5.1684,-5.2005,-5.2519,-5.296,-5.3357,-5.391,-5.4499,-5.5511,-5.609,-5.6374,-5.6553,-5.6528,-0.2273,-0.3054,-0.3521,-0.4297,-0.5312,-0.6714,-0.7974,-0.9138,-0.9936,-1.0544,-1.0901,-1.1134,-1.1388,-1.1917,-1.2497,-1.3099,-1.3924,-1.4382,-1.47,-1.579,-1.6497,-1.6969,-1.7549,-1.8173,-1.9005,-1.9425,-1.9469,-2.0205,-2.1836,-2.1937,-2.2575,-2.3632,-2.4587,-2.5514,-2.605,-2.626,-2.65,-2.675,-2.6832,-2.687,-2.7063,-2.7306,-2.768,-2.8192,-2.8826,-2.9319,-2.9694,-3.013,-3.0359,-3.0443,-3.0468,-3.0493,-3.0559,-3.0908,-3.1565,-3.2144,-3.257,-3.2692,-3.3255,-3.4055,-3.4767,-3.5688,-3.6394,-3.6934,-3.7965,-3.8058,-3.8599,-3.9164,-3.9269,-3.9596,-3.9954,-4.0058,-4.0138,-4.0215,-4.0253,-4.0291,-4.0329,-4.0329,-4.0329,-4.0329,-4.0329,-4.0347,-4.0499,-4.0929,-4.1577,-4.2042,-4.2953,-4.392,-4.47,-4.5465,-4.6139,-4.7306,-4.8094,-4.8983,-4.9662,-4.9827,-5.0264,-5.0965,-5.1245,-5.1336,-5.1347,-5.1302,-5.1366,-5.1542,-5.1683,-5.1882,-5.2253,-5.2702,-5.3411,-5.4156,-5.4846,-5.5432,-5.5636,-5.6075,-5.6563,-0.1571,-0.2118,-0.2507,-0.3054,-0.391,-0.5851,-0.7492,-0.8732,-0.9895,-1.0399,-1.0522,-1.0948,-1.1297,-1.161,-1.2147,-1.2774,-1.3545,-1.4143,-1.4507,-1.5716,-1.6457,-1.6931,-1.7467,-1.8116,-1.8967,-1.9434,-1.97,-2.0323,-2.1756,-2.2143,-2.3032,-2.4142,-2.4851,-2.5536,-2.6094,-2.6428,-2.6549,-2.675,-2.6855,-2.71,-2.724,-2.7494,-2.7879,-2.8255,-2.8732,-2.9227,-2.9633,-3.0,-3.0375,-3.0401,-3.0468,-3.051,-3.0623,-3.1116,-3.1789,-3.247,-3.2816,-3.2866,-3.3176,-3.3394,-3.4135,-3.4896,-3.5473,-3.6282,-3.7246,-3.7423,-3.7804,-3.8328,-3.881,-3.9186,-3.9464,-3.9622,-3.9814,-3.9872,-4.0177,-4.0196,-4.0271,-4.0271,-4.0381,-4.0381,-4.0432,-4.0432,-4.0488,-4.0943,-4.1456,-4.1832,-4.2225,-4.3265,-4.4394,-4.5338,-4.6273,-4.7437,-4.8444,-4.9255,-4.9816,-5.0073,-5.0581,-5.1273,-5.1336,-5.1277,-5.139,-5.1362,-5.1371,-5.1394,-5.1531,-5.1629,-5.1609,-5.1995,-5.2557,-5.3084,-5.363,-5.4201,-5.4732,-5.5396,-5.6079,-0.1258,-0.1414,-0.2119,-0.2508,-0.3052,-0.4838,-0.6773,-0.8556,-0.9397,-0.9758,-0.9884,-1.0479,-1.1095,-1.1682,-1.2144,-1.275,-1.3336,-1.409,-1.4595,-1.5112,-1.6048,-1.665,-1.7289,-1.7884,-1.867,-1.9476,-1.9941,-2.0194,-2.1356,-2.1989,-2.3193,-2.4288,-2.4509,-2.5147,-2.5701,-2.6136,-2.6297,-2.6616,-2.6878,-2.7086,-2.724,-2.8094,-2.8304,-2.8638,-2.9074,-2.947,-2.9798,-3.0044,-3.0205,-3.0316,-3.0426,-3.049,-3.0746,-3.1268,-3.2057,-3.2687,-3.2975,-3.3086,-3.3238,-3.3393,-3.3595,-3.4293,-3.4724,-3.5332,-3.5944,-3.6601,-3.7118,-3.7366,-3.7714,-3.8211,-3.8652,-3.8937,-3.9222,-3.9546,-4.0003,-4.0116,-4.0189,-4.0279,-4.0454,-4.0534,-4.0607,-4.0654,-4.0712,-4.1049,-4.1633,-4.2013,-4.2555,-4.3518,-4.4657,-4.591,-4.685,-4.7827,-4.8761,-4.9455,-4.9844,-4.9829,-5.0278,-5.077,-5.1023,-5.1063,-5.1219,-5.1375,-5.1394,-5.1394,-5.1394,-5.1433,-5.1492,-5.1472,-5.157,-5.2078,-5.2663,-5.319,-5.3795,-5.4635,-5.5279,-0.0629,-0.0707,-0.1335,-0.1727,-0.1961,-0.3137,-0.4771,-0.6472,-0.7492,-0.8183,-0.8961,-1.038,-1.0896,-1.1346,-1.2005,-1.2742,-1.3153,-1.3638,-1.451,-1.5155,-1.5641,-1.6474,-1.7111,-1.7588,-1.8275,-1.8982,-1.9522,-2.0068,-2.1024,-2.175,-2.2563,-2.3479,-2.3872,-2.4452,-2.509,-2.5536,-2.5974,-2.6457,-2.6826,-2.7034,-2.724,-2.7913,-2.8158,-2.8496,-2.912,-2.947,-2.9677,-3.0,-3.0189,-3.0401,-3.074,-3.0842,-3.0581,-3.1509,-3.242,-3.2866,-3.3055,-3.3208,-3.3473,-3.3615,-3.3807,-3.4049,-3.4519,-3.4596,-3.5136,-3.576,-3.6402,-3.6595,-3.6844,-3.7414,-3.7813,-3.8134,-3.845,-3.884,-3.926,-3.9519,-3.9681,-4.0102,-4.032,-4.0926,-4.0967,-4.1122,-4.1172,-4.1429,-4.1985,-4.2344,-4.3011,-4.3992,-4.4839,-4.606,-4.6839,-4.7767,-4.8302,-4.8771,-4.9048,-4.9091,-4.9677,-5.0184,-5.0379,-5.0711,-5.1082,-5.1238,-5.1336,-5.1394,-5.1394,-5.1394,-5.1414,-5.1394,-5.1394,-5.1394,-5.1882,-5.2351,-5.2917,-5.3737,-5.4342,-0.0079,-0.0393,-0.0707,-0.1022,-0.1336,-0.1965,-0.3061,-0.446,-0.5851,-0.6861,-0.748,-0.919,-1.0257,-1.0651,-1.1378,-1.2184,-1.2896,-1.3272,-1.3907,-1.4418,-1.5072,-1.5878,-1.6582,-1.7038,-1.7665,-1.8408,-1.9168,-1.9717,-2.0655,-2.1376,-2.2125,-2.3148,-2.3267,-2.4034,-2.4865,-2.5425,-2.5865,-2.6351,-2.6721,-2.7034,-2.7378,-2.7815,-2.8158,-2.8448,-2.912,-2.9393,-2.9572,-3.0017,-3.0231,-3.0443,-3.0804,-3.106,-3.1056,-3.1952,-3.2555,-3.293,-3.2993,-3.325,-3.3494,-3.3652,-3.3972,-3.4269,-3.4517,-3.4602,-3.4821,-3.5321,-3.5627,-3.5856,-3.6255,-3.6634,-3.6954,-3.7305,-3.7644,-3.7993,-3.8381,-3.8774,-3.9245,-3.9782,-4.0438,-4.1198,-4.151,-4.1694,-4.1869,-4.2099,-4.2638,-4.3498,-4.4228,-4.5,-4.5479,-4.5986,-4.647,-4.6995,-4.7389,-4.7783,-4.8037,-4.8369,-4.8837,-4.9267,-4.9501,-4.9911,-5.0614,-5.0945,-5.0926,-5.1141,-5.1394,-5.1394,-5.1394,-5.1394,-5.1394,-5.1394,-5.1394,-5.1765,-5.2292,-5.2858,-5.3327,0.0392,-0.0157,-0.0236,-0.0629,-0.1179,-0.1258,-0.1729,-0.2595,-0.438,-0.5455,-0.5989,-0.7573,-0.8889,-0.9604,-1.0501,-1.1254,-1.1909,-1.2524,-1.3013,-1.3455,-1.4196,-1.5122,-1.5852,-1.6149,-1.7033,-1.8066,-1.892,-1.942,-2.0215,-2.1123,-2.2137,-2.3027,-2.3492,-2.4092,-2.4681,-2.5328,-2.577,-2.6326,-2.6774,-2.7174,-2.7849,-2.8591,-2.9273,-2.9531,-2.9726,-2.9858,-2.9902,-3.0033,-3.0146,-3.0384,-3.0845,-3.1359,-3.1897,-3.2368,-3.2752,-3.2898,-3.2961,-3.3262,-3.356,-3.377,-3.413,-3.4409,-3.4647,-3.4752,-3.4965,-3.504,-3.5305,-3.5434,-3.5791,-3.6042,-3.6362,-3.6536,-3.6806,-3.7223,-3.7649,-3.7954,-3.8316,-3.9005,-3.9876,-4.0668,-4.1377,-4.1657,-4.2451,-4.2695,-4.3332,-4.4507,-4.5089,-4.5655,-4.6074,-4.6206,-4.6312,-4.6459,-4.6749,-4.71,-4.7256,-4.7608,-4.7959,-4.831,-4.8603,-4.9111,-4.9813,-5.0165,-5.0438,-5.077,-5.1102,-5.1336,-5.1394,-5.1394,-5.1394,-5.1394,-5.1394,-5.1394,-5.1746,-5.2253,-5.2409,0.1255,0.1019,0.0078,-0.0393,-0.055,-0.055,-0.0943,-0.165,-0.2198,-0.3675,-0.5464,-0.7204,-0.8214,-0.8537,-0.9518,-1.0196,-1.0571,-1.1465,-1.1983,-1.2572,-1.3295,-1.4266,-1.553,-1.5551,-1.6368,-1.7263,-1.8114,-1.9013,-2.0204,-2.1262,-2.1987,-2.2408,-2.304,-2.3728,-2.4266,-2.4921,-2.5564,-2.6111,-2.6486,-2.6893,-2.7342,-2.8012,-2.8591,-2.8982,-2.9227,-2.9814,-3.0017,-3.0326,-3.0576,-3.0885,-3.1603,-3.2162,-3.2603,-3.2802,-3.2884,-3.2916,-3.3055,-3.3361,-3.3707,-3.3986,-3.4321,-3.4651,-3.4889,-3.4982,-3.5035,-3.5034,-3.5086,-3.5168,-3.533,-3.5545,-3.574,-3.5867,-3.6029,-3.6503,-3.691,-3.7167,-3.7413,-3.8318,-3.9254,-4.0202,-4.1033,-4.1857,-4.2707,-4.3493,-4.4172,-4.4612,-4.4914,-4.5371,-4.5984,-4.6261,-4.6251,-4.6351,-4.6342,-4.6573,-4.671,-4.6885,-4.7276,-4.753,-4.7822,-4.8388,-4.8993,-4.9528,-4.9999,-5.0422,-5.077,-5.0984,-5.1199,-5.1394,-5.1394,-5.1394,-5.1394,-5.1394,-5.1394,-5.1765,-5.1726,0.2504,0.2112,0.0706,0.0079,0.0079,0.0079,-0.0157,-0.0471,-0.0943,-0.2117,-0.383,-0.5792,-0.703,-0.7456,-0.8523,-0.9286,-0.9518,-1.0271,-1.0714,-1.1378,-1.2204,-1.3039,-1.392,-1.4721,-1.5292,-1.6044,-1.6991,-1.8123,-1.9868,-2.059,-2.1123,-2.1776,-2.2482,-2.3255,-2.3728,-2.4452,-2.5272,-2.5756,-2.6056,-2.6433,-2.687,-2.758,-2.8094,-2.848,-2.9028,-2.956,-2.9782,-3.0097,-3.0368,-3.079,-3.1419,-3.2336,-3.2805,-3.314,-3.3201,-3.3238,-3.3379,-3.357,-3.3968,-3.4255,-3.448,-3.4793,-3.4945,-3.4982,-3.507,-3.5088,-3.5155,-3.5266,-3.5406,-3.5631,-3.5673,-3.5764,-3.5853,-3.6173,-3.6409,-3.6605,-3.7027,-3.7702,-3.9084,-4.061,-4.1323,-4.1889,-4.2855,-4.4011,-4.4587,-4.486,-4.5089,-4.5428,-4.5961,-4.628,-4.6264,-4.6264,-4.628,-4.6287,-4.6436,-4.6515,-4.6632,-4.6866,-4.7126,-4.7542,-4.8116,-4.8936,-4.958,-4.9756,-5.008,-5.0575,-5.0789,-5.1008,-5.1316,-5.1394,-5.1394,-5.1394,-5.1394,-5.1398,-5.1457,0.3906,0.3202,0.1645,0.0942,0.0863,0.0863,0.0785,0.0471,-0.0078,-0.0628,-0.1568,-0.3673,-0.5143,-0.6374,-0.7375,-0.8291,-0.8983,-0.9362,-0.9664,-1.0051,-1.0881,-1.2003,-1.2739,-1.3317,-1.433,-1.533,-1.6298,-1.7472,-1.8834,-1.9672,-2.0515,-2.1101,-2.2027,-2.3075,-2.3505,-2.4279,-2.523,-2.5605,-2.5988,-2.6472,-2.693,-2.7378,-2.7898,-2.8384,-2.8826,-2.9166,-2.9364,-2.9722,-3.006,-3.0651,-3.1453,-3.2319,-3.3051,-3.3436,-3.3535,-3.3585,-3.3606,-3.3858,-3.4184,-3.4348,-3.4609,-3.4831,-3.4889,-3.5,-3.5141,-3.5223,-3.5285,-3.5378,-3.5546,-3.5621,-3.566,-3.5697,-3.5779,-3.5866,-3.6033,-3.6137,-3.6629,-3.7097,-3.8647,-4.0407,-4.1114,-4.1646,-4.2885,-4.408,-4.4616,-4.4929,-4.5316,-4.5748,-4.6052,-4.6172,-4.6229,-4.6249,-4.625,-4.6267,-4.628,-4.6317,-4.636,-4.6422,-4.6679,-4.6874,-4.7246,-4.8047,-4.8594,-4.875,-4.9139,-4.974,-5.022,-5.0496,-5.0822,-5.1109,-5.1375,-5.1375,-5.1402,-5.1382,-5.1382,0.5146,0.4758,0.3437,0.2659,0.2427,0.2427,0.1725,0.0785,0.1098,0.0784,0.0,-0.0941,-0.2425,-0.4368,-0.5378,-0.6224,-0.6919,-0.7757,-0.8609,-0.9079,-0.997,-1.1174,-1.2137,-1.2625,-1.4171,-1.5171,-1.6079,-1.7394,-1.7872,-1.8992,-2.0117,-2.0846,-2.1694,-2.2737,-2.3846,-2.4567,-2.516,-2.555,-2.5988,-2.6418,-2.7144,-2.765,-2.8207,-2.8732,-2.9319,-2.9621,-2.993,-3.0477,-3.0868,-3.1376,-3.193,-3.2588,-3.3183,-3.3658,-3.3826,-3.3781,-3.3815,-3.408,-3.4321,-3.4524,-3.4772,-3.4926,-3.5035,-3.5207,-3.5315,-3.5416,-3.5483,-3.5558,-3.5689,-3.5727,-3.5754,-3.5795,-3.5872,-3.5872,-3.5967,-3.5986,-3.622,-3.6532,-3.7317,-3.8725,-3.9828,-4.0896,-4.2295,-4.3224,-4.381,-4.4167,-4.4625,-4.5058,-4.5401,-4.5746,-4.6092,-4.6189,-4.6192,-4.6215,-4.6219,-4.6226,-4.6264,-4.6243,-4.6261,-4.6473,-4.6764,-4.7171,-4.7581,-4.7757,-4.8272,-4.8903,-4.9355,-4.9707,-5.0074,-5.0383,-5.1089,-5.1379,-5.1346,-5.1391,-5.1391]}]]